<?xml version="1.0" encoding="UTF-8" standalone="no" ?>
<gpx xmlns="http://www.topografix.com/GPX/1/1" xmlns:xsi="http://www.w3.org/2001/XMLSchema-instance" xsi:schemaLocation="http://www.topografix.com/GPX/1/1 http://www.topografix.com/GPX/1/1/gpx.xsd" version="1.1" creator="VisuGPX - https://www.visugpx.com">
  <metadata>
    <name>Place aux Filles - Sainte-Marie</name>
  </metadata>
  <trk>
    <name><![CDATA[Place aux Filles - Sainte-Marie]]></name>
    <trkseg>
      <trkpt lat="46.10712" lon="4.61196">
        <ele>316</ele>
        <time>2018-01-08T14:01:34Z</time>
      </trkpt>
      <trkpt lat="46.10686" lon="4.61194">
        <ele>316</ele>
        <time>2018-01-08T14:01:50Z</time>
      </trkpt>
      <trkpt lat="46.10596" lon="4.61053">
        <ele>316</ele>
        <time>2018-01-08T14:01:50Z</time>
      </trkpt>
      <trkpt lat="46.10576" lon="4.60951">
        <ele>316</ele>
        <time>2018-01-08T14:01:50Z</time>
      </trkpt>
      <trkpt lat="46.10611" lon="4.60879">
        <ele>316</ele>
        <time>2018-01-08T14:01:50Z</time>
      </trkpt>
      <trkpt lat="46.10682" lon="4.60887">
        <ele>316</ele>
        <time>2018-01-08T14:02:06Z</time>
      </trkpt>
      <trkpt lat="46.10784" lon="4.6088">
        <ele>316</ele>
        <time>2018-01-08T14:02:06Z</time>
      </trkpt>
      <trkpt lat="46.10844" lon="4.60904">
        <ele>315</ele>
        <time>2018-01-08T14:02:06Z</time>
      </trkpt>
      <trkpt lat="46.10862" lon="4.6089">
        <ele>315</ele>
        <time>2018-01-08T14:02:06Z</time>
      </trkpt>
      <trkpt lat="46.10829" lon="4.6079">
        <ele>315</ele>
        <time>2018-01-08T14:02:22Z</time>
      </trkpt>
      <trkpt lat="46.10806" lon="4.60791">
        <ele>314</ele>
        <time>2018-01-08T14:02:22Z</time>
      </trkpt>
      <trkpt lat="46.10823" lon="4.60719">
        <ele>314</ele>
        <time>2018-01-08T14:02:22Z</time>
      </trkpt>
      <trkpt lat="46.10826" lon="4.60658">
        <ele>314</ele>
        <time>2018-01-08T14:02:22Z</time>
      </trkpt>
      <trkpt lat="46.10865" lon="4.60543">
        <ele>315</ele>
        <time>2018-01-08T14:02:38Z</time>
      </trkpt>
      <trkpt lat="46.10876" lon="4.60409">
        <ele>315</ele>
        <time>2018-01-08T14:02:38Z</time>
      </trkpt>
      <trkpt lat="46.10874" lon="4.60323">
        <ele>316</ele>
        <time>2018-01-08T14:02:38Z</time>
      </trkpt>
      <trkpt lat="46.10905" lon="4.60272">
        <ele>316</ele>
        <time>2018-01-08T14:02:38Z</time>
      </trkpt>
      <trkpt lat="46.10942" lon="4.60193">
        <ele>316</ele>
        <time>2018-01-08T14:02:54Z</time>
      </trkpt>
      <trkpt lat="46.10968" lon="4.6016">
        <ele>315</ele>
        <time>2018-01-08T14:02:54Z</time>
      </trkpt>
      <trkpt lat="46.1097" lon="4.60074">
        <ele>315</ele>
        <time>2018-01-08T14:02:54Z</time>
      </trkpt>
      <trkpt lat="46.10988" lon="4.6">
        <ele>315</ele>
        <time>2018-01-08T14:02:54Z</time>
      </trkpt>
      <trkpt lat="46.10992" lon="4.59837">
        <ele>315</ele>
        <time>2018-01-08T14:03:10Z</time>
      </trkpt>
      <trkpt lat="46.11001" lon="4.59765">
        <ele>315</ele>
        <time>2018-01-08T14:03:10Z</time>
      </trkpt>
      <trkpt lat="46.10984" lon="4.59311">
        <ele>315</ele>
        <time>2018-01-08T14:03:10Z</time>
      </trkpt>
      <trkpt lat="46.10966" lon="4.59087">
        <ele>315</ele>
        <time>2018-01-08T14:03:10Z</time>
      </trkpt>
      <trkpt lat="46.1096" lon="4.59225">
        <ele>316</ele>
        <time>2018-01-08T14:03:26Z</time>
      </trkpt>
      <trkpt lat="46.10959" lon="4.59099">
        <ele>316</ele>
        <time>2018-01-08T14:03:26Z</time>
      </trkpt>
      <trkpt lat="46.10955" lon="4.59188">
        <ele>316</ele>
        <time>2018-01-08T14:03:26Z</time>
      </trkpt>
      <trkpt lat="46.10952" lon="4.59108">
        <ele>317</ele>
        <time>2018-01-08T14:03:26Z</time>
      </trkpt>
      <trkpt lat="46.1095" lon="4.59115">
        <ele>317</ele>
        <time>2018-01-08T14:04:02Z</time>
      </trkpt>
      <trkpt lat="46.10949" lon="4.59109">
        <ele>317</ele>
        <time>2018-01-08T14:04:02Z</time>
      </trkpt>
      <trkpt lat="46.10945" lon="4.59105">
        <ele>317</ele>
        <time>2018-01-08T14:04:02Z</time>
      </trkpt>
      <trkpt lat="46.1094" lon="4.59101">
        <ele>318</ele>
        <time>2018-01-08T14:04:02Z</time>
      </trkpt>
      <trkpt lat="46.10937" lon="4.59097">
        <ele>318</ele>
        <time>2018-01-08T14:04:02Z</time>
      </trkpt>
      <trkpt lat="46.10934" lon="4.59094">
        <ele>318</ele>
        <time>2018-01-08T14:04:18Z</time>
      </trkpt>
      <trkpt lat="46.10931" lon="4.59091">
        <ele>318</ele>
        <time>2018-01-08T14:04:18Z</time>
      </trkpt>
      <trkpt lat="46.10927" lon="4.59089">
        <ele>318</ele>
        <time>2018-01-08T14:04:18Z</time>
      </trkpt>
      <trkpt lat="46.10923" lon="4.59086">
        <ele>319</ele>
        <time>2018-01-08T14:04:18Z</time>
      </trkpt>
      <trkpt lat="46.1092" lon="4.59083">
        <ele>319</ele>
        <time>2018-01-08T14:04:34Z</time>
      </trkpt>
      <trkpt lat="46.10917" lon="4.59081">
        <ele>319</ele>
        <time>2018-01-08T14:04:34Z</time>
      </trkpt>
      <trkpt lat="46.10912" lon="4.59077">
        <ele>320</ele>
        <time>2018-01-08T14:04:34Z</time>
      </trkpt>
      <trkpt lat="46.10909" lon="4.59075">
        <ele>321</ele>
        <time>2018-01-08T14:04:34Z</time>
      </trkpt>
      <trkpt lat="46.10906" lon="4.59072">
        <ele>322</ele>
        <time>2018-01-08T14:04:50Z</time>
      </trkpt>
      <trkpt lat="46.10903" lon="4.59069">
        <ele>324</ele>
        <time>2018-01-08T14:04:50Z</time>
      </trkpt>
      <trkpt lat="46.109" lon="4.59067">
        <ele>325</ele>
        <time>2018-01-08T14:04:50Z</time>
      </trkpt>
      <trkpt lat="46.10897" lon="4.59065">
        <ele>326</ele>
        <time>2018-01-08T14:04:50Z</time>
      </trkpt>
      <trkpt lat="46.10893" lon="4.59062">
        <ele>327</ele>
        <time>2018-01-08T14:05:06Z</time>
      </trkpt>
      <trkpt lat="46.10888" lon="4.59059">
        <ele>329</ele>
        <time>2018-01-08T14:05:06Z</time>
      </trkpt>
      <trkpt lat="46.10883" lon="4.59055">
        <ele>330</ele>
        <time>2018-01-08T14:05:06Z</time>
      </trkpt>
      <trkpt lat="46.10881" lon="4.59051">
        <ele>331</ele>
        <time>2018-01-08T14:05:06Z</time>
      </trkpt>
      <trkpt lat="46.10879" lon="4.59048">
        <ele>331</ele>
        <time>2018-01-08T14:05:22Z</time>
      </trkpt>
      <trkpt lat="46.10875" lon="4.59045">
        <ele>333</ele>
        <time>2018-01-08T14:05:22Z</time>
      </trkpt>
      <trkpt lat="46.10873" lon="4.59041">
        <ele>333</ele>
        <time>2018-01-08T14:05:22Z</time>
      </trkpt>
      <trkpt lat="46.1087" lon="4.59037">
        <ele>334</ele>
        <time>2018-01-08T14:05:22Z</time>
      </trkpt>
      <trkpt lat="46.10868" lon="4.59035">
        <ele>335</ele>
        <time>2018-01-08T14:05:38Z</time>
      </trkpt>
      <trkpt lat="46.10867" lon="4.5903">
        <ele>335</ele>
        <time>2018-01-08T14:05:38Z</time>
      </trkpt>
      <trkpt lat="46.10864" lon="4.59024">
        <ele>336</ele>
        <time>2018-01-08T14:05:38Z</time>
      </trkpt>
      <trkpt lat="46.1086" lon="4.59016">
        <ele>337</ele>
        <time>2018-01-08T14:05:38Z</time>
      </trkpt>
      <trkpt lat="46.10859" lon="4.59012">
        <ele>337</ele>
        <time>2018-01-08T14:05:58Z</time>
      </trkpt>
      <trkpt lat="46.10857" lon="4.59008">
        <ele>337</ele>
        <time>2018-01-08T14:05:58Z</time>
      </trkpt>
      <trkpt lat="46.10856" lon="4.59005">
        <ele>337</ele>
        <time>2018-01-08T14:05:58Z</time>
      </trkpt>
      <trkpt lat="46.10856" lon="4.59001">
        <ele>337</ele>
        <time>2018-01-08T14:05:58Z</time>
      </trkpt>
      <trkpt lat="46.10856" lon="4.58994">
        <ele>337</ele>
        <time>2018-01-08T14:05:58Z</time>
      </trkpt>
      <trkpt lat="46.10855" lon="4.58989">
        <ele>337</ele>
        <time>2018-01-08T14:06:38Z</time>
      </trkpt>
      <trkpt lat="46.10851" lon="4.58985">
        <ele>338</ele>
        <time>2018-01-08T14:06:38Z</time>
      </trkpt>
      <trkpt lat="46.10849" lon="4.58982">
        <ele>338</ele>
        <time>2018-01-08T14:06:38Z</time>
      </trkpt>
      <trkpt lat="46.10849" lon="4.58982">
        <ele>338</ele>
        <time>2018-01-08T14:06:38Z</time>
      </trkpt>
      <trkpt lat="46.10844" lon="4.58985">
        <ele>340</ele>
        <time>2018-01-08T14:06:38Z</time>
      </trkpt>
      <trkpt lat="46.10845" lon="4.58981">
        <ele>339</ele>
        <time>2018-01-08T14:06:58Z</time>
      </trkpt>
      <trkpt lat="46.10842" lon="4.58975">
        <ele>339</ele>
        <time>2018-01-08T14:06:58Z</time>
      </trkpt>
      <trkpt lat="46.1084" lon="4.5897">
        <ele>340</ele>
        <time>2018-01-08T14:06:58Z</time>
      </trkpt>
      <trkpt lat="46.10839" lon="4.58965">
        <ele>339</ele>
        <time>2018-01-08T14:06:58Z</time>
      </trkpt>
      <trkpt lat="46.10838" lon="4.58959">
        <ele>339</ele>
        <time>2018-01-08T14:07:14Z</time>
      </trkpt>
      <trkpt lat="46.10835" lon="4.58954">
        <ele>339</ele>
        <time>2018-01-08T14:07:14Z</time>
      </trkpt>
      <trkpt lat="46.10832" lon="4.5895">
        <ele>340</ele>
        <time>2018-01-08T14:07:14Z</time>
      </trkpt>
      <trkpt lat="46.10828" lon="4.58944">
        <ele>341</ele>
        <time>2018-01-08T14:07:14Z</time>
      </trkpt>
      <trkpt lat="46.10824" lon="4.5894">
        <ele>342</ele>
        <time>2018-01-08T14:07:30Z</time>
      </trkpt>
      <trkpt lat="46.10822" lon="4.58934">
        <ele>342</ele>
        <time>2018-01-08T14:07:30Z</time>
      </trkpt>
      <trkpt lat="46.10818" lon="4.5893">
        <ele>343</ele>
        <time>2018-01-08T14:07:30Z</time>
      </trkpt>
      <trkpt lat="46.10814" lon="4.58927">
        <ele>345</ele>
        <time>2018-01-08T14:07:30Z</time>
      </trkpt>
      <trkpt lat="46.10813" lon="4.58921">
        <ele>345</ele>
        <time>2018-01-08T14:07:46Z</time>
      </trkpt>
      <trkpt lat="46.10811" lon="4.58916">
        <ele>345</ele>
        <time>2018-01-08T14:07:46Z</time>
      </trkpt>
      <trkpt lat="46.10805" lon="4.58913">
        <ele>347</ele>
        <time>2018-01-08T14:07:46Z</time>
      </trkpt>
      <trkpt lat="46.10803" lon="4.58915">
        <ele>348</ele>
        <time>2018-01-08T14:07:46Z</time>
      </trkpt>
      <trkpt lat="46.10804" lon="4.5892">
        <ele>348</ele>
        <time>2018-01-08T14:08:02Z</time>
      </trkpt>
      <trkpt lat="46.10805" lon="4.58926">
        <ele>348</ele>
        <time>2018-01-08T14:08:02Z</time>
      </trkpt>
      <trkpt lat="46.10807" lon="4.58931">
        <ele>348</ele>
        <time>2018-01-08T14:08:02Z</time>
      </trkpt>
      <trkpt lat="46.10809" lon="4.58936">
        <ele>347</ele>
        <time>2018-01-08T14:08:02Z</time>
      </trkpt>
      <trkpt lat="46.10814" lon="4.58942">
        <ele>346</ele>
        <time>2018-01-08T14:08:18Z</time>
      </trkpt>
      <trkpt lat="46.10816" lon="4.58948">
        <ele>346</ele>
        <time>2018-01-08T14:08:18Z</time>
      </trkpt>
      <trkpt lat="46.10818" lon="4.58953">
        <ele>345</ele>
        <time>2018-01-08T14:08:18Z</time>
      </trkpt>
      <trkpt lat="46.10821" lon="4.5896">
        <ele>345</ele>
        <time>2018-01-08T14:08:18Z</time>
      </trkpt>
      <trkpt lat="46.10824" lon="4.58967">
        <ele>345</ele>
        <time>2018-01-08T14:08:34Z</time>
      </trkpt>
      <trkpt lat="46.10825" lon="4.58973">
        <ele>345</ele>
        <time>2018-01-08T14:08:34Z</time>
      </trkpt>
      <trkpt lat="46.10826" lon="4.58978">
        <ele>345</ele>
        <time>2018-01-08T14:08:34Z</time>
      </trkpt>
      <trkpt lat="46.10829" lon="4.58985">
        <ele>345</ele>
        <time>2018-01-08T14:08:34Z</time>
      </trkpt>
      <trkpt lat="46.10828" lon="4.5899">
        <ele>346</ele>
        <time>2018-01-08T14:08:50Z</time>
      </trkpt>
      <trkpt lat="46.10827" lon="4.58997">
        <ele>347</ele>
        <time>2018-01-08T14:08:50Z</time>
      </trkpt>
      <trkpt lat="46.10825" lon="4.59003">
        <ele>348</ele>
        <time>2018-01-08T14:08:50Z</time>
      </trkpt>
      <trkpt lat="46.10826" lon="4.59011">
        <ele>348</ele>
        <time>2018-01-08T14:08:50Z</time>
      </trkpt>
      <trkpt lat="46.10824" lon="4.59018">
        <ele>349</ele>
        <time>2018-01-08T14:09:06Z</time>
      </trkpt>
      <trkpt lat="46.10826" lon="4.59024">
        <ele>349</ele>
        <time>2018-01-08T14:09:06Z</time>
      </trkpt>
      <trkpt lat="46.10825" lon="4.59031">
        <ele>349</ele>
        <time>2018-01-08T14:09:06Z</time>
      </trkpt>
      <trkpt lat="46.10825" lon="4.59035">
        <ele>350</ele>
        <time>2018-01-08T14:09:06Z</time>
      </trkpt>
      <trkpt lat="46.10825" lon="4.59041">
        <ele>350</ele>
        <time>2018-01-08T14:09:22Z</time>
      </trkpt>
      <trkpt lat="46.10828" lon="4.59047">
        <ele>350</ele>
        <time>2018-01-08T14:09:22Z</time>
      </trkpt>
      <trkpt lat="46.10829" lon="4.59054">
        <ele>350</ele>
        <time>2018-01-08T14:09:22Z</time>
      </trkpt>
      <trkpt lat="46.10828" lon="4.59061">
        <ele>350</ele>
        <time>2018-01-08T14:09:22Z</time>
      </trkpt>
      <trkpt lat="46.10826" lon="4.59067">
        <ele>351</ele>
        <time>2018-01-08T14:09:38Z</time>
      </trkpt>
      <trkpt lat="46.10826" lon="4.59074">
        <ele>352</ele>
        <time>2018-01-08T14:09:38Z</time>
      </trkpt>
      <trkpt lat="46.10827" lon="4.5908">
        <ele>352</ele>
        <time>2018-01-08T14:09:38Z</time>
      </trkpt>
      <trkpt lat="46.10828" lon="4.59085">
        <ele>352</ele>
        <time>2018-01-08T14:09:38Z</time>
      </trkpt>
      <trkpt lat="46.10828" lon="4.59091">
        <ele>352</ele>
        <time>2018-01-08T14:09:54Z</time>
      </trkpt>
      <trkpt lat="46.10828" lon="4.59097">
        <ele>352</ele>
        <time>2018-01-08T14:09:54Z</time>
      </trkpt>
      <trkpt lat="46.10828" lon="4.59103">
        <ele>352</ele>
        <time>2018-01-08T14:09:54Z</time>
      </trkpt>
      <trkpt lat="46.10827" lon="4.59108">
        <ele>352</ele>
        <time>2018-01-08T14:09:54Z</time>
      </trkpt>
      <trkpt lat="46.10827" lon="4.59113">
        <ele>352</ele>
        <time>2018-01-08T14:10:10Z</time>
      </trkpt>
      <trkpt lat="46.10826" lon="4.59119">
        <ele>353</ele>
        <time>2018-01-08T14:10:10Z</time>
      </trkpt>
      <trkpt lat="46.10826" lon="4.59124">
        <ele>353</ele>
        <time>2018-01-08T14:10:10Z</time>
      </trkpt>
      <trkpt lat="46.10826" lon="4.59129">
        <ele>353</ele>
        <time>2018-01-08T14:10:10Z</time>
      </trkpt>
      <trkpt lat="46.10825" lon="4.59133">
        <ele>353</ele>
        <time>2018-01-08T14:10:26Z</time>
      </trkpt>
      <trkpt lat="46.10824" lon="4.59138">
        <ele>354</ele>
        <time>2018-01-08T14:10:26Z</time>
      </trkpt>
      <trkpt lat="46.10823" lon="4.59144">
        <ele>354</ele>
        <time>2018-01-08T14:10:26Z</time>
      </trkpt>
      <trkpt lat="46.10824" lon="4.59149">
        <ele>354</ele>
        <time>2018-01-08T14:10:26Z</time>
      </trkpt>
      <trkpt lat="46.10823" lon="4.59154">
        <ele>354</ele>
        <time>2018-01-08T14:10:46Z</time>
      </trkpt>
      <trkpt lat="46.10823" lon="4.59158">
        <ele>354</ele>
        <time>2018-01-08T14:10:46Z</time>
      </trkpt>
      <trkpt lat="46.10823" lon="4.59163">
        <ele>354</ele>
        <time>2018-01-08T14:10:46Z</time>
      </trkpt>
      <trkpt lat="46.10823" lon="4.59165">
        <ele>354</ele>
        <time>2018-01-08T14:10:46Z</time>
      </trkpt>
      <trkpt lat="46.10821" lon="4.59171">
        <ele>355</ele>
        <time>2018-01-08T14:10:46Z</time>
      </trkpt>
      <trkpt lat="46.10819" lon="4.59177">
        <ele>355</ele>
        <time>2018-01-08T14:11:02Z</time>
      </trkpt>
      <trkpt lat="46.10818" lon="4.59181">
        <ele>355</ele>
        <time>2018-01-08T14:11:02Z</time>
      </trkpt>
      <trkpt lat="46.10815" lon="4.59185">
        <ele>356</ele>
        <time>2018-01-08T14:11:02Z</time>
      </trkpt>
      <trkpt lat="46.10813" lon="4.5919">
        <ele>357</ele>
        <time>2018-01-08T14:11:02Z</time>
      </trkpt>
      <trkpt lat="46.10812" lon="4.59195">
        <ele>357</ele>
        <time>2018-01-08T14:11:18Z</time>
      </trkpt>
      <trkpt lat="46.1081" lon="4.592">
        <ele>357</ele>
        <time>2018-01-08T14:11:18Z</time>
      </trkpt>
      <trkpt lat="46.10807" lon="4.59204">
        <ele>358</ele>
        <time>2018-01-08T14:11:18Z</time>
      </trkpt>
      <trkpt lat="46.10805" lon="4.59208">
        <ele>358</ele>
        <time>2018-01-08T14:11:18Z</time>
      </trkpt>
      <trkpt lat="46.10803" lon="4.59211">
        <ele>359</ele>
        <time>2018-01-08T14:11:34Z</time>
      </trkpt>
      <trkpt lat="46.10799" lon="4.59215">
        <ele>360</ele>
        <time>2018-01-08T14:11:34Z</time>
      </trkpt>
      <trkpt lat="46.10796" lon="4.59219">
        <ele>360</ele>
        <time>2018-01-08T14:11:34Z</time>
      </trkpt>
      <trkpt lat="46.10795" lon="4.59221">
        <ele>361</ele>
        <time>2018-01-08T14:11:34Z</time>
      </trkpt>
      <trkpt lat="46.10791" lon="4.59221">
        <ele>362</ele>
        <time>2018-01-08T14:11:58Z</time>
      </trkpt>
      <trkpt lat="46.10788" lon="4.59218">
        <ele>363</ele>
        <time>2018-01-08T14:11:58Z</time>
      </trkpt>
      <trkpt lat="46.10786" lon="4.59216">
        <ele>364</ele>
        <time>2018-01-08T14:11:58Z</time>
      </trkpt>
      <trkpt lat="46.10784" lon="4.59216">
        <ele>364</ele>
        <time>2018-01-08T14:11:58Z</time>
      </trkpt>
      <trkpt lat="46.10781" lon="4.59216">
        <ele>365</ele>
        <time>2018-01-08T14:11:58Z</time>
      </trkpt>
      <trkpt lat="46.10778" lon="4.59216">
        <ele>366</ele>
        <time>2018-01-08T14:12:14Z</time>
      </trkpt>
      <trkpt lat="46.10774" lon="4.59216">
        <ele>367</ele>
        <time>2018-01-08T14:12:14Z</time>
      </trkpt>
      <trkpt lat="46.10771" lon="4.59215">
        <ele>368</ele>
        <time>2018-01-08T14:12:14Z</time>
      </trkpt>
      <trkpt lat="46.10768" lon="4.59215">
        <ele>369</ele>
        <time>2018-01-08T14:12:14Z</time>
      </trkpt>
      <trkpt lat="46.10764" lon="4.59216">
        <ele>370</ele>
        <time>2018-01-08T14:12:30Z</time>
      </trkpt>
      <trkpt lat="46.1076" lon="4.59218">
        <ele>371</ele>
        <time>2018-01-08T14:12:30Z</time>
      </trkpt>
      <trkpt lat="46.10756" lon="4.59219">
        <ele>373</ele>
        <time>2018-01-08T14:12:30Z</time>
      </trkpt>
      <trkpt lat="46.10753" lon="4.59219">
        <ele>374</ele>
        <time>2018-01-08T14:12:30Z</time>
      </trkpt>
      <trkpt lat="46.10749" lon="4.59218">
        <ele>375</ele>
        <time>2018-01-08T14:12:50Z</time>
      </trkpt>
      <trkpt lat="46.10749" lon="4.59218">
        <ele>375</ele>
        <time>2018-01-08T14:12:50Z</time>
      </trkpt>
      <trkpt lat="46.10745" lon="4.59218">
        <ele>376</ele>
        <time>2018-01-08T14:12:50Z</time>
      </trkpt>
      <trkpt lat="46.10741" lon="4.59217">
        <ele>377</ele>
        <time>2018-01-08T14:12:50Z</time>
      </trkpt>
      <trkpt lat="46.10738" lon="4.59219">
        <ele>378</ele>
        <time>2018-01-08T14:12:50Z</time>
      </trkpt>
      <trkpt lat="46.10735" lon="4.59222">
        <ele>379</ele>
        <time>2018-01-08T14:13:10Z</time>
      </trkpt>
      <trkpt lat="46.10732" lon="4.59224">
        <ele>380</ele>
        <time>2018-01-08T14:13:10Z</time>
      </trkpt>
      <trkpt lat="46.10731" lon="4.59221">
        <ele>380</ele>
        <time>2018-01-08T14:13:10Z</time>
      </trkpt>
      <trkpt lat="46.10727" lon="4.59222">
        <ele>381</ele>
        <time>2018-01-08T14:13:10Z</time>
      </trkpt>
      <trkpt lat="46.10721" lon="4.59224">
        <ele>383</ele>
        <time>2018-01-08T14:13:10Z</time>
      </trkpt>
      <trkpt lat="46.1072" lon="4.59225">
        <ele>383</ele>
        <time>2018-01-08T14:13:30Z</time>
      </trkpt>
      <trkpt lat="46.1072" lon="4.59227">
        <ele>383</ele>
        <time>2018-01-08T14:13:30Z</time>
      </trkpt>
      <trkpt lat="46.10716" lon="4.59228">
        <ele>385</ele>
        <time>2018-01-08T14:13:30Z</time>
      </trkpt>
      <trkpt lat="46.10713" lon="4.5923">
        <ele>385</ele>
        <time>2018-01-08T14:13:30Z</time>
      </trkpt>
      <trkpt lat="46.10708" lon="4.59233">
        <ele>386</ele>
        <time>2018-01-08T14:13:30Z</time>
      </trkpt>
      <trkpt lat="46.10704" lon="4.59233">
        <ele>387</ele>
        <time>2018-01-08T14:13:54Z</time>
      </trkpt>
      <trkpt lat="46.10702" lon="4.59235">
        <ele>388</ele>
        <time>2018-01-08T14:13:54Z</time>
      </trkpt>
      <trkpt lat="46.10697" lon="4.59232">
        <ele>390</ele>
        <time>2018-01-08T14:13:54Z</time>
      </trkpt>
      <trkpt lat="46.10697" lon="4.59232">
        <ele>390</ele>
        <time>2018-01-08T14:13:54Z</time>
      </trkpt>
      <trkpt lat="46.10693" lon="4.59234">
        <ele>391</ele>
        <time>2018-01-08T14:13:54Z</time>
      </trkpt>
      <trkpt lat="46.1069" lon="4.59234">
        <ele>392</ele>
        <time>2018-01-08T14:14:14Z</time>
      </trkpt>
      <trkpt lat="46.10686" lon="4.59235">
        <ele>393</ele>
        <time>2018-01-08T14:14:14Z</time>
      </trkpt>
      <trkpt lat="46.1068" lon="4.59241">
        <ele>394</ele>
        <time>2018-01-08T14:14:14Z</time>
      </trkpt>
      <trkpt lat="46.10676" lon="4.59244">
        <ele>395</ele>
        <time>2018-01-08T14:14:14Z</time>
      </trkpt>
      <trkpt lat="46.10673" lon="4.59242">
        <ele>396</ele>
        <time>2018-01-08T14:14:30Z</time>
      </trkpt>
      <trkpt lat="46.1067" lon="4.5924">
        <ele>397</ele>
        <time>2018-01-08T14:14:30Z</time>
      </trkpt>
      <trkpt lat="46.10666" lon="4.59242">
        <ele>398</ele>
        <time>2018-01-08T14:14:30Z</time>
      </trkpt>
      <trkpt lat="46.10664" lon="4.59244">
        <ele>398</ele>
        <time>2018-01-08T14:14:30Z</time>
      </trkpt>
      <trkpt lat="46.10661" lon="4.59244">
        <ele>399</ele>
        <time>2018-01-08T14:14:54Z</time>
      </trkpt>
      <trkpt lat="46.10659" lon="4.59245">
        <ele>400</ele>
        <time>2018-01-08T14:14:54Z</time>
      </trkpt>
      <trkpt lat="46.10659" lon="4.59244">
        <ele>400</ele>
        <time>2018-01-08T14:14:54Z</time>
      </trkpt>
      <trkpt lat="46.10655" lon="4.59249">
        <ele>400</ele>
        <time>2018-01-08T14:14:54Z</time>
      </trkpt>
      <trkpt lat="46.10653" lon="4.5925">
        <ele>401</ele>
        <time>2018-01-08T14:14:54Z</time>
      </trkpt>
      <trkpt lat="46.1065" lon="4.59252">
        <ele>402</ele>
        <time>2018-01-08T14:15:46Z</time>
      </trkpt>
      <trkpt lat="46.10645" lon="4.59254">
        <ele>403</ele>
        <time>2018-01-08T14:15:46Z</time>
      </trkpt>
      <trkpt lat="46.10644" lon="4.59254">
        <ele>403</ele>
        <time>2018-01-08T14:15:46Z</time>
      </trkpt>
      <trkpt lat="46.10642" lon="4.59255">
        <ele>404</ele>
        <time>2018-01-08T14:15:46Z</time>
      </trkpt>
      <trkpt lat="46.10639" lon="4.59257">
        <ele>405</ele>
        <time>2018-01-08T14:15:46Z</time>
      </trkpt>
      <trkpt lat="46.10639" lon="4.5926">
        <ele>405</ele>
        <time>2018-01-08T14:16:14Z</time>
      </trkpt>
      <trkpt lat="46.1064" lon="4.59262">
        <ele>405</ele>
        <time>2018-01-08T14:16:14Z</time>
      </trkpt>
      <trkpt lat="46.10641" lon="4.59264">
        <ele>405</ele>
        <time>2018-01-08T14:16:14Z</time>
      </trkpt>
      <trkpt lat="46.10642" lon="4.59269">
        <ele>405</ele>
        <time>2018-01-08T14:16:14Z</time>
      </trkpt>
      <trkpt lat="46.10641" lon="4.59272">
        <ele>405</ele>
        <time>2018-01-08T14:16:14Z</time>
      </trkpt>
      <trkpt lat="46.10642" lon="4.59276">
        <ele>405</ele>
        <time>2018-01-08T14:16:30Z</time>
      </trkpt>
      <trkpt lat="46.10645" lon="4.5928">
        <ele>404</ele>
        <time>2018-01-08T14:16:30Z</time>
      </trkpt>
      <trkpt lat="46.10644" lon="4.59281">
        <ele>404</ele>
        <time>2018-01-08T14:16:30Z</time>
      </trkpt>
      <trkpt lat="46.10647" lon="4.5929">
        <ele>404</ele>
        <time>2018-01-08T14:16:30Z</time>
      </trkpt>
      <trkpt lat="46.10649" lon="4.59296">
        <ele>403</ele>
        <time>2018-01-08T14:16:46Z</time>
      </trkpt>
      <trkpt lat="46.10651" lon="4.593">
        <ele>403</ele>
        <time>2018-01-08T14:16:46Z</time>
      </trkpt>
      <trkpt lat="46.10654" lon="4.59305">
        <ele>403</ele>
        <time>2018-01-08T14:16:46Z</time>
      </trkpt>
      <trkpt lat="46.10654" lon="4.5931">
        <ele>403</ele>
        <time>2018-01-08T14:16:46Z</time>
      </trkpt>
      <trkpt lat="46.10656" lon="4.59315">
        <ele>402</ele>
        <time>2018-01-08T14:17:02Z</time>
      </trkpt>
      <trkpt lat="46.10656" lon="4.59319">
        <ele>402</ele>
        <time>2018-01-08T14:17:02Z</time>
      </trkpt>
      <trkpt lat="46.10658" lon="4.59324">
        <ele>402</ele>
        <time>2018-01-08T14:17:02Z</time>
      </trkpt>
      <trkpt lat="46.1066" lon="4.59327">
        <ele>402</ele>
        <time>2018-01-08T14:17:02Z</time>
      </trkpt>
      <trkpt lat="46.10661" lon="4.59331">
        <ele>401</ele>
        <time>2018-01-08T14:17:22Z</time>
      </trkpt>
      <trkpt lat="46.10663" lon="4.59335">
        <ele>401</ele>
        <time>2018-01-08T14:17:22Z</time>
      </trkpt>
      <trkpt lat="46.10666" lon="4.59337">
        <ele>401</ele>
        <time>2018-01-08T14:17:22Z</time>
      </trkpt>
      <trkpt lat="46.10666" lon="4.5934">
        <ele>401</ele>
        <time>2018-01-08T14:17:22Z</time>
      </trkpt>
      <trkpt lat="46.10669" lon="4.59345">
        <ele>402</ele>
        <time>2018-01-08T14:17:22Z</time>
      </trkpt>
      <trkpt lat="46.10672" lon="4.59349">
        <ele>402</ele>
        <time>2018-01-08T14:17:42Z</time>
      </trkpt>
      <trkpt lat="46.10674" lon="4.59354">
        <ele>403</ele>
        <time>2018-01-08T14:17:42Z</time>
      </trkpt>
      <trkpt lat="46.10675" lon="4.59356">
        <ele>403</ele>
        <time>2018-01-08T14:17:42Z</time>
      </trkpt>
      <trkpt lat="46.10675" lon="4.5936">
        <ele>404</ele>
        <time>2018-01-08T14:17:42Z</time>
      </trkpt>
      <trkpt lat="46.10676" lon="4.59362">
        <ele>404</ele>
        <time>2018-01-08T14:17:42Z</time>
      </trkpt>
      <trkpt lat="46.10676" lon="4.5937">
        <ele>405</ele>
        <time>2018-01-08T14:17:58Z</time>
      </trkpt>
      <trkpt lat="46.10678" lon="4.59374">
        <ele>405</ele>
        <time>2018-01-08T14:17:58Z</time>
      </trkpt>
      <trkpt lat="46.10681" lon="4.59376">
        <ele>405</ele>
        <time>2018-01-08T14:17:58Z</time>
      </trkpt>
      <trkpt lat="46.10685" lon="4.59379">
        <ele>405</ele>
        <time>2018-01-08T14:17:58Z</time>
      </trkpt>
      <trkpt lat="46.10687" lon="4.59383">
        <ele>405</ele>
        <time>2018-01-08T14:18:14Z</time>
      </trkpt>
      <trkpt lat="46.1069" lon="4.59389">
        <ele>406</ele>
        <time>2018-01-08T14:18:14Z</time>
      </trkpt>
      <trkpt lat="46.10693" lon="4.59394">
        <ele>406</ele>
        <time>2018-01-08T14:18:14Z</time>
      </trkpt>
      <trkpt lat="46.10695" lon="4.59399">
        <ele>406</ele>
        <time>2018-01-08T14:18:14Z</time>
      </trkpt>
      <trkpt lat="46.10698" lon="4.59403">
        <ele>406</ele>
        <time>2018-01-08T14:18:30Z</time>
      </trkpt>
      <trkpt lat="46.107" lon="4.59407">
        <ele>407</ele>
        <time>2018-01-08T14:18:30Z</time>
      </trkpt>
      <trkpt lat="46.10703" lon="4.59412">
        <ele>407</ele>
        <time>2018-01-08T14:18:30Z</time>
      </trkpt>
      <trkpt lat="46.10705" lon="4.5942">
        <ele>408</ele>
        <time>2018-01-08T14:18:30Z</time>
      </trkpt>
      <trkpt lat="46.10707" lon="4.59425">
        <ele>408</ele>
        <time>2018-01-08T14:18:46Z</time>
      </trkpt>
      <trkpt lat="46.10709" lon="4.5943">
        <ele>408</ele>
        <time>2018-01-08T14:18:46Z</time>
      </trkpt>
      <trkpt lat="46.10709" lon="4.59433">
        <ele>409</ele>
        <time>2018-01-08T14:18:46Z</time>
      </trkpt>
      <trkpt lat="46.1071" lon="4.59439">
        <ele>409</ele>
        <time>2018-01-08T14:18:46Z</time>
      </trkpt>
      <trkpt lat="46.10712" lon="4.59445">
        <ele>410</ele>
        <time>2018-01-08T14:19:02Z</time>
      </trkpt>
      <trkpt lat="46.10713" lon="4.59449">
        <ele>410</ele>
        <time>2018-01-08T14:19:02Z</time>
      </trkpt>
      <trkpt lat="46.10716" lon="4.59454">
        <ele>410</ele>
        <time>2018-01-08T14:19:02Z</time>
      </trkpt>
      <trkpt lat="46.10718" lon="4.59458">
        <ele>410</ele>
        <time>2018-01-08T14:19:02Z</time>
      </trkpt>
      <trkpt lat="46.1072" lon="4.59463">
        <ele>410</ele>
        <time>2018-01-08T14:19:22Z</time>
      </trkpt>
      <trkpt lat="46.10723" lon="4.59466">
        <ele>410</ele>
        <time>2018-01-08T14:19:22Z</time>
      </trkpt>
      <trkpt lat="46.10724" lon="4.5947">
        <ele>410</ele>
        <time>2018-01-08T14:19:22Z</time>
      </trkpt>
      <trkpt lat="46.10724" lon="4.59475">
        <ele>410</ele>
        <time>2018-01-08T14:19:22Z</time>
      </trkpt>
      <trkpt lat="46.10724" lon="4.59478">
        <ele>411</ele>
        <time>2018-01-08T14:19:22Z</time>
      </trkpt>
      <trkpt lat="46.10726" lon="4.59484">
        <ele>411</ele>
        <time>2018-01-08T14:19:38Z</time>
      </trkpt>
      <trkpt lat="46.10726" lon="4.59489">
        <ele>412</ele>
        <time>2018-01-08T14:19:38Z</time>
      </trkpt>
      <trkpt lat="46.10727" lon="4.59494">
        <ele>412</ele>
        <time>2018-01-08T14:19:38Z</time>
      </trkpt>
      <trkpt lat="46.10728" lon="4.59499">
        <ele>412</ele>
        <time>2018-01-08T14:19:38Z</time>
      </trkpt>
      <trkpt lat="46.1073" lon="4.59505">
        <ele>412</ele>
        <time>2018-01-08T14:19:54Z</time>
      </trkpt>
      <trkpt lat="46.10731" lon="4.5951">
        <ele>412</ele>
        <time>2018-01-08T14:19:54Z</time>
      </trkpt>
      <trkpt lat="46.10731" lon="4.59515">
        <ele>413</ele>
        <time>2018-01-08T14:19:54Z</time>
      </trkpt>
      <trkpt lat="46.10731" lon="4.59522">
        <ele>413</ele>
        <time>2018-01-08T14:19:54Z</time>
      </trkpt>
      <trkpt lat="46.10731" lon="4.59527">
        <ele>414</ele>
        <time>2018-01-08T14:20:10Z</time>
      </trkpt>
      <trkpt lat="46.10731" lon="4.59532">
        <ele>414</ele>
        <time>2018-01-08T14:20:10Z</time>
      </trkpt>
      <trkpt lat="46.10731" lon="4.59538">
        <ele>415</ele>
        <time>2018-01-08T14:20:10Z</time>
      </trkpt>
      <trkpt lat="46.10731" lon="4.59541">
        <ele>415</ele>
        <time>2018-01-08T14:20:10Z</time>
      </trkpt>
      <trkpt lat="46.10729" lon="4.59546">
        <ele>416</ele>
        <time>2018-01-08T14:20:26Z</time>
      </trkpt>
      <trkpt lat="46.10728" lon="4.5955">
        <ele>416</ele>
        <time>2018-01-08T14:20:26Z</time>
      </trkpt>
      <trkpt lat="46.10726" lon="4.59555">
        <ele>417</ele>
        <time>2018-01-08T14:20:26Z</time>
      </trkpt>
      <trkpt lat="46.10725" lon="4.59559">
        <ele>418</ele>
        <time>2018-01-08T14:20:26Z</time>
      </trkpt>
      <trkpt lat="46.10724" lon="4.59562">
        <ele>419</ele>
        <time>2018-01-08T14:20:46Z</time>
      </trkpt>
      <trkpt lat="46.10722" lon="4.5956">
        <ele>420</ele>
        <time>2018-01-08T14:20:46Z</time>
      </trkpt>
      <trkpt lat="46.10722" lon="4.59559">
        <ele>419</ele>
        <time>2018-01-08T14:20:46Z</time>
      </trkpt>
      <trkpt lat="46.1072" lon="4.59555">
        <ele>420</ele>
        <time>2018-01-08T14:20:46Z</time>
      </trkpt>
      <trkpt lat="46.10716" lon="4.5955">
        <ele>421</ele>
        <time>2018-01-08T14:20:46Z</time>
      </trkpt>
      <trkpt lat="46.10714" lon="4.59545">
        <ele>421</ele>
        <time>2018-01-08T14:21:06Z</time>
      </trkpt>
      <trkpt lat="46.10712" lon="4.59542">
        <ele>422</ele>
        <time>2018-01-08T14:21:06Z</time>
      </trkpt>
      <trkpt lat="46.1071" lon="4.5954">
        <ele>422</ele>
        <time>2018-01-08T14:21:06Z</time>
      </trkpt>
      <trkpt lat="46.10708" lon="4.59536">
        <ele>422</ele>
        <time>2018-01-08T14:21:06Z</time>
      </trkpt>
      <trkpt lat="46.10706" lon="4.59534">
        <ele>423</ele>
        <time>2018-01-08T14:21:06Z</time>
      </trkpt>
      <trkpt lat="46.10705" lon="4.59532">
        <ele>423</ele>
        <time>2018-01-08T14:21:22Z</time>
      </trkpt>
      <trkpt lat="46.10701" lon="4.59524">
        <ele>423</ele>
        <time>2018-01-08T14:21:22Z</time>
      </trkpt>
      <trkpt lat="46.10698" lon="4.5952">
        <ele>424</ele>
        <time>2018-01-08T14:21:22Z</time>
      </trkpt>
      <trkpt lat="46.10694" lon="4.59519">
        <ele>425</ele>
        <time>2018-01-08T14:21:22Z</time>
      </trkpt>
      <trkpt lat="46.10691" lon="4.59517">
        <ele>426</ele>
        <time>2018-01-08T14:21:46Z</time>
      </trkpt>
      <trkpt lat="46.10689" lon="4.59514">
        <ele>426</ele>
        <time>2018-01-08T14:21:46Z</time>
      </trkpt>
      <trkpt lat="46.10681" lon="4.59509">
        <ele>428</ele>
        <time>2018-01-08T14:21:46Z</time>
      </trkpt>
      <trkpt lat="46.10678" lon="4.59508">
        <ele>429</ele>
        <time>2018-01-08T14:21:46Z</time>
      </trkpt>
      <trkpt lat="46.10676" lon="4.59507">
        <ele>429</ele>
        <time>2018-01-08T14:22:02Z</time>
      </trkpt>
      <trkpt lat="46.10673" lon="4.59506">
        <ele>430</ele>
        <time>2018-01-08T14:22:02Z</time>
      </trkpt>
      <trkpt lat="46.10669" lon="4.59504">
        <ele>431</ele>
        <time>2018-01-08T14:22:02Z</time>
      </trkpt>
      <trkpt lat="46.10665" lon="4.59506">
        <ele>433</ele>
        <time>2018-01-08T14:22:02Z</time>
      </trkpt>
      <trkpt lat="46.10661" lon="4.59503">
        <ele>433</ele>
        <time>2018-01-08T14:22:30Z</time>
      </trkpt>
      <trkpt lat="46.10658" lon="4.59501">
        <ele>434</ele>
        <time>2018-01-08T14:22:30Z</time>
      </trkpt>
      <trkpt lat="46.10655" lon="4.59498">
        <ele>434</ele>
        <time>2018-01-08T14:22:30Z</time>
      </trkpt>
      <trkpt lat="46.10654" lon="4.59497">
        <ele>434</ele>
        <time>2018-01-08T14:22:30Z</time>
      </trkpt>
      <trkpt lat="46.1065" lon="4.59497">
        <ele>436</ele>
        <time>2018-01-08T14:22:30Z</time>
      </trkpt>
      <trkpt lat="46.10648" lon="4.59497">
        <ele>436</ele>
        <time>2018-01-08T14:22:46Z</time>
      </trkpt>
      <trkpt lat="46.10645" lon="4.59492">
        <ele>436</ele>
        <time>2018-01-08T14:22:46Z</time>
      </trkpt>
      <trkpt lat="46.10643" lon="4.59492">
        <ele>437</ele>
        <time>2018-01-08T14:22:46Z</time>
      </trkpt>
      <trkpt lat="46.10638" lon="4.59491">
        <ele>438</ele>
        <time>2018-01-08T14:22:46Z</time>
      </trkpt>
      <trkpt lat="46.10633" lon="4.59486">
        <ele>438</ele>
        <time>2018-01-08T14:23:06Z</time>
      </trkpt>
      <trkpt lat="46.1063" lon="4.59486">
        <ele>439</ele>
        <time>2018-01-08T14:23:06Z</time>
      </trkpt>
      <trkpt lat="46.10626" lon="4.59485">
        <ele>440</ele>
        <time>2018-01-08T14:23:06Z</time>
      </trkpt>
      <trkpt lat="46.10622" lon="4.59484">
        <ele>441</ele>
        <time>2018-01-08T14:23:06Z</time>
      </trkpt>
      <trkpt lat="46.10619" lon="4.59483">
        <ele>442</ele>
        <time>2018-01-08T14:23:22Z</time>
      </trkpt>
      <trkpt lat="46.10615" lon="4.5948">
        <ele>442</ele>
        <time>2018-01-08T14:23:22Z</time>
      </trkpt>
      <trkpt lat="46.10612" lon="4.59481">
        <ele>443</ele>
        <time>2018-01-08T14:23:22Z</time>
      </trkpt>
      <trkpt lat="46.10609" lon="4.5948">
        <ele>444</ele>
        <time>2018-01-08T14:23:22Z</time>
      </trkpt>
      <trkpt lat="46.10607" lon="4.59479">
        <ele>444</ele>
        <time>2018-01-08T14:23:38Z</time>
      </trkpt>
      <trkpt lat="46.10604" lon="4.59479">
        <ele>445</ele>
        <time>2018-01-08T14:23:38Z</time>
      </trkpt>
      <trkpt lat="46.10601" lon="4.5948">
        <ele>446</ele>
        <time>2018-01-08T14:23:38Z</time>
      </trkpt>
      <trkpt lat="46.10597" lon="4.59478">
        <ele>447</ele>
        <time>2018-01-08T14:23:38Z</time>
      </trkpt>
      <trkpt lat="46.10596" lon="4.59476">
        <ele>447</ele>
        <time>2018-01-08T14:23:58Z</time>
      </trkpt>
      <trkpt lat="46.10591" lon="4.59477">
        <ele>449</ele>
        <time>2018-01-08T14:23:58Z</time>
      </trkpt>
      <trkpt lat="46.10589" lon="4.59475">
        <ele>449</ele>
        <time>2018-01-08T14:23:58Z</time>
      </trkpt>
      <trkpt lat="46.10587" lon="4.59474">
        <ele>449</ele>
        <time>2018-01-08T14:23:58Z</time>
      </trkpt>
      <trkpt lat="46.10582" lon="4.59475">
        <ele>451</ele>
        <time>2018-01-08T14:23:58Z</time>
      </trkpt>
      <trkpt lat="46.10579" lon="4.59472">
        <ele>451</ele>
        <time>2018-01-08T14:24:14Z</time>
      </trkpt>
      <trkpt lat="46.10576" lon="4.59471">
        <ele>452</ele>
        <time>2018-01-08T14:24:14Z</time>
      </trkpt>
      <trkpt lat="46.10575" lon="4.5947">
        <ele>452</ele>
        <time>2018-01-08T14:24:14Z</time>
      </trkpt>
      <trkpt lat="46.10569" lon="4.59468">
        <ele>454</ele>
        <time>2018-01-08T14:24:14Z</time>
      </trkpt>
      <trkpt lat="46.10565" lon="4.59466">
        <ele>454</ele>
        <time>2018-01-08T14:24:34Z</time>
      </trkpt>
      <trkpt lat="46.10562" lon="4.59466">
        <ele>455</ele>
        <time>2018-01-08T14:24:34Z</time>
      </trkpt>
      <trkpt lat="46.10558" lon="4.59463">
        <ele>456</ele>
        <time>2018-01-08T14:24:34Z</time>
      </trkpt>
      <trkpt lat="46.10557" lon="4.59462">
        <ele>456</ele>
        <time>2018-01-08T14:24:34Z</time>
      </trkpt>
      <trkpt lat="46.10553" lon="4.5946">
        <ele>457</ele>
        <time>2018-01-08T14:24:34Z</time>
      </trkpt>
      <trkpt lat="46.10548" lon="4.59457">
        <ele>458</ele>
        <time>2018-01-08T14:24:58Z</time>
      </trkpt>
      <trkpt lat="46.10547" lon="4.59456">
        <ele>458</ele>
        <time>2018-01-08T14:24:58Z</time>
      </trkpt>
      <trkpt lat="46.10544" lon="4.59454">
        <ele>458</ele>
        <time>2018-01-08T14:24:58Z</time>
      </trkpt>
      <trkpt lat="46.10542" lon="4.59454">
        <ele>459</ele>
        <time>2018-01-08T14:24:58Z</time>
      </trkpt>
      <trkpt lat="46.10537" lon="4.59451">
        <ele>460</ele>
        <time>2018-01-08T14:24:58Z</time>
      </trkpt>
      <trkpt lat="46.10533" lon="4.59449">
        <ele>461</ele>
        <time>2018-01-08T14:25:18Z</time>
      </trkpt>
      <trkpt lat="46.10531" lon="4.59446">
        <ele>461</ele>
        <time>2018-01-08T14:25:18Z</time>
      </trkpt>
      <trkpt lat="46.10529" lon="4.59444">
        <ele>461</ele>
        <time>2018-01-08T14:25:18Z</time>
      </trkpt>
      <trkpt lat="46.10527" lon="4.59444">
        <ele>462</ele>
        <time>2018-01-08T14:25:18Z</time>
      </trkpt>
      <trkpt lat="46.10523" lon="4.59441">
        <ele>463</ele>
        <time>2018-01-08T14:25:18Z</time>
      </trkpt>
      <trkpt lat="46.10521" lon="4.5944">
        <ele>463</ele>
        <time>2018-01-08T14:25:34Z</time>
      </trkpt>
      <trkpt lat="46.10517" lon="4.5944">
        <ele>464</ele>
        <time>2018-01-08T14:25:34Z</time>
      </trkpt>
      <trkpt lat="46.10513" lon="4.59437">
        <ele>465</ele>
        <time>2018-01-08T14:25:34Z</time>
      </trkpt>
      <trkpt lat="46.10512" lon="4.59437">
        <ele>465</ele>
        <time>2018-01-08T14:25:34Z</time>
      </trkpt>
      <trkpt lat="46.10506" lon="4.59432">
        <ele>466</ele>
        <time>2018-01-08T14:25:50Z</time>
      </trkpt>
      <trkpt lat="46.10502" lon="4.59428">
        <ele>467</ele>
        <time>2018-01-08T14:25:50Z</time>
      </trkpt>
      <trkpt lat="46.10498" lon="4.59424">
        <ele>467</ele>
        <time>2018-01-08T14:25:50Z</time>
      </trkpt>
      <trkpt lat="46.10497" lon="4.59422">
        <ele>467</ele>
        <time>2018-01-08T14:25:50Z</time>
      </trkpt>
      <trkpt lat="46.10494" lon="4.59422">
        <ele>468</ele>
        <time>2018-01-08T14:26:10Z</time>
      </trkpt>
      <trkpt lat="46.10493" lon="4.59422">
        <ele>468</ele>
        <time>2018-01-08T14:26:10Z</time>
      </trkpt>
      <trkpt lat="46.10488" lon="4.5942">
        <ele>469</ele>
        <time>2018-01-08T14:26:10Z</time>
      </trkpt>
      <trkpt lat="46.10486" lon="4.59417">
        <ele>469</ele>
        <time>2018-01-08T14:26:10Z</time>
      </trkpt>
      <trkpt lat="46.10484" lon="4.59415">
        <ele>469</ele>
        <time>2018-01-08T14:26:10Z</time>
      </trkpt>
      <trkpt lat="46.10483" lon="4.59414">
        <ele>470</ele>
        <time>2018-01-08T14:26:26Z</time>
      </trkpt>
      <trkpt lat="46.10479" lon="4.59409">
        <ele>470</ele>
        <time>2018-01-08T14:26:26Z</time>
      </trkpt>
      <trkpt lat="46.10477" lon="4.59409">
        <ele>471</ele>
        <time>2018-01-08T14:26:26Z</time>
      </trkpt>
      <trkpt lat="46.10474" lon="4.59406">
        <ele>471</ele>
        <time>2018-01-08T14:26:26Z</time>
      </trkpt>
      <trkpt lat="46.10471" lon="4.59402">
        <ele>472</ele>
        <time>2018-01-08T14:26:42Z</time>
      </trkpt>
      <trkpt lat="46.10468" lon="4.59399">
        <ele>472</ele>
        <time>2018-01-08T14:26:42Z</time>
      </trkpt>
      <trkpt lat="46.10466" lon="4.59398">
        <ele>473</ele>
        <time>2018-01-08T14:26:42Z</time>
      </trkpt>
      <trkpt lat="46.10463" lon="4.59395">
        <ele>473</ele>
        <time>2018-01-08T14:26:42Z</time>
      </trkpt>
      <trkpt lat="46.1046" lon="4.59391">
        <ele>474</ele>
        <time>2018-01-08T14:27:02Z</time>
      </trkpt>
      <trkpt lat="46.10458" lon="4.59389">
        <ele>474</ele>
        <time>2018-01-08T14:27:02Z</time>
      </trkpt>
      <trkpt lat="46.10455" lon="4.59386">
        <ele>474</ele>
        <time>2018-01-08T14:27:02Z</time>
      </trkpt>
      <trkpt lat="46.10453" lon="4.59384">
        <ele>475</ele>
        <time>2018-01-08T14:27:02Z</time>
      </trkpt>
      <trkpt lat="46.10451" lon="4.5938">
        <ele>475</ele>
        <time>2018-01-08T14:27:02Z</time>
      </trkpt>
      <trkpt lat="46.1045" lon="4.5938">
        <ele>476</ele>
        <time>2018-01-08T14:27:18Z</time>
      </trkpt>
      <trkpt lat="46.10447" lon="4.59378">
        <ele>476</ele>
        <time>2018-01-08T14:27:18Z</time>
      </trkpt>
      <trkpt lat="46.10443" lon="4.59374">
        <ele>477</ele>
        <time>2018-01-08T14:27:18Z</time>
      </trkpt>
      <trkpt lat="46.1044" lon="4.59372">
        <ele>478</ele>
        <time>2018-01-08T14:27:18Z</time>
      </trkpt>
      <trkpt lat="46.10438" lon="4.5937">
        <ele>478</ele>
        <time>2018-01-08T14:27:34Z</time>
      </trkpt>
      <trkpt lat="46.10437" lon="4.59369">
        <ele>478</ele>
        <time>2018-01-08T14:27:34Z</time>
      </trkpt>
      <trkpt lat="46.10434" lon="4.59364">
        <ele>479</ele>
        <time>2018-01-08T14:27:34Z</time>
      </trkpt>
      <trkpt lat="46.10432" lon="4.59359">
        <ele>479</ele>
        <time>2018-01-08T14:27:34Z</time>
      </trkpt>
      <trkpt lat="46.10431" lon="4.59358">
        <ele>479</ele>
        <time>2018-01-08T14:27:50Z</time>
      </trkpt>
      <trkpt lat="46.10427" lon="4.59352">
        <ele>480</ele>
        <time>2018-01-08T14:27:50Z</time>
      </trkpt>
      <trkpt lat="46.10426" lon="4.59349">
        <ele>480</ele>
        <time>2018-01-08T14:27:50Z</time>
      </trkpt>
      <trkpt lat="46.10424" lon="4.59344">
        <ele>480</ele>
        <time>2018-01-08T14:27:50Z</time>
      </trkpt>
      <trkpt lat="46.10422" lon="4.59339">
        <ele>481</ele>
        <time>2018-01-08T14:28:10Z</time>
      </trkpt>
      <trkpt lat="46.10418" lon="4.59336">
        <ele>482</ele>
        <time>2018-01-08T14:28:10Z</time>
      </trkpt>
      <trkpt lat="46.10416" lon="4.59332">
        <ele>482</ele>
        <time>2018-01-08T14:28:10Z</time>
      </trkpt>
      <trkpt lat="46.10415" lon="4.59331">
        <ele>482</ele>
        <time>2018-01-08T14:28:10Z</time>
      </trkpt>
      <trkpt lat="46.10412" lon="4.59329">
        <ele>484</ele>
        <time>2018-01-08T14:28:10Z</time>
      </trkpt>
      <trkpt lat="46.10409" lon="4.59327">
        <ele>485</ele>
        <time>2018-01-08T14:28:26Z</time>
      </trkpt>
      <trkpt lat="46.10407" lon="4.59325">
        <ele>486</ele>
        <time>2018-01-08T14:28:26Z</time>
      </trkpt>
      <trkpt lat="46.10404" lon="4.59323">
        <ele>487</ele>
        <time>2018-01-08T14:28:26Z</time>
      </trkpt>
      <trkpt lat="46.104" lon="4.59319">
        <ele>488</ele>
        <time>2018-01-08T14:28:26Z</time>
      </trkpt>
      <trkpt lat="46.10397" lon="4.59315">
        <ele>490</ele>
        <time>2018-01-08T14:28:42Z</time>
      </trkpt>
      <trkpt lat="46.10392" lon="4.59311">
        <ele>492</ele>
        <time>2018-01-08T14:28:42Z</time>
      </trkpt>
      <trkpt lat="46.10387" lon="4.59307">
        <ele>494</ele>
        <time>2018-01-08T14:28:42Z</time>
      </trkpt>
      <trkpt lat="46.10386" lon="4.59305">
        <ele>494</ele>
        <time>2018-01-08T14:28:42Z</time>
      </trkpt>
      <trkpt lat="46.10385" lon="4.59301">
        <ele>494</ele>
        <time>2018-01-08T14:29:02Z</time>
      </trkpt>
      <trkpt lat="46.10384" lon="4.59298">
        <ele>495</ele>
        <time>2018-01-08T14:29:02Z</time>
      </trkpt>
      <trkpt lat="46.1038" lon="4.59293">
        <ele>497</ele>
        <time>2018-01-08T14:29:02Z</time>
      </trkpt>
      <trkpt lat="46.10379" lon="4.59292">
        <ele>497</ele>
        <time>2018-01-08T14:29:02Z</time>
      </trkpt>
      <trkpt lat="46.10377" lon="4.59286">
        <ele>498</ele>
        <time>2018-01-08T14:29:02Z</time>
      </trkpt>
      <trkpt lat="46.10375" lon="4.59284">
        <ele>499</ele>
        <time>2018-01-08T14:29:18Z</time>
      </trkpt>
      <trkpt lat="46.10374" lon="4.59278">
        <ele>499</ele>
        <time>2018-01-08T14:29:18Z</time>
      </trkpt>
      <trkpt lat="46.10373" lon="4.59274">
        <ele>500</ele>
        <time>2018-01-08T14:29:18Z</time>
      </trkpt>
      <trkpt lat="46.10373" lon="4.59268">
        <ele>500</ele>
        <time>2018-01-08T14:29:18Z</time>
      </trkpt>
      <trkpt lat="46.1037" lon="4.59263">
        <ele>501</ele>
        <time>2018-01-08T14:29:38Z</time>
      </trkpt>
      <trkpt lat="46.10369" lon="4.59259">
        <ele>502</ele>
        <time>2018-01-08T14:29:38Z</time>
      </trkpt>
      <trkpt lat="46.10368" lon="4.59255">
        <ele>502</ele>
        <time>2018-01-08T14:29:38Z</time>
      </trkpt>
      <trkpt lat="46.10367" lon="4.59254">
        <ele>503</ele>
        <time>2018-01-08T14:29:38Z</time>
      </trkpt>
      <trkpt lat="46.10365" lon="4.5925">
        <ele>503</ele>
        <time>2018-01-08T14:29:38Z</time>
      </trkpt>
      <trkpt lat="46.10366" lon="4.59242">
        <ele>504</ele>
        <time>2018-01-08T14:29:54Z</time>
      </trkpt>
      <trkpt lat="46.10366" lon="4.59235">
        <ele>505</ele>
        <time>2018-01-08T14:29:54Z</time>
      </trkpt>
      <trkpt lat="46.10366" lon="4.5923">
        <ele>505</ele>
        <time>2018-01-08T14:29:54Z</time>
      </trkpt>
      <trkpt lat="46.10367" lon="4.59224">
        <ele>505</ele>
        <time>2018-01-08T14:29:54Z</time>
      </trkpt>
      <trkpt lat="46.10368" lon="4.59221">
        <ele>505</ele>
        <time>2018-01-08T14:30:10Z</time>
      </trkpt>
      <trkpt lat="46.10366" lon="4.59213">
        <ele>506</ele>
        <time>2018-01-08T14:30:10Z</time>
      </trkpt>
      <trkpt lat="46.10365" lon="4.5921">
        <ele>507</ele>
        <time>2018-01-08T14:30:10Z</time>
      </trkpt>
      <trkpt lat="46.10365" lon="4.59203">
        <ele>508</ele>
        <time>2018-01-08T14:30:10Z</time>
      </trkpt>
      <trkpt lat="46.10364" lon="4.59199">
        <ele>508</ele>
        <time>2018-01-08T14:30:30Z</time>
      </trkpt>
      <trkpt lat="46.10365" lon="4.59196">
        <ele>509</ele>
        <time>2018-01-08T14:30:30Z</time>
      </trkpt>
      <trkpt lat="46.10366" lon="4.5919">
        <ele>508</ele>
        <time>2018-01-08T14:30:30Z</time>
      </trkpt>
      <trkpt lat="46.10367" lon="4.59187">
        <ele>508</ele>
        <time>2018-01-08T14:30:30Z</time>
      </trkpt>
      <trkpt lat="46.10369" lon="4.59183">
        <ele>508</ele>
        <time>2018-01-08T14:30:30Z</time>
      </trkpt>
      <trkpt lat="46.10372" lon="4.59176">
        <ele>507</ele>
        <time>2018-01-08T14:30:46Z</time>
      </trkpt>
      <trkpt lat="46.10375" lon="4.59169">
        <ele>507</ele>
        <time>2018-01-08T14:30:46Z</time>
      </trkpt>
      <trkpt lat="46.10377" lon="4.59161">
        <ele>507</ele>
        <time>2018-01-08T14:30:46Z</time>
      </trkpt>
      <trkpt lat="46.10379" lon="4.59157">
        <ele>506</ele>
        <time>2018-01-08T14:30:46Z</time>
      </trkpt>
      <trkpt lat="46.10381" lon="4.59154">
        <ele>506</ele>
        <time>2018-01-08T14:31:02Z</time>
      </trkpt>
      <trkpt lat="46.10383" lon="4.5915">
        <ele>505</ele>
        <time>2018-01-08T14:31:02Z</time>
      </trkpt>
      <trkpt lat="46.10385" lon="4.59145">
        <ele>505</ele>
        <time>2018-01-08T14:31:02Z</time>
      </trkpt>
      <trkpt lat="46.10388" lon="4.59138">
        <ele>505</ele>
        <time>2018-01-08T14:31:02Z</time>
      </trkpt>
      <trkpt lat="46.10392" lon="4.59134">
        <ele>504</ele>
        <time>2018-01-08T14:31:18Z</time>
      </trkpt>
      <trkpt lat="46.10394" lon="4.59129">
        <ele>504</ele>
        <time>2018-01-08T14:31:18Z</time>
      </trkpt>
      <trkpt lat="46.10396" lon="4.59125">
        <ele>503</ele>
        <time>2018-01-08T14:31:18Z</time>
      </trkpt>
      <trkpt lat="46.10399" lon="4.59122">
        <ele>503</ele>
        <time>2018-01-08T14:31:18Z</time>
      </trkpt>
      <trkpt lat="46.10404" lon="4.59119">
        <ele>502</ele>
        <time>2018-01-08T14:31:34Z</time>
      </trkpt>
      <trkpt lat="46.10406" lon="4.59114">
        <ele>502</ele>
        <time>2018-01-08T14:31:34Z</time>
      </trkpt>
      <trkpt lat="46.10408" lon="4.5911">
        <ele>502</ele>
        <time>2018-01-08T14:31:34Z</time>
      </trkpt>
      <trkpt lat="46.10411" lon="4.59107">
        <ele>501</ele>
        <time>2018-01-08T14:31:34Z</time>
      </trkpt>
      <trkpt lat="46.10413" lon="4.59106">
        <ele>501</ele>
        <time>2018-01-08T14:31:50Z</time>
      </trkpt>
      <trkpt lat="46.10416" lon="4.591">
        <ele>501</ele>
        <time>2018-01-08T14:31:50Z</time>
      </trkpt>
      <trkpt lat="46.10417" lon="4.59094">
        <ele>501</ele>
        <time>2018-01-08T14:31:50Z</time>
      </trkpt>
      <trkpt lat="46.10418" lon="4.59089">
        <ele>502</ele>
        <time>2018-01-08T14:31:50Z</time>
      </trkpt>
      <trkpt lat="46.10419" lon="4.59086">
        <ele>502</ele>
        <time>2018-01-08T14:32:06Z</time>
      </trkpt>
      <trkpt lat="46.10421" lon="4.59081">
        <ele>501</ele>
        <time>2018-01-08T14:32:06Z</time>
      </trkpt>
      <trkpt lat="46.10422" lon="4.59077">
        <ele>501</ele>
        <time>2018-01-08T14:32:06Z</time>
      </trkpt>
      <trkpt lat="46.10422" lon="4.59074">
        <ele>500</ele>
        <time>2018-01-08T14:32:06Z</time>
      </trkpt>
      <trkpt lat="46.10418" lon="4.59067">
        <ele>501</ele>
        <time>2018-01-08T14:32:30Z</time>
      </trkpt>
      <trkpt lat="46.10417" lon="4.59068">
        <ele>501</ele>
        <time>2018-01-08T14:32:30Z</time>
      </trkpt>
      <trkpt lat="46.10416" lon="4.59071">
        <ele>502</ele>
        <time>2018-01-08T14:32:30Z</time>
      </trkpt>
      <trkpt lat="46.10415" lon="4.59075">
        <ele>503</ele>
        <time>2018-01-08T14:32:30Z</time>
      </trkpt>
      <trkpt lat="46.10415" lon="4.59078">
        <ele>503</ele>
        <time>2018-01-08T14:32:30Z</time>
      </trkpt>
      <trkpt lat="46.10413" lon="4.59083">
        <ele>504</ele>
        <time>2018-01-08T14:32:46Z</time>
      </trkpt>
      <trkpt lat="46.1041" lon="4.59087">
        <ele>504</ele>
        <time>2018-01-08T14:32:46Z</time>
      </trkpt>
      <trkpt lat="46.10408" lon="4.5909">
        <ele>504</ele>
        <time>2018-01-08T14:32:46Z</time>
      </trkpt>
      <trkpt lat="46.10405" lon="4.59092">
        <ele>505</ele>
        <time>2018-01-08T14:32:46Z</time>
      </trkpt>
      <trkpt lat="46.10402" lon="4.59095">
        <ele>505</ele>
        <time>2018-01-08T14:33:02Z</time>
      </trkpt>
      <trkpt lat="46.10398" lon="4.59097">
        <ele>506</ele>
        <time>2018-01-08T14:33:02Z</time>
      </trkpt>
      <trkpt lat="46.10395" lon="4.59101">
        <ele>507</ele>
        <time>2018-01-08T14:33:02Z</time>
      </trkpt>
      <trkpt lat="46.10391" lon="4.59104">
        <ele>507</ele>
        <time>2018-01-08T14:33:02Z</time>
      </trkpt>
      <trkpt lat="46.10389" lon="4.59108">
        <ele>507</ele>
        <time>2018-01-08T14:33:18Z</time>
      </trkpt>
      <trkpt lat="46.10386" lon="4.5911">
        <ele>508</ele>
        <time>2018-01-08T14:33:18Z</time>
      </trkpt>
      <trkpt lat="46.10384" lon="4.59113">
        <ele>509</ele>
        <time>2018-01-08T14:33:18Z</time>
      </trkpt>
      <trkpt lat="46.10381" lon="4.59115">
        <ele>509</ele>
        <time>2018-01-08T14:33:18Z</time>
      </trkpt>
      <trkpt lat="46.10378" lon="4.59117">
        <ele>510</ele>
        <time>2018-01-08T14:33:34Z</time>
      </trkpt>
      <trkpt lat="46.10375" lon="4.59122">
        <ele>510</ele>
        <time>2018-01-08T14:33:34Z</time>
      </trkpt>
      <trkpt lat="46.10372" lon="4.59124">
        <ele>511</ele>
        <time>2018-01-08T14:33:34Z</time>
      </trkpt>
      <trkpt lat="46.10369" lon="4.59127">
        <ele>512</ele>
        <time>2018-01-08T14:33:34Z</time>
      </trkpt>
      <trkpt lat="46.10366" lon="4.59129">
        <ele>513</ele>
        <time>2018-01-08T14:33:50Z</time>
      </trkpt>
      <trkpt lat="46.10363" lon="4.59133">
        <ele>514</ele>
        <time>2018-01-08T14:33:50Z</time>
      </trkpt>
      <trkpt lat="46.1036" lon="4.59136">
        <ele>514</ele>
        <time>2018-01-08T14:33:50Z</time>
      </trkpt>
      <trkpt lat="46.10357" lon="4.59139">
        <ele>515</ele>
        <time>2018-01-08T14:33:50Z</time>
      </trkpt>
      <trkpt lat="46.10354" lon="4.59142">
        <ele>516</ele>
        <time>2018-01-08T14:34:10Z</time>
      </trkpt>
      <trkpt lat="46.1035" lon="4.59144">
        <ele>517</ele>
        <time>2018-01-08T14:34:10Z</time>
      </trkpt>
      <trkpt lat="46.10348" lon="4.59146">
        <ele>518</ele>
        <time>2018-01-08T14:34:10Z</time>
      </trkpt>
      <trkpt lat="46.10346" lon="4.59147">
        <ele>519</ele>
        <time>2018-01-08T14:34:10Z</time>
      </trkpt>
      <trkpt lat="46.10344" lon="4.59151">
        <ele>520</ele>
        <time>2018-01-08T14:34:10Z</time>
      </trkpt>
      <trkpt lat="46.10342" lon="4.59152">
        <ele>520</ele>
        <time>2018-01-08T14:34:26Z</time>
      </trkpt>
      <trkpt lat="46.10339" lon="4.59159">
        <ele>521</ele>
        <time>2018-01-08T14:34:26Z</time>
      </trkpt>
      <trkpt lat="46.10337" lon="4.59162">
        <ele>522</ele>
        <time>2018-01-08T14:34:26Z</time>
      </trkpt>
      <trkpt lat="46.10329" lon="4.59169">
        <ele>524</ele>
        <time>2018-01-08T14:34:26Z</time>
      </trkpt>
      <trkpt lat="46.10327" lon="4.59173">
        <ele>525</ele>
        <time>2018-01-08T14:34:46Z</time>
      </trkpt>
      <trkpt lat="46.10325" lon="4.59176">
        <ele>525</ele>
        <time>2018-01-08T14:34:46Z</time>
      </trkpt>
      <trkpt lat="46.10323" lon="4.5918">
        <ele>526</ele>
        <time>2018-01-08T14:34:46Z</time>
      </trkpt>
      <trkpt lat="46.10321" lon="4.59182">
        <ele>526</ele>
        <time>2018-01-08T14:34:46Z</time>
      </trkpt>
      <trkpt lat="46.1032" lon="4.59187">
        <ele>526</ele>
        <time>2018-01-08T14:34:46Z</time>
      </trkpt>
      <trkpt lat="46.1032" lon="4.59187">
        <ele>526</ele>
        <time>2018-01-08T14:35:02Z</time>
      </trkpt>
      <trkpt lat="46.10317" lon="4.59191">
        <ele>527</ele>
        <time>2018-01-08T14:35:02Z</time>
      </trkpt>
      <trkpt lat="46.10316" lon="4.59192">
        <ele>527</ele>
        <time>2018-01-08T14:35:02Z</time>
      </trkpt>
      <trkpt lat="46.10312" lon="4.59195">
        <ele>529</ele>
        <time>2018-01-08T14:35:02Z</time>
      </trkpt>
      <trkpt lat="46.10309" lon="4.59196">
        <ele>530</ele>
        <time>2018-01-08T14:35:26Z</time>
      </trkpt>
      <trkpt lat="46.10306" lon="4.59199">
        <ele>531</ele>
        <time>2018-01-08T14:35:26Z</time>
      </trkpt>
      <trkpt lat="46.10302" lon="4.59202">
        <ele>532</ele>
        <time>2018-01-08T14:35:26Z</time>
      </trkpt>
      <trkpt lat="46.10301" lon="4.59203">
        <ele>532</ele>
        <time>2018-01-08T14:35:26Z</time>
      </trkpt>
      <trkpt lat="46.103" lon="4.59209">
        <ele>532</ele>
        <time>2018-01-08T14:35:26Z</time>
      </trkpt>
      <trkpt lat="46.10299" lon="4.59213">
        <ele>533</ele>
        <time>2018-01-08T14:35:42Z</time>
      </trkpt>
      <trkpt lat="46.10296" lon="4.59215">
        <ele>534</ele>
        <time>2018-01-08T14:35:42Z</time>
      </trkpt>
      <trkpt lat="46.10294" lon="4.59221">
        <ele>534</ele>
        <time>2018-01-08T14:35:42Z</time>
      </trkpt>
      <trkpt lat="46.10296" lon="4.59226">
        <ele>533</ele>
        <time>2018-01-08T14:35:42Z</time>
      </trkpt>
      <trkpt lat="46.10296" lon="4.59231">
        <ele>533</ele>
        <time>2018-01-08T14:35:58Z</time>
      </trkpt>
      <trkpt lat="46.10294" lon="4.59235">
        <ele>533</ele>
        <time>2018-01-08T14:35:58Z</time>
      </trkpt>
      <trkpt lat="46.10293" lon="4.5924">
        <ele>534</ele>
        <time>2018-01-08T14:35:58Z</time>
      </trkpt>
      <trkpt lat="46.10294" lon="4.59246">
        <ele>533</ele>
        <time>2018-01-08T14:35:58Z</time>
      </trkpt>
      <trkpt lat="46.10294" lon="4.59253">
        <ele>533</ele>
        <time>2018-01-08T14:36:14Z</time>
      </trkpt>
      <trkpt lat="46.10293" lon="4.59258">
        <ele>533</ele>
        <time>2018-01-08T14:36:14Z</time>
      </trkpt>
      <trkpt lat="46.1029" lon="4.59264">
        <ele>534</ele>
        <time>2018-01-08T14:36:14Z</time>
      </trkpt>
      <trkpt lat="46.10289" lon="4.59267">
        <ele>534</ele>
        <time>2018-01-08T14:36:14Z</time>
      </trkpt>
      <trkpt lat="46.10294" lon="4.59278">
        <ele>532</ele>
        <time>2018-01-08T14:36:30Z</time>
      </trkpt>
      <trkpt lat="46.10294" lon="4.59287">
        <ele>531</ele>
        <time>2018-01-08T14:36:30Z</time>
      </trkpt>
      <trkpt lat="46.10292" lon="4.59296">
        <ele>532</ele>
        <time>2018-01-08T14:36:30Z</time>
      </trkpt>
      <trkpt lat="46.1029" lon="4.59304">
        <ele>532</ele>
        <time>2018-01-08T14:36:30Z</time>
      </trkpt>
      <trkpt lat="46.1029" lon="4.59317">
        <ele>531</ele>
        <time>2018-01-08T14:36:46Z</time>
      </trkpt>
      <trkpt lat="46.1029" lon="4.59326">
        <ele>531</ele>
        <time>2018-01-08T14:36:46Z</time>
      </trkpt>
      <trkpt lat="46.1029" lon="4.59332">
        <ele>531</ele>
        <time>2018-01-08T14:36:46Z</time>
      </trkpt>
      <trkpt lat="46.10291" lon="4.59341">
        <ele>531</ele>
        <time>2018-01-08T14:36:46Z</time>
      </trkpt>
      <trkpt lat="46.1029" lon="4.59349">
        <ele>531</ele>
        <time>2018-01-08T14:37:02Z</time>
      </trkpt>
      <trkpt lat="46.10289" lon="4.59356">
        <ele>532</ele>
        <time>2018-01-08T14:37:02Z</time>
      </trkpt>
      <trkpt lat="46.10289" lon="4.59363">
        <ele>532</ele>
        <time>2018-01-08T14:37:02Z</time>
      </trkpt>
      <trkpt lat="46.1029" lon="4.5937">
        <ele>532</ele>
        <time>2018-01-08T14:37:02Z</time>
      </trkpt>
      <trkpt lat="46.1029" lon="4.59375">
        <ele>532</ele>
        <time>2018-01-08T14:37:18Z</time>
      </trkpt>
      <trkpt lat="46.10292" lon="4.59383">
        <ele>532</ele>
        <time>2018-01-08T14:37:18Z</time>
      </trkpt>
      <trkpt lat="46.10294" lon="4.5939">
        <ele>531</ele>
        <time>2018-01-08T14:37:18Z</time>
      </trkpt>
      <trkpt lat="46.10296" lon="4.59395">
        <ele>531</ele>
        <time>2018-01-08T14:37:18Z</time>
      </trkpt>
      <trkpt lat="46.10298" lon="4.594">
        <ele>530</ele>
        <time>2018-01-08T14:37:34Z</time>
      </trkpt>
      <trkpt lat="46.10299" lon="4.59406">
        <ele>530</ele>
        <time>2018-01-08T14:37:34Z</time>
      </trkpt>
      <trkpt lat="46.103" lon="4.59413">
        <ele>530</ele>
        <time>2018-01-08T14:37:34Z</time>
      </trkpt>
      <trkpt lat="46.103" lon="4.5942">
        <ele>531</ele>
        <time>2018-01-08T14:37:34Z</time>
      </trkpt>
      <trkpt lat="46.10302" lon="4.59425">
        <ele>531</ele>
        <time>2018-01-08T14:37:50Z</time>
      </trkpt>
      <trkpt lat="46.10303" lon="4.5943">
        <ele>531</ele>
        <time>2018-01-08T14:37:50Z</time>
      </trkpt>
      <trkpt lat="46.10306" lon="4.59436">
        <ele>531</ele>
        <time>2018-01-08T14:37:50Z</time>
      </trkpt>
      <trkpt lat="46.10307" lon="4.59441">
        <ele>531</ele>
        <time>2018-01-08T14:37:50Z</time>
      </trkpt>
      <trkpt lat="46.10308" lon="4.59446">
        <ele>531</ele>
        <time>2018-01-08T14:38:06Z</time>
      </trkpt>
      <trkpt lat="46.1031" lon="4.59454">
        <ele>532</ele>
        <time>2018-01-08T14:38:06Z</time>
      </trkpt>
      <trkpt lat="46.10312" lon="4.59459">
        <ele>532</ele>
        <time>2018-01-08T14:38:06Z</time>
      </trkpt>
      <trkpt lat="46.10314" lon="4.59466">
        <ele>533</ele>
        <time>2018-01-08T14:38:06Z</time>
      </trkpt>
      <trkpt lat="46.10316" lon="4.59472">
        <ele>533</ele>
        <time>2018-01-08T14:38:22Z</time>
      </trkpt>
      <trkpt lat="46.10319" lon="4.59477">
        <ele>533</ele>
        <time>2018-01-08T14:38:22Z</time>
      </trkpt>
      <trkpt lat="46.10319" lon="4.59481">
        <ele>534</ele>
        <time>2018-01-08T14:38:22Z</time>
      </trkpt>
      <trkpt lat="46.1032" lon="4.59487">
        <ele>535</ele>
        <time>2018-01-08T14:38:22Z</time>
      </trkpt>
      <trkpt lat="46.10321" lon="4.59492">
        <ele>535</ele>
        <time>2018-01-08T14:38:38Z</time>
      </trkpt>
      <trkpt lat="46.10324" lon="4.59496">
        <ele>535</ele>
        <time>2018-01-08T14:38:38Z</time>
      </trkpt>
      <trkpt lat="46.10328" lon="4.59501">
        <ele>536</ele>
        <time>2018-01-08T14:38:38Z</time>
      </trkpt>
      <trkpt lat="46.1033" lon="4.59507">
        <ele>536</ele>
        <time>2018-01-08T14:38:38Z</time>
      </trkpt>
      <trkpt lat="46.10333" lon="4.59513">
        <ele>537</ele>
        <time>2018-01-08T14:38:54Z</time>
      </trkpt>
      <trkpt lat="46.10336" lon="4.59517">
        <ele>536</ele>
        <time>2018-01-08T14:38:54Z</time>
      </trkpt>
      <trkpt lat="46.10339" lon="4.59522">
        <ele>536</ele>
        <time>2018-01-08T14:38:54Z</time>
      </trkpt>
      <trkpt lat="46.10342" lon="4.59528">
        <ele>536</ele>
        <time>2018-01-08T14:38:54Z</time>
      </trkpt>
      <trkpt lat="46.10344" lon="4.59533">
        <ele>536</ele>
        <time>2018-01-08T14:39:10Z</time>
      </trkpt>
      <trkpt lat="46.10346" lon="4.59537">
        <ele>536</ele>
        <time>2018-01-08T14:39:10Z</time>
      </trkpt>
      <trkpt lat="46.10347" lon="4.59542">
        <ele>536</ele>
        <time>2018-01-08T14:39:10Z</time>
      </trkpt>
      <trkpt lat="46.10348" lon="4.59547">
        <ele>537</ele>
        <time>2018-01-08T14:39:10Z</time>
      </trkpt>
      <trkpt lat="46.10351" lon="4.59551">
        <ele>537</ele>
        <time>2018-01-08T14:39:26Z</time>
      </trkpt>
      <trkpt lat="46.10352" lon="4.59554">
        <ele>537</ele>
        <time>2018-01-08T14:39:26Z</time>
      </trkpt>
      <trkpt lat="46.10354" lon="4.59559">
        <ele>537</ele>
        <time>2018-01-08T14:39:26Z</time>
      </trkpt>
      <trkpt lat="46.10358" lon="4.59565">
        <ele>537</ele>
        <time>2018-01-08T14:39:26Z</time>
      </trkpt>
      <trkpt lat="46.10361" lon="4.59571">
        <ele>537</ele>
        <time>2018-01-08T14:39:42Z</time>
      </trkpt>
      <trkpt lat="46.10363" lon="4.59578">
        <ele>537</ele>
        <time>2018-01-08T14:39:42Z</time>
      </trkpt>
      <trkpt lat="46.10365" lon="4.59584">
        <ele>538</ele>
        <time>2018-01-08T14:39:42Z</time>
      </trkpt>
      <trkpt lat="46.10369" lon="4.59589">
        <ele>537</ele>
        <time>2018-01-08T14:39:42Z</time>
      </trkpt>
      <trkpt lat="46.10368" lon="4.59594">
        <ele>538</ele>
        <time>2018-01-08T14:39:58Z</time>
      </trkpt>
      <trkpt lat="46.10368" lon="4.59599">
        <ele>538</ele>
        <time>2018-01-08T14:39:58Z</time>
      </trkpt>
      <trkpt lat="46.10372" lon="4.59604">
        <ele>538</ele>
        <time>2018-01-08T14:39:58Z</time>
      </trkpt>
      <trkpt lat="46.10375" lon="4.59607">
        <ele>538</ele>
        <time>2018-01-08T14:39:58Z</time>
      </trkpt>
      <trkpt lat="46.10376" lon="4.59613">
        <ele>538</ele>
        <time>2018-01-08T14:40:14Z</time>
      </trkpt>
      <trkpt lat="46.10376" lon="4.59619">
        <ele>538</ele>
        <time>2018-01-08T14:40:14Z</time>
      </trkpt>
      <trkpt lat="46.10378" lon="4.59625">
        <ele>538</ele>
        <time>2018-01-08T14:40:14Z</time>
      </trkpt>
      <trkpt lat="46.10379" lon="4.59631">
        <ele>539</ele>
        <time>2018-01-08T14:40:14Z</time>
      </trkpt>
      <trkpt lat="46.1038" lon="4.59636">
        <ele>539</ele>
        <time>2018-01-08T14:40:30Z</time>
      </trkpt>
      <trkpt lat="46.1038" lon="4.5964">
        <ele>540</ele>
        <time>2018-01-08T14:40:30Z</time>
      </trkpt>
      <trkpt lat="46.1038" lon="4.59642">
        <ele>540</ele>
        <time>2018-01-08T14:40:30Z</time>
      </trkpt>
      <trkpt lat="46.10379" lon="4.59649">
        <ele>540</ele>
        <time>2018-01-08T14:40:30Z</time>
      </trkpt>
      <trkpt lat="46.10376" lon="4.59654">
        <ele>541</ele>
        <time>2018-01-08T14:40:46Z</time>
      </trkpt>
      <trkpt lat="46.10373" lon="4.59657">
        <ele>542</ele>
        <time>2018-01-08T14:40:46Z</time>
      </trkpt>
      <trkpt lat="46.10372" lon="4.59661">
        <ele>542</ele>
        <time>2018-01-08T14:40:46Z</time>
      </trkpt>
      <trkpt lat="46.10368" lon="4.59664">
        <ele>543</ele>
        <time>2018-01-08T14:40:46Z</time>
      </trkpt>
      <trkpt lat="46.10365" lon="4.59666">
        <ele>543</ele>
        <time>2018-01-08T14:41:06Z</time>
      </trkpt>
      <trkpt lat="46.10363" lon="4.59669">
        <ele>544</ele>
        <time>2018-01-08T14:41:06Z</time>
      </trkpt>
      <trkpt lat="46.10363" lon="4.59671">
        <ele>543</ele>
        <time>2018-01-08T14:41:06Z</time>
      </trkpt>
      <trkpt lat="46.10361" lon="4.59672">
        <ele>544</ele>
        <time>2018-01-08T14:41:06Z</time>
      </trkpt>
      <trkpt lat="46.10358" lon="4.59673">
        <ele>544</ele>
        <time>2018-01-08T14:41:06Z</time>
      </trkpt>
      <trkpt lat="46.10357" lon="4.59675">
        <ele>544</ele>
        <time>2018-01-08T14:42:46Z</time>
      </trkpt>
      <trkpt lat="46.10356" lon="4.59674">
        <ele>544</ele>
        <time>2018-01-08T14:42:46Z</time>
      </trkpt>
      <trkpt lat="46.10355" lon="4.59674">
        <ele>544</ele>
        <time>2018-01-08T14:42:46Z</time>
      </trkpt>
      <trkpt lat="46.1035" lon="4.59672">
        <ele>545</ele>
        <time>2018-01-08T14:42:46Z</time>
      </trkpt>
      <trkpt lat="46.10346" lon="4.59671">
        <ele>545</ele>
        <time>2018-01-08T14:42:46Z</time>
      </trkpt>
      <trkpt lat="46.10342" lon="4.59668">
        <ele>546</ele>
        <time>2018-01-08T14:43:02Z</time>
      </trkpt>
      <trkpt lat="46.10338" lon="4.59666">
        <ele>546</ele>
        <time>2018-01-08T14:43:02Z</time>
      </trkpt>
      <trkpt lat="46.10333" lon="4.59664">
        <ele>547</ele>
        <time>2018-01-08T14:43:02Z</time>
      </trkpt>
      <trkpt lat="46.10328" lon="4.59658">
        <ele>546</ele>
        <time>2018-01-08T14:43:02Z</time>
      </trkpt>
      <trkpt lat="46.10323" lon="4.59655">
        <ele>545</ele>
        <time>2018-01-08T14:43:18Z</time>
      </trkpt>
      <trkpt lat="46.1032" lon="4.59653">
        <ele>545</ele>
        <time>2018-01-08T14:43:18Z</time>
      </trkpt>
      <trkpt lat="46.10315" lon="4.59651">
        <ele>544</ele>
        <time>2018-01-08T14:43:18Z</time>
      </trkpt>
      <trkpt lat="46.10313" lon="4.59646">
        <ele>544</ele>
        <time>2018-01-08T14:43:18Z</time>
      </trkpt>
      <trkpt lat="46.10309" lon="4.59642">
        <ele>543</ele>
        <time>2018-01-08T14:43:34Z</time>
      </trkpt>
      <trkpt lat="46.10305" lon="4.5964">
        <ele>543</ele>
        <time>2018-01-08T14:43:34Z</time>
      </trkpt>
      <trkpt lat="46.10301" lon="4.59638">
        <ele>542</ele>
        <time>2018-01-08T14:43:34Z</time>
      </trkpt>
      <trkpt lat="46.10298" lon="4.59635">
        <ele>542</ele>
        <time>2018-01-08T14:43:34Z</time>
      </trkpt>
      <trkpt lat="46.10294" lon="4.59632">
        <ele>542</ele>
        <time>2018-01-08T14:43:50Z</time>
      </trkpt>
      <trkpt lat="46.10291" lon="4.59628">
        <ele>542</ele>
        <time>2018-01-08T14:43:50Z</time>
      </trkpt>
      <trkpt lat="46.10288" lon="4.59624">
        <ele>542</ele>
        <time>2018-01-08T14:43:50Z</time>
      </trkpt>
      <trkpt lat="46.10285" lon="4.59621">
        <ele>542</ele>
        <time>2018-01-08T14:43:50Z</time>
      </trkpt>
      <trkpt lat="46.10285" lon="4.59619">
        <ele>542</ele>
        <time>2018-01-08T14:44:06Z</time>
      </trkpt>
      <trkpt lat="46.10286" lon="4.59614">
        <ele>542</ele>
        <time>2018-01-08T14:44:06Z</time>
      </trkpt>
      <trkpt lat="46.10286" lon="4.59608">
        <ele>542</ele>
        <time>2018-01-08T14:44:06Z</time>
      </trkpt>
      <trkpt lat="46.10283" lon="4.59602">
        <ele>543</ele>
        <time>2018-01-08T14:44:06Z</time>
      </trkpt>
      <trkpt lat="46.10283" lon="4.59598">
        <ele>543</ele>
        <time>2018-01-08T14:44:22Z</time>
      </trkpt>
      <trkpt lat="46.10282" lon="4.59594">
        <ele>543</ele>
        <time>2018-01-08T14:44:22Z</time>
      </trkpt>
      <trkpt lat="46.10281" lon="4.59589">
        <ele>543</ele>
        <time>2018-01-08T14:44:22Z</time>
      </trkpt>
      <trkpt lat="46.10278" lon="4.59584">
        <ele>544</ele>
        <time>2018-01-08T14:44:22Z</time>
      </trkpt>
      <trkpt lat="46.10275" lon="4.59577">
        <ele>543</ele>
        <time>2018-01-08T14:44:38Z</time>
      </trkpt>
      <trkpt lat="46.10273" lon="4.59568">
        <ele>543</ele>
        <time>2018-01-08T14:44:38Z</time>
      </trkpt>
      <trkpt lat="46.1027" lon="4.5956">
        <ele>543</ele>
        <time>2018-01-08T14:44:38Z</time>
      </trkpt>
      <trkpt lat="46.1027" lon="4.59559">
        <ele>543</ele>
        <time>2018-01-08T14:44:38Z</time>
      </trkpt>
      <trkpt lat="46.10266" lon="4.59551">
        <ele>543</ele>
        <time>2018-01-08T14:44:54Z</time>
      </trkpt>
      <trkpt lat="46.10265" lon="4.59546">
        <ele>543</ele>
        <time>2018-01-08T14:44:54Z</time>
      </trkpt>
      <trkpt lat="46.10264" lon="4.5954">
        <ele>543</ele>
        <time>2018-01-08T14:44:54Z</time>
      </trkpt>
      <trkpt lat="46.10261" lon="4.59534">
        <ele>543</ele>
        <time>2018-01-08T14:44:54Z</time>
      </trkpt>
      <trkpt lat="46.1026" lon="4.59527">
        <ele>543</ele>
        <time>2018-01-08T14:45:10Z</time>
      </trkpt>
      <trkpt lat="46.10258" lon="4.59522">
        <ele>543</ele>
        <time>2018-01-08T14:45:10Z</time>
      </trkpt>
      <trkpt lat="46.10257" lon="4.59517">
        <ele>543</ele>
        <time>2018-01-08T14:45:10Z</time>
      </trkpt>
      <trkpt lat="46.10254" lon="4.5951">
        <ele>544</ele>
        <time>2018-01-08T14:45:10Z</time>
      </trkpt>
      <trkpt lat="46.10253" lon="4.59503">
        <ele>544</ele>
        <time>2018-01-08T14:45:26Z</time>
      </trkpt>
      <trkpt lat="46.10251" lon="4.59498">
        <ele>544</ele>
        <time>2018-01-08T14:45:26Z</time>
      </trkpt>
      <trkpt lat="46.1025" lon="4.59495">
        <ele>544</ele>
        <time>2018-01-08T14:45:26Z</time>
      </trkpt>
      <trkpt lat="46.10248" lon="4.59492">
        <ele>544</ele>
        <time>2018-01-08T14:45:26Z</time>
      </trkpt>
      <trkpt lat="46.10245" lon="4.59487">
        <ele>543</ele>
        <time>2018-01-08T14:45:42Z</time>
      </trkpt>
      <trkpt lat="46.10243" lon="4.59482">
        <ele>543</ele>
        <time>2018-01-08T14:45:42Z</time>
      </trkpt>
      <trkpt lat="46.10241" lon="4.59474">
        <ele>543</ele>
        <time>2018-01-08T14:45:42Z</time>
      </trkpt>
      <trkpt lat="46.10239" lon="4.59469">
        <ele>543</ele>
        <time>2018-01-08T14:45:42Z</time>
      </trkpt>
      <trkpt lat="46.10237" lon="4.59462">
        <ele>543</ele>
        <time>2018-01-08T14:45:58Z</time>
      </trkpt>
      <trkpt lat="46.10234" lon="4.59455">
        <ele>543</ele>
        <time>2018-01-08T14:45:58Z</time>
      </trkpt>
      <trkpt lat="46.10233" lon="4.5945">
        <ele>543</ele>
        <time>2018-01-08T14:45:58Z</time>
      </trkpt>
      <trkpt lat="46.10231" lon="4.59447">
        <ele>543</ele>
        <time>2018-01-08T14:45:58Z</time>
      </trkpt>
      <trkpt lat="46.10227" lon="4.59442">
        <ele>543</ele>
        <time>2018-01-08T14:46:14Z</time>
      </trkpt>
      <trkpt lat="46.10223" lon="4.59438">
        <ele>543</ele>
        <time>2018-01-08T14:46:14Z</time>
      </trkpt>
      <trkpt lat="46.1022" lon="4.59434">
        <ele>543</ele>
        <time>2018-01-08T14:46:14Z</time>
      </trkpt>
      <trkpt lat="46.10218" lon="4.5943">
        <ele>543</ele>
        <time>2018-01-08T14:46:14Z</time>
      </trkpt>
      <trkpt lat="46.10213" lon="4.59424">
        <ele>543</ele>
        <time>2018-01-08T14:46:30Z</time>
      </trkpt>
      <trkpt lat="46.1021" lon="4.59421">
        <ele>543</ele>
        <time>2018-01-08T14:46:30Z</time>
      </trkpt>
      <trkpt lat="46.10206" lon="4.59412">
        <ele>544</ele>
        <time>2018-01-08T14:46:30Z</time>
      </trkpt>
      <trkpt lat="46.10203" lon="4.59404">
        <ele>545</ele>
        <time>2018-01-08T14:46:30Z</time>
      </trkpt>
      <trkpt lat="46.102" lon="4.59399">
        <ele>545</ele>
        <time>2018-01-08T14:46:50Z</time>
      </trkpt>
      <trkpt lat="46.10201" lon="4.59397">
        <ele>545</ele>
        <time>2018-01-08T14:46:50Z</time>
      </trkpt>
      <trkpt lat="46.10199" lon="4.59393">
        <ele>546</ele>
        <time>2018-01-08T14:46:50Z</time>
      </trkpt>
      <trkpt lat="46.10197" lon="4.59389">
        <ele>546</ele>
        <time>2018-01-08T14:46:50Z</time>
      </trkpt>
      <trkpt lat="46.10196" lon="4.59385">
        <ele>547</ele>
        <time>2018-01-08T14:46:50Z</time>
      </trkpt>
      <trkpt lat="46.10194" lon="4.59381">
        <ele>547</ele>
        <time>2018-01-08T14:47:10Z</time>
      </trkpt>
      <trkpt lat="46.10196" lon="4.59376">
        <ele>548</ele>
        <time>2018-01-08T14:47:10Z</time>
      </trkpt>
      <trkpt lat="46.10196" lon="4.59374">
        <ele>548</ele>
        <time>2018-01-08T14:47:10Z</time>
      </trkpt>
      <trkpt lat="46.10195" lon="4.5937">
        <ele>549</ele>
        <time>2018-01-08T14:47:10Z</time>
      </trkpt>
      <trkpt lat="46.10195" lon="4.59368">
        <ele>549</ele>
        <time>2018-01-08T14:47:10Z</time>
      </trkpt>
      <trkpt lat="46.10195" lon="4.59361">
        <ele>550</ele>
        <time>2018-01-08T14:47:26Z</time>
      </trkpt>
      <trkpt lat="46.10195" lon="4.59355">
        <ele>551</ele>
        <time>2018-01-08T14:47:26Z</time>
      </trkpt>
      <trkpt lat="46.10195" lon="4.5935">
        <ele>551</ele>
        <time>2018-01-08T14:47:26Z</time>
      </trkpt>
      <trkpt lat="46.10192" lon="4.59346">
        <ele>552</ele>
        <time>2018-01-08T14:47:26Z</time>
      </trkpt>
      <trkpt lat="46.10191" lon="4.59338">
        <ele>553</ele>
        <time>2018-01-08T14:47:50Z</time>
      </trkpt>
      <trkpt lat="46.10191" lon="4.59336">
        <ele>553</ele>
        <time>2018-01-08T14:47:50Z</time>
      </trkpt>
      <trkpt lat="46.10191" lon="4.59335">
        <ele>554</ele>
        <time>2018-01-08T14:47:50Z</time>
      </trkpt>
      <trkpt lat="46.10189" lon="4.59331">
        <ele>554</ele>
        <time>2018-01-08T14:47:50Z</time>
      </trkpt>
      <trkpt lat="46.10187" lon="4.59329">
        <ele>555</ele>
        <time>2018-01-08T14:47:50Z</time>
      </trkpt>
      <trkpt lat="46.10186" lon="4.59327">
        <ele>555</ele>
        <time>2018-01-08T14:48:06Z</time>
      </trkpt>
      <trkpt lat="46.10182" lon="4.59322">
        <ele>556</ele>
        <time>2018-01-08T14:48:06Z</time>
      </trkpt>
      <trkpt lat="46.10181" lon="4.5932">
        <ele>557</ele>
        <time>2018-01-08T14:48:06Z</time>
      </trkpt>
      <trkpt lat="46.10178" lon="4.59316">
        <ele>557</ele>
        <time>2018-01-08T14:48:06Z</time>
      </trkpt>
      <trkpt lat="46.10178" lon="4.59315">
        <ele>558</ele>
        <time>2018-01-08T14:48:26Z</time>
      </trkpt>
      <trkpt lat="46.10175" lon="4.59314">
        <ele>558</ele>
        <time>2018-01-08T14:48:26Z</time>
      </trkpt>
      <trkpt lat="46.10175" lon="4.5931">
        <ele>559</ele>
        <time>2018-01-08T14:48:26Z</time>
      </trkpt>
      <trkpt lat="46.10173" lon="4.59304">
        <ele>559</ele>
        <time>2018-01-08T14:48:26Z</time>
      </trkpt>
      <trkpt lat="46.10172" lon="4.59301">
        <ele>560</ele>
        <time>2018-01-08T14:48:26Z</time>
      </trkpt>
      <trkpt lat="46.1017" lon="4.59299">
        <ele>561</ele>
        <time>2018-01-08T14:48:46Z</time>
      </trkpt>
      <trkpt lat="46.10169" lon="4.59299">
        <ele>561</ele>
        <time>2018-01-08T14:48:46Z</time>
      </trkpt>
      <trkpt lat="46.10168" lon="4.59291">
        <ele>562</ele>
        <time>2018-01-08T14:48:46Z</time>
      </trkpt>
      <trkpt lat="46.10165" lon="4.59288">
        <ele>562</ele>
        <time>2018-01-08T14:48:46Z</time>
      </trkpt>
      <trkpt lat="46.10163" lon="4.59286">
        <ele>562</ele>
        <time>2018-01-08T14:49:02Z</time>
      </trkpt>
      <trkpt lat="46.1016" lon="4.59282">
        <ele>563</ele>
        <time>2018-01-08T14:49:02Z</time>
      </trkpt>
      <trkpt lat="46.10158" lon="4.59278">
        <ele>563</ele>
        <time>2018-01-08T14:49:02Z</time>
      </trkpt>
      <trkpt lat="46.10155" lon="4.59275">
        <ele>564</ele>
        <time>2018-01-08T14:49:02Z</time>
      </trkpt>
      <trkpt lat="46.10153" lon="4.59272">
        <ele>564</ele>
        <time>2018-01-08T14:49:22Z</time>
      </trkpt>
      <trkpt lat="46.10152" lon="4.59272">
        <ele>564</ele>
        <time>2018-01-08T14:49:22Z</time>
      </trkpt>
      <trkpt lat="46.10149" lon="4.59269">
        <ele>564</ele>
        <time>2018-01-08T14:49:22Z</time>
      </trkpt>
      <trkpt lat="46.10146" lon="4.59267">
        <ele>564</ele>
        <time>2018-01-08T14:49:22Z</time>
      </trkpt>
      <trkpt lat="46.10144" lon="4.59266">
        <ele>564</ele>
        <time>2018-01-08T14:49:22Z</time>
      </trkpt>
      <trkpt lat="46.10139" lon="4.59264">
        <ele>564</ele>
        <time>2018-01-08T14:49:42Z</time>
      </trkpt>
      <trkpt lat="46.10136" lon="4.59265">
        <ele>564</ele>
        <time>2018-01-08T14:49:42Z</time>
      </trkpt>
      <trkpt lat="46.10135" lon="4.59265">
        <ele>564</ele>
        <time>2018-01-08T14:49:42Z</time>
      </trkpt>
      <trkpt lat="46.10131" lon="4.5926">
        <ele>565</ele>
        <time>2018-01-08T14:49:42Z</time>
      </trkpt>
      <trkpt lat="46.10129" lon="4.59255">
        <ele>565</ele>
        <time>2018-01-08T14:49:42Z</time>
      </trkpt>
      <trkpt lat="46.10127" lon="4.59251">
        <ele>566</ele>
        <time>2018-01-08T14:49:58Z</time>
      </trkpt>
      <trkpt lat="46.10123" lon="4.59245">
        <ele>566</ele>
        <time>2018-01-08T14:49:58Z</time>
      </trkpt>
      <trkpt lat="46.1012" lon="4.59241">
        <ele>565</ele>
        <time>2018-01-08T14:49:58Z</time>
      </trkpt>
      <trkpt lat="46.10119" lon="4.59238">
        <ele>565</ele>
        <time>2018-01-08T14:49:58Z</time>
      </trkpt>
      <trkpt lat="46.10117" lon="4.59233">
        <ele>565</ele>
        <time>2018-01-08T14:50:30Z</time>
      </trkpt>
      <trkpt lat="46.10116" lon="4.59231">
        <ele>565</ele>
        <time>2018-01-08T14:50:30Z</time>
      </trkpt>
      <trkpt lat="46.10114" lon="4.5923">
        <ele>565</ele>
        <time>2018-01-08T14:50:30Z</time>
      </trkpt>
      <trkpt lat="46.10111" lon="4.59232">
        <ele>565</ele>
        <time>2018-01-08T14:50:30Z</time>
      </trkpt>
      <trkpt lat="46.10106" lon="4.59232">
        <ele>565</ele>
        <time>2018-01-08T14:50:30Z</time>
      </trkpt>
      <trkpt lat="46.10104" lon="4.59231">
        <ele>565</ele>
        <time>2018-01-08T14:50:46Z</time>
      </trkpt>
      <trkpt lat="46.10101" lon="4.59232">
        <ele>564</ele>
        <time>2018-01-08T14:50:46Z</time>
      </trkpt>
      <trkpt lat="46.10096" lon="4.5923">
        <ele>564</ele>
        <time>2018-01-08T14:50:46Z</time>
      </trkpt>
      <trkpt lat="46.10092" lon="4.59229">
        <ele>564</ele>
        <time>2018-01-08T14:50:46Z</time>
      </trkpt>
      <trkpt lat="46.10089" lon="4.59229">
        <ele>564</ele>
        <time>2018-01-08T14:51:02Z</time>
      </trkpt>
      <trkpt lat="46.10086" lon="4.59231">
        <ele>564</ele>
        <time>2018-01-08T14:51:02Z</time>
      </trkpt>
      <trkpt lat="46.1008" lon="4.59232">
        <ele>564</ele>
        <time>2018-01-08T14:51:02Z</time>
      </trkpt>
      <trkpt lat="46.10074" lon="4.59235">
        <ele>564</ele>
        <time>2018-01-08T14:51:02Z</time>
      </trkpt>
      <trkpt lat="46.10069" lon="4.59234">
        <ele>564</ele>
        <time>2018-01-08T14:51:18Z</time>
      </trkpt>
      <trkpt lat="46.10064" lon="4.59234">
        <ele>564</ele>
        <time>2018-01-08T14:51:18Z</time>
      </trkpt>
      <trkpt lat="46.10061" lon="4.59232">
        <ele>564</ele>
        <time>2018-01-08T14:51:18Z</time>
      </trkpt>
      <trkpt lat="46.10057" lon="4.59231">
        <ele>564</ele>
        <time>2018-01-08T14:51:18Z</time>
      </trkpt>
      <trkpt lat="46.10053" lon="4.59228">
        <ele>564</ele>
        <time>2018-01-08T14:51:34Z</time>
      </trkpt>
      <trkpt lat="46.10049" lon="4.59226">
        <ele>563</ele>
        <time>2018-01-08T14:51:34Z</time>
      </trkpt>
      <trkpt lat="46.10047" lon="4.59223">
        <ele>563</ele>
        <time>2018-01-08T14:51:34Z</time>
      </trkpt>
      <trkpt lat="46.10045" lon="4.59221">
        <ele>563</ele>
        <time>2018-01-08T14:51:34Z</time>
      </trkpt>
      <trkpt lat="46.10042" lon="4.59218">
        <ele>563</ele>
        <time>2018-01-08T14:51:50Z</time>
      </trkpt>
      <trkpt lat="46.10034" lon="4.59219">
        <ele>563</ele>
        <time>2018-01-08T14:51:50Z</time>
      </trkpt>
      <trkpt lat="46.10033" lon="4.59218">
        <ele>563</ele>
        <time>2018-01-08T14:51:50Z</time>
      </trkpt>
      <trkpt lat="46.10029" lon="4.59217">
        <ele>563</ele>
        <time>2018-01-08T14:51:50Z</time>
      </trkpt>
      <trkpt lat="46.10022" lon="4.59213">
        <ele>563</ele>
        <time>2018-01-08T14:52:06Z</time>
      </trkpt>
      <trkpt lat="46.10019" lon="4.59214">
        <ele>563</ele>
        <time>2018-01-08T14:52:06Z</time>
      </trkpt>
      <trkpt lat="46.10013" lon="4.59215">
        <ele>563</ele>
        <time>2018-01-08T14:52:06Z</time>
      </trkpt>
      <trkpt lat="46.1001" lon="4.59213">
        <ele>563</ele>
        <time>2018-01-08T14:52:06Z</time>
      </trkpt>
      <trkpt lat="46.10004" lon="4.59212">
        <ele>563</ele>
        <time>2018-01-08T14:52:22Z</time>
      </trkpt>
      <trkpt lat="46.09998" lon="4.59212">
        <ele>563</ele>
        <time>2018-01-08T14:52:22Z</time>
      </trkpt>
      <trkpt lat="46.09994" lon="4.59209">
        <ele>563</ele>
        <time>2018-01-08T14:52:22Z</time>
      </trkpt>
      <trkpt lat="46.09991" lon="4.59209">
        <ele>563</ele>
        <time>2018-01-08T14:52:22Z</time>
      </trkpt>
      <trkpt lat="46.09988" lon="4.5921">
        <ele>563</ele>
        <time>2018-01-08T14:52:38Z</time>
      </trkpt>
      <trkpt lat="46.09981" lon="4.59215">
        <ele>564</ele>
        <time>2018-01-08T14:52:38Z</time>
      </trkpt>
      <trkpt lat="46.09976" lon="4.59219">
        <ele>565</ele>
        <time>2018-01-08T14:52:38Z</time>
      </trkpt>
      <trkpt lat="46.09972" lon="4.5922">
        <ele>565</ele>
        <time>2018-01-08T14:52:38Z</time>
      </trkpt>
      <trkpt lat="46.09967" lon="4.59224">
        <ele>565</ele>
        <time>2018-01-08T14:52:54Z</time>
      </trkpt>
      <trkpt lat="46.09961" lon="4.59224">
        <ele>566</ele>
        <time>2018-01-08T14:52:54Z</time>
      </trkpt>
      <trkpt lat="46.09959" lon="4.59225">
        <ele>566</ele>
        <time>2018-01-08T14:52:54Z</time>
      </trkpt>
      <trkpt lat="46.09953" lon="4.59224">
        <ele>566</ele>
        <time>2018-01-08T14:52:54Z</time>
      </trkpt>
      <trkpt lat="46.09949" lon="4.59222">
        <ele>566</ele>
        <time>2018-01-08T14:53:10Z</time>
      </trkpt>
      <trkpt lat="46.09945" lon="4.5922">
        <ele>567</ele>
        <time>2018-01-08T14:53:10Z</time>
      </trkpt>
      <trkpt lat="46.09939" lon="4.59219">
        <ele>567</ele>
        <time>2018-01-08T14:53:10Z</time>
      </trkpt>
      <trkpt lat="46.09937" lon="4.59218">
        <ele>567</ele>
        <time>2018-01-08T14:53:10Z</time>
      </trkpt>
      <trkpt lat="46.09933" lon="4.59217">
        <ele>567</ele>
        <time>2018-01-08T14:53:26Z</time>
      </trkpt>
      <trkpt lat="46.09928" lon="4.59217">
        <ele>568</ele>
        <time>2018-01-08T14:53:26Z</time>
      </trkpt>
      <trkpt lat="46.09925" lon="4.59217">
        <ele>568</ele>
        <time>2018-01-08T14:53:26Z</time>
      </trkpt>
      <trkpt lat="46.09922" lon="4.59217">
        <ele>568</ele>
        <time>2018-01-08T14:53:26Z</time>
      </trkpt>
      <trkpt lat="46.0992" lon="4.59218">
        <ele>568</ele>
        <time>2018-01-08T14:53:42Z</time>
      </trkpt>
      <trkpt lat="46.09916" lon="4.59218">
        <ele>569</ele>
        <time>2018-01-08T14:53:42Z</time>
      </trkpt>
      <trkpt lat="46.09912" lon="4.59218">
        <ele>569</ele>
        <time>2018-01-08T14:53:42Z</time>
      </trkpt>
      <trkpt lat="46.09908" lon="4.59217">
        <ele>569</ele>
        <time>2018-01-08T14:53:42Z</time>
      </trkpt>
      <trkpt lat="46.09905" lon="4.59216">
        <ele>569</ele>
        <time>2018-01-08T14:53:58Z</time>
      </trkpt>
      <trkpt lat="46.09901" lon="4.59215">
        <ele>570</ele>
        <time>2018-01-08T14:53:58Z</time>
      </trkpt>
      <trkpt lat="46.09896" lon="4.59212">
        <ele>570</ele>
        <time>2018-01-08T14:53:58Z</time>
      </trkpt>
      <trkpt lat="46.09893" lon="4.59213">
        <ele>570</ele>
        <time>2018-01-08T14:53:58Z</time>
      </trkpt>
      <trkpt lat="46.09888" lon="4.59212">
        <ele>570</ele>
        <time>2018-01-08T14:54:18Z</time>
      </trkpt>
      <trkpt lat="46.09887" lon="4.59213">
        <ele>570</ele>
        <time>2018-01-08T14:54:18Z</time>
      </trkpt>
      <trkpt lat="46.09882" lon="4.59212">
        <ele>571</ele>
        <time>2018-01-08T14:54:18Z</time>
      </trkpt>
      <trkpt lat="46.09879" lon="4.59212">
        <ele>571</ele>
        <time>2018-01-08T14:54:18Z</time>
      </trkpt>
      <trkpt lat="46.09876" lon="4.5921">
        <ele>571</ele>
        <time>2018-01-08T14:54:18Z</time>
      </trkpt>
      <trkpt lat="46.09873" lon="4.5921">
        <ele>571</ele>
        <time>2018-01-08T14:54:34Z</time>
      </trkpt>
      <trkpt lat="46.0987" lon="4.59211">
        <ele>571</ele>
        <time>2018-01-08T14:54:34Z</time>
      </trkpt>
      <trkpt lat="46.09867" lon="4.59211">
        <ele>572</ele>
        <time>2018-01-08T14:54:34Z</time>
      </trkpt>
      <trkpt lat="46.09863" lon="4.59211">
        <ele>572</ele>
        <time>2018-01-08T14:54:34Z</time>
      </trkpt>
      <trkpt lat="46.0986" lon="4.59209">
        <ele>572</ele>
        <time>2018-01-08T14:54:50Z</time>
      </trkpt>
      <trkpt lat="46.09858" lon="4.59209">
        <ele>572</ele>
        <time>2018-01-08T14:54:50Z</time>
      </trkpt>
      <trkpt lat="46.09853" lon="4.59205">
        <ele>573</ele>
        <time>2018-01-08T14:54:50Z</time>
      </trkpt>
      <trkpt lat="46.09851" lon="4.59203">
        <ele>573</ele>
        <time>2018-01-08T14:54:50Z</time>
      </trkpt>
      <trkpt lat="46.09847" lon="4.59199">
        <ele>574</ele>
        <time>2018-01-08T14:55:06Z</time>
      </trkpt>
      <trkpt lat="46.09843" lon="4.59194">
        <ele>574</ele>
        <time>2018-01-08T14:55:06Z</time>
      </trkpt>
      <trkpt lat="46.09839" lon="4.59191">
        <ele>575</ele>
        <time>2018-01-08T14:55:06Z</time>
      </trkpt>
      <trkpt lat="46.09836" lon="4.59187">
        <ele>575</ele>
        <time>2018-01-08T14:55:06Z</time>
      </trkpt>
      <trkpt lat="46.09832" lon="4.59182">
        <ele>576</ele>
        <time>2018-01-08T14:55:22Z</time>
      </trkpt>
      <trkpt lat="46.0983" lon="4.59177">
        <ele>576</ele>
        <time>2018-01-08T14:55:22Z</time>
      </trkpt>
      <trkpt lat="46.09828" lon="4.59174">
        <ele>576</ele>
        <time>2018-01-08T14:55:22Z</time>
      </trkpt>
      <trkpt lat="46.09825" lon="4.5917">
        <ele>576</ele>
        <time>2018-01-08T14:55:22Z</time>
      </trkpt>
      <trkpt lat="46.0982" lon="4.59166">
        <ele>575</ele>
        <time>2018-01-08T14:55:39Z</time>
      </trkpt>
      <trkpt lat="46.09814" lon="4.59162">
        <ele>574</ele>
        <time>2018-01-08T14:55:39Z</time>
      </trkpt>
      <trkpt lat="46.09811" lon="4.59159">
        <ele>573</ele>
        <time>2018-01-08T14:55:39Z</time>
      </trkpt>
      <trkpt lat="46.09806" lon="4.59151">
        <ele>573</ele>
        <time>2018-01-08T14:55:39Z</time>
      </trkpt>
      <trkpt lat="46.09805" lon="4.59149">
        <ele>572</ele>
        <time>2018-01-08T14:55:54Z</time>
      </trkpt>
      <trkpt lat="46.09801" lon="4.59143">
        <ele>572</ele>
        <time>2018-01-08T14:55:54Z</time>
      </trkpt>
      <trkpt lat="46.09796" lon="4.59139">
        <ele>571</ele>
        <time>2018-01-08T14:55:54Z</time>
      </trkpt>
      <trkpt lat="46.09791" lon="4.59132">
        <ele>571</ele>
        <time>2018-01-08T14:55:54Z</time>
      </trkpt>
      <trkpt lat="46.09788" lon="4.59127">
        <ele>571</ele>
        <time>2018-01-08T14:56:10Z</time>
      </trkpt>
      <trkpt lat="46.09785" lon="4.5912">
        <ele>571</ele>
        <time>2018-01-08T14:56:10Z</time>
      </trkpt>
      <trkpt lat="46.09784" lon="4.59116">
        <ele>571</ele>
        <time>2018-01-08T14:56:10Z</time>
      </trkpt>
      <trkpt lat="46.09781" lon="4.59111">
        <ele>571</ele>
        <time>2018-01-08T14:56:10Z</time>
      </trkpt>
      <trkpt lat="46.09778" lon="4.59108">
        <ele>571</ele>
        <time>2018-01-08T14:56:26Z</time>
      </trkpt>
      <trkpt lat="46.09772" lon="4.59105">
        <ele>572</ele>
        <time>2018-01-08T14:56:26Z</time>
      </trkpt>
      <trkpt lat="46.09768" lon="4.59101">
        <ele>572</ele>
        <time>2018-01-08T14:56:26Z</time>
      </trkpt>
      <trkpt lat="46.09762" lon="4.59095">
        <ele>573</ele>
        <time>2018-01-08T14:56:26Z</time>
      </trkpt>
      <trkpt lat="46.09759" lon="4.5909">
        <ele>573</ele>
        <time>2018-01-08T14:56:42Z</time>
      </trkpt>
      <trkpt lat="46.09757" lon="4.59087">
        <ele>574</ele>
        <time>2018-01-08T14:56:42Z</time>
      </trkpt>
      <trkpt lat="46.09754" lon="4.59081">
        <ele>575</ele>
        <time>2018-01-08T14:56:42Z</time>
      </trkpt>
      <trkpt lat="46.09751" lon="4.59077">
        <ele>575</ele>
        <time>2018-01-08T14:56:42Z</time>
      </trkpt>
      <trkpt lat="46.09748" lon="4.59072">
        <ele>575</ele>
        <time>2018-01-08T14:56:58Z</time>
      </trkpt>
      <trkpt lat="46.09744" lon="4.59066">
        <ele>575</ele>
        <time>2018-01-08T14:56:58Z</time>
      </trkpt>
      <trkpt lat="46.09739" lon="4.59061">
        <ele>575</ele>
        <time>2018-01-08T14:56:58Z</time>
      </trkpt>
      <trkpt lat="46.09738" lon="4.59058">
        <ele>575</ele>
        <time>2018-01-08T14:56:58Z</time>
      </trkpt>
      <trkpt lat="46.09735" lon="4.59057">
        <ele>574</ele>
        <time>2018-01-08T14:57:14Z</time>
      </trkpt>
      <trkpt lat="46.09733" lon="4.59053">
        <ele>575</ele>
        <time>2018-01-08T14:57:14Z</time>
      </trkpt>
      <trkpt lat="46.09732" lon="4.59049">
        <ele>575</ele>
        <time>2018-01-08T14:57:14Z</time>
      </trkpt>
      <trkpt lat="46.0973" lon="4.59045">
        <ele>575</ele>
        <time>2018-01-08T14:57:14Z</time>
      </trkpt>
      <trkpt lat="46.09727" lon="4.59042">
        <ele>575</ele>
        <time>2018-01-08T14:57:30Z</time>
      </trkpt>
      <trkpt lat="46.09725" lon="4.59039">
        <ele>575</ele>
        <time>2018-01-08T14:57:30Z</time>
      </trkpt>
      <trkpt lat="46.09723" lon="4.59036">
        <ele>575</ele>
        <time>2018-01-08T14:57:30Z</time>
      </trkpt>
      <trkpt lat="46.09721" lon="4.59032">
        <ele>575</ele>
        <time>2018-01-08T14:57:30Z</time>
      </trkpt>
      <trkpt lat="46.0972" lon="4.59029">
        <ele>576</ele>
        <time>2018-01-08T14:57:46Z</time>
      </trkpt>
      <trkpt lat="46.09719" lon="4.59026">
        <ele>576</ele>
        <time>2018-01-08T14:57:46Z</time>
      </trkpt>
      <trkpt lat="46.09716" lon="4.59023">
        <ele>576</ele>
        <time>2018-01-08T14:57:46Z</time>
      </trkpt>
      <trkpt lat="46.09713" lon="4.59019">
        <ele>576</ele>
        <time>2018-01-08T14:57:46Z</time>
      </trkpt>
      <trkpt lat="46.0971" lon="4.59017">
        <ele>577</ele>
        <time>2018-01-08T14:58:02Z</time>
      </trkpt>
      <trkpt lat="46.09707" lon="4.59014">
        <ele>577</ele>
        <time>2018-01-08T14:58:02Z</time>
      </trkpt>
      <trkpt lat="46.09704" lon="4.5901">
        <ele>577</ele>
        <time>2018-01-08T14:58:02Z</time>
      </trkpt>
      <trkpt lat="46.09701" lon="4.59006">
        <ele>578</ele>
        <time>2018-01-08T14:58:02Z</time>
      </trkpt>
      <trkpt lat="46.09698" lon="4.59003">
        <ele>578</ele>
        <time>2018-01-08T14:58:18Z</time>
      </trkpt>
      <trkpt lat="46.09694" lon="4.59">
        <ele>579</ele>
        <time>2018-01-08T14:58:18Z</time>
      </trkpt>
      <trkpt lat="46.0969" lon="4.58995">
        <ele>579</ele>
        <time>2018-01-08T14:58:18Z</time>
      </trkpt>
      <trkpt lat="46.09687" lon="4.58992">
        <ele>579</ele>
        <time>2018-01-08T14:58:18Z</time>
      </trkpt>
      <trkpt lat="46.09684" lon="4.58989">
        <ele>579</ele>
        <time>2018-01-08T14:58:34Z</time>
      </trkpt>
      <trkpt lat="46.09682" lon="4.58986">
        <ele>579</ele>
        <time>2018-01-08T14:58:34Z</time>
      </trkpt>
      <trkpt lat="46.09678" lon="4.58983">
        <ele>580</ele>
        <time>2018-01-08T14:58:34Z</time>
      </trkpt>
      <trkpt lat="46.09675" lon="4.5898">
        <ele>580</ele>
        <time>2018-01-08T14:58:34Z</time>
      </trkpt>
      <trkpt lat="46.0967" lon="4.58976">
        <ele>580</ele>
        <time>2018-01-08T14:58:50Z</time>
      </trkpt>
      <trkpt lat="46.09665" lon="4.58972">
        <ele>580</ele>
        <time>2018-01-08T14:58:50Z</time>
      </trkpt>
      <trkpt lat="46.09661" lon="4.58968">
        <ele>581</ele>
        <time>2018-01-08T14:58:50Z</time>
      </trkpt>
      <trkpt lat="46.09657" lon="4.58966">
        <ele>581</ele>
        <time>2018-01-08T14:58:50Z</time>
      </trkpt>
      <trkpt lat="46.09653" lon="4.58962">
        <ele>581</ele>
        <time>2018-01-08T14:59:06Z</time>
      </trkpt>
      <trkpt lat="46.09648" lon="4.58961">
        <ele>581</ele>
        <time>2018-01-08T14:59:06Z</time>
      </trkpt>
      <trkpt lat="46.09642" lon="4.58959">
        <ele>582</ele>
        <time>2018-01-08T14:59:06Z</time>
      </trkpt>
      <trkpt lat="46.0964" lon="4.58959">
        <ele>582</ele>
        <time>2018-01-08T14:59:06Z</time>
      </trkpt>
      <trkpt lat="46.09633" lon="4.58957">
        <ele>582</ele>
        <time>2018-01-08T14:59:22Z</time>
      </trkpt>
      <trkpt lat="46.09629" lon="4.58954">
        <ele>583</ele>
        <time>2018-01-08T14:59:22Z</time>
      </trkpt>
      <trkpt lat="46.09624" lon="4.58953">
        <ele>583</ele>
        <time>2018-01-08T14:59:22Z</time>
      </trkpt>
      <trkpt lat="46.09618" lon="4.58953">
        <ele>584</ele>
        <time>2018-01-08T14:59:22Z</time>
      </trkpt>
      <trkpt lat="46.09613" lon="4.58951">
        <ele>584</ele>
        <time>2018-01-08T14:59:38Z</time>
      </trkpt>
      <trkpt lat="46.09608" lon="4.5895">
        <ele>584</ele>
        <time>2018-01-08T14:59:38Z</time>
      </trkpt>
      <trkpt lat="46.09603" lon="4.58949">
        <ele>585</ele>
        <time>2018-01-08T14:59:38Z</time>
      </trkpt>
      <trkpt lat="46.09599" lon="4.58952">
        <ele>585</ele>
        <time>2018-01-08T14:59:38Z</time>
      </trkpt>
      <trkpt lat="46.09596" lon="4.58949">
        <ele>585</ele>
        <time>2018-01-08T14:59:54Z</time>
      </trkpt>
      <trkpt lat="46.09592" lon="4.58948">
        <ele>586</ele>
        <time>2018-01-08T14:59:54Z</time>
      </trkpt>
      <trkpt lat="46.09587" lon="4.58948">
        <ele>586</ele>
        <time>2018-01-08T14:59:54Z</time>
      </trkpt>
      <trkpt lat="46.09584" lon="4.58949">
        <ele>586</ele>
        <time>2018-01-08T14:59:54Z</time>
      </trkpt>
      <trkpt lat="46.09581" lon="4.58949">
        <ele>586</ele>
        <time>2018-01-08T15:00:10Z</time>
      </trkpt>
      <trkpt lat="46.09578" lon="4.58949">
        <ele>587</ele>
        <time>2018-01-08T15:00:10Z</time>
      </trkpt>
      <trkpt lat="46.09575" lon="4.58945">
        <ele>587</ele>
        <time>2018-01-08T15:00:10Z</time>
      </trkpt>
      <trkpt lat="46.0957" lon="4.58942">
        <ele>588</ele>
        <time>2018-01-08T15:00:10Z</time>
      </trkpt>
      <trkpt lat="46.09567" lon="4.58941">
        <ele>588</ele>
        <time>2018-01-08T15:00:26Z</time>
      </trkpt>
      <trkpt lat="46.09565" lon="4.5894">
        <ele>588</ele>
        <time>2018-01-08T15:00:26Z</time>
      </trkpt>
      <trkpt lat="46.09561" lon="4.58939">
        <ele>589</ele>
        <time>2018-01-08T15:00:26Z</time>
      </trkpt>
      <trkpt lat="46.09556" lon="4.58941">
        <ele>589</ele>
        <time>2018-01-08T15:00:26Z</time>
      </trkpt>
      <trkpt lat="46.09549" lon="4.58942">
        <ele>590</ele>
        <time>2018-01-08T15:00:42Z</time>
      </trkpt>
      <trkpt lat="46.09544" lon="4.58939">
        <ele>591</ele>
        <time>2018-01-08T15:00:42Z</time>
      </trkpt>
      <trkpt lat="46.0954" lon="4.58938">
        <ele>591</ele>
        <time>2018-01-08T15:00:42Z</time>
      </trkpt>
      <trkpt lat="46.09536" lon="4.58938">
        <ele>592</ele>
        <time>2018-01-08T15:00:42Z</time>
      </trkpt>
      <trkpt lat="46.09534" lon="4.58938">
        <ele>592</ele>
        <time>2018-01-08T15:01:02Z</time>
      </trkpt>
      <trkpt lat="46.09531" lon="4.58936">
        <ele>592</ele>
        <time>2018-01-08T15:01:02Z</time>
      </trkpt>
      <trkpt lat="46.09528" lon="4.58933">
        <ele>593</ele>
        <time>2018-01-08T15:01:02Z</time>
      </trkpt>
      <trkpt lat="46.09526" lon="4.58932">
        <ele>593</ele>
        <time>2018-01-08T15:01:02Z</time>
      </trkpt>
      <trkpt lat="46.09523" lon="4.5893">
        <ele>594</ele>
        <time>2018-01-08T15:01:02Z</time>
      </trkpt>
      <trkpt lat="46.09519" lon="4.58929">
        <ele>594</ele>
        <time>2018-01-08T15:01:18Z</time>
      </trkpt>
      <trkpt lat="46.09515" lon="4.58927">
        <ele>595</ele>
        <time>2018-01-08T15:01:18Z</time>
      </trkpt>
      <trkpt lat="46.09511" lon="4.58925">
        <ele>596</ele>
        <time>2018-01-08T15:01:18Z</time>
      </trkpt>
      <trkpt lat="46.09507" lon="4.58924">
        <ele>596</ele>
        <time>2018-01-08T15:01:18Z</time>
      </trkpt>
      <trkpt lat="46.09503" lon="4.58924">
        <ele>597</ele>
        <time>2018-01-08T15:01:34Z</time>
      </trkpt>
      <trkpt lat="46.09499" lon="4.58924">
        <ele>597</ele>
        <time>2018-01-08T15:01:34Z</time>
      </trkpt>
      <trkpt lat="46.09496" lon="4.58923">
        <ele>597</ele>
        <time>2018-01-08T15:01:34Z</time>
      </trkpt>
      <trkpt lat="46.09492" lon="4.5892">
        <ele>597</ele>
        <time>2018-01-08T15:01:34Z</time>
      </trkpt>
      <trkpt lat="46.09489" lon="4.5892">
        <ele>598</ele>
        <time>2018-01-08T15:01:50Z</time>
      </trkpt>
      <trkpt lat="46.09486" lon="4.58919">
        <ele>598</ele>
        <time>2018-01-08T15:01:50Z</time>
      </trkpt>
      <trkpt lat="46.09483" lon="4.58917">
        <ele>598</ele>
        <time>2018-01-08T15:01:50Z</time>
      </trkpt>
      <trkpt lat="46.0948" lon="4.58916">
        <ele>598</ele>
        <time>2018-01-08T15:01:50Z</time>
      </trkpt>
      <trkpt lat="46.09476" lon="4.58915">
        <ele>598</ele>
        <time>2018-01-08T15:02:06Z</time>
      </trkpt>
      <trkpt lat="46.09472" lon="4.58913">
        <ele>598</ele>
        <time>2018-01-08T15:02:06Z</time>
      </trkpt>
      <trkpt lat="46.0947" lon="4.5891">
        <ele>598</ele>
        <time>2018-01-08T15:02:06Z</time>
      </trkpt>
      <trkpt lat="46.09466" lon="4.58908">
        <ele>598</ele>
        <time>2018-01-08T15:02:06Z</time>
      </trkpt>
      <trkpt lat="46.09463" lon="4.58908">
        <ele>598</ele>
        <time>2018-01-08T15:02:22Z</time>
      </trkpt>
      <trkpt lat="46.09461" lon="4.58906">
        <ele>598</ele>
        <time>2018-01-08T15:02:22Z</time>
      </trkpt>
      <trkpt lat="46.09458" lon="4.58903">
        <ele>598</ele>
        <time>2018-01-08T15:02:22Z</time>
      </trkpt>
      <trkpt lat="46.09455" lon="4.58903">
        <ele>598</ele>
        <time>2018-01-08T15:02:22Z</time>
      </trkpt>
      <trkpt lat="46.09452" lon="4.58899">
        <ele>598</ele>
        <time>2018-01-08T15:02:38Z</time>
      </trkpt>
      <trkpt lat="46.09449" lon="4.58895">
        <ele>598</ele>
        <time>2018-01-08T15:02:38Z</time>
      </trkpt>
      <trkpt lat="46.09446" lon="4.58892">
        <ele>598</ele>
        <time>2018-01-08T15:02:38Z</time>
      </trkpt>
      <trkpt lat="46.09444" lon="4.58889">
        <ele>599</ele>
        <time>2018-01-08T15:02:38Z</time>
      </trkpt>
      <trkpt lat="46.09442" lon="4.58886">
        <ele>599</ele>
        <time>2018-01-08T15:02:54Z</time>
      </trkpt>
      <trkpt lat="46.09439" lon="4.58883">
        <ele>599</ele>
        <time>2018-01-08T15:02:54Z</time>
      </trkpt>
      <trkpt lat="46.09436" lon="4.58881">
        <ele>599</ele>
        <time>2018-01-08T15:02:54Z</time>
      </trkpt>
      <trkpt lat="46.09433" lon="4.58876">
        <ele>600</ele>
        <time>2018-01-08T15:02:54Z</time>
      </trkpt>
      <trkpt lat="46.0943" lon="4.58872">
        <ele>600</ele>
        <time>2018-01-08T15:03:10Z</time>
      </trkpt>
      <trkpt lat="46.09427" lon="4.58868">
        <ele>601</ele>
        <time>2018-01-08T15:03:10Z</time>
      </trkpt>
      <trkpt lat="46.09425" lon="4.58865">
        <ele>601</ele>
        <time>2018-01-08T15:03:10Z</time>
      </trkpt>
      <trkpt lat="46.09421" lon="4.5886">
        <ele>602</ele>
        <time>2018-01-08T15:03:10Z</time>
      </trkpt>
      <trkpt lat="46.09418" lon="4.58857">
        <ele>603</ele>
        <time>2018-01-08T15:03:26Z</time>
      </trkpt>
      <trkpt lat="46.09415" lon="4.58854">
        <ele>603</ele>
        <time>2018-01-08T15:03:26Z</time>
      </trkpt>
      <trkpt lat="46.09412" lon="4.58851">
        <ele>603</ele>
        <time>2018-01-08T15:03:26Z</time>
      </trkpt>
      <trkpt lat="46.09409" lon="4.58848">
        <ele>604</ele>
        <time>2018-01-08T15:03:26Z</time>
      </trkpt>
      <trkpt lat="46.09403" lon="4.58844">
        <ele>604</ele>
        <time>2018-01-08T15:03:42Z</time>
      </trkpt>
      <trkpt lat="46.09399" lon="4.58842">
        <ele>605</ele>
        <time>2018-01-08T15:03:42Z</time>
      </trkpt>
      <trkpt lat="46.09395" lon="4.58838">
        <ele>605</ele>
        <time>2018-01-08T15:03:42Z</time>
      </trkpt>
      <trkpt lat="46.09393" lon="4.58836">
        <ele>606</ele>
        <time>2018-01-08T15:03:42Z</time>
      </trkpt>
      <trkpt lat="46.09389" lon="4.58834">
        <ele>606</ele>
        <time>2018-01-08T15:03:58Z</time>
      </trkpt>
      <trkpt lat="46.09386" lon="4.58829">
        <ele>606</ele>
        <time>2018-01-08T15:03:58Z</time>
      </trkpt>
      <trkpt lat="46.09383" lon="4.58824">
        <ele>606</ele>
        <time>2018-01-08T15:03:58Z</time>
      </trkpt>
      <trkpt lat="46.09381" lon="4.58819">
        <ele>606</ele>
        <time>2018-01-08T15:03:58Z</time>
      </trkpt>
      <trkpt lat="46.09378" lon="4.58814">
        <ele>606</ele>
        <time>2018-01-08T15:04:14Z</time>
      </trkpt>
      <trkpt lat="46.09376" lon="4.58809">
        <ele>607</ele>
        <time>2018-01-08T15:04:14Z</time>
      </trkpt>
      <trkpt lat="46.09373" lon="4.58806">
        <ele>607</ele>
        <time>2018-01-08T15:04:14Z</time>
      </trkpt>
      <trkpt lat="46.09369" lon="4.58805">
        <ele>607</ele>
        <time>2018-01-08T15:04:14Z</time>
      </trkpt>
      <trkpt lat="46.09364" lon="4.58803">
        <ele>607</ele>
        <time>2018-01-08T15:04:30Z</time>
      </trkpt>
      <trkpt lat="46.09359" lon="4.58801">
        <ele>607</ele>
        <time>2018-01-08T15:04:30Z</time>
      </trkpt>
      <trkpt lat="46.09355" lon="4.58801">
        <ele>608</ele>
        <time>2018-01-08T15:04:30Z</time>
      </trkpt>
      <trkpt lat="46.0935" lon="4.58801">
        <ele>608</ele>
        <time>2018-01-08T15:04:30Z</time>
      </trkpt>
      <trkpt lat="46.09346" lon="4.588">
        <ele>608</ele>
        <time>2018-01-08T15:04:46Z</time>
      </trkpt>
      <trkpt lat="46.09341" lon="4.58798">
        <ele>609</ele>
        <time>2018-01-08T15:04:46Z</time>
      </trkpt>
      <trkpt lat="46.09337" lon="4.58798">
        <ele>609</ele>
        <time>2018-01-08T15:04:46Z</time>
      </trkpt>
      <trkpt lat="46.09332" lon="4.58796">
        <ele>609</ele>
        <time>2018-01-08T15:04:46Z</time>
      </trkpt>
      <trkpt lat="46.09327" lon="4.58795">
        <ele>610</ele>
        <time>2018-01-08T15:05:02Z</time>
      </trkpt>
      <trkpt lat="46.09324" lon="4.58794">
        <ele>610</ele>
        <time>2018-01-08T15:05:02Z</time>
      </trkpt>
      <trkpt lat="46.0932" lon="4.58794">
        <ele>611</ele>
        <time>2018-01-08T15:05:02Z</time>
      </trkpt>
      <trkpt lat="46.09314" lon="4.58793">
        <ele>611</ele>
        <time>2018-01-08T15:05:02Z</time>
      </trkpt>
      <trkpt lat="46.09308" lon="4.58793">
        <ele>612</ele>
        <time>2018-01-08T15:05:18Z</time>
      </trkpt>
      <trkpt lat="46.09304" lon="4.58792">
        <ele>612</ele>
        <time>2018-01-08T15:05:18Z</time>
      </trkpt>
      <trkpt lat="46.093" lon="4.58791">
        <ele>613</ele>
        <time>2018-01-08T15:05:18Z</time>
      </trkpt>
      <trkpt lat="46.09296" lon="4.5879">
        <ele>613</ele>
        <time>2018-01-08T15:05:18Z</time>
      </trkpt>
      <trkpt lat="46.09293" lon="4.5879">
        <ele>614</ele>
        <time>2018-01-08T15:05:34Z</time>
      </trkpt>
      <trkpt lat="46.0929" lon="4.5879">
        <ele>614</ele>
        <time>2018-01-08T15:05:34Z</time>
      </trkpt>
      <trkpt lat="46.09287" lon="4.58789">
        <ele>614</ele>
        <time>2018-01-08T15:05:34Z</time>
      </trkpt>
      <trkpt lat="46.09282" lon="4.58788">
        <ele>615</ele>
        <time>2018-01-08T15:05:34Z</time>
      </trkpt>
      <trkpt lat="46.09281" lon="4.58788">
        <ele>615</ele>
        <time>2018-01-08T15:05:58Z</time>
      </trkpt>
      <trkpt lat="46.09279" lon="4.5879">
        <ele>615</ele>
        <time>2018-01-08T15:05:58Z</time>
      </trkpt>
      <trkpt lat="46.09275" lon="4.58791">
        <ele>616</ele>
        <time>2018-01-08T15:05:58Z</time>
      </trkpt>
      <trkpt lat="46.09272" lon="4.58791">
        <ele>616</ele>
        <time>2018-01-08T15:05:58Z</time>
      </trkpt>
      <trkpt lat="46.09268" lon="4.5879">
        <ele>617</ele>
        <time>2018-01-08T15:06:14Z</time>
      </trkpt>
      <trkpt lat="46.09264" lon="4.58789">
        <ele>617</ele>
        <time>2018-01-08T15:06:14Z</time>
      </trkpt>
      <trkpt lat="46.09261" lon="4.58788">
        <ele>617</ele>
        <time>2018-01-08T15:06:14Z</time>
      </trkpt>
      <trkpt lat="46.09258" lon="4.58788">
        <ele>618</ele>
        <time>2018-01-08T15:06:14Z</time>
      </trkpt>
      <trkpt lat="46.09254" lon="4.58787">
        <ele>618</ele>
        <time>2018-01-08T15:06:30Z</time>
      </trkpt>
      <trkpt lat="46.0925" lon="4.58788">
        <ele>619</ele>
        <time>2018-01-08T15:06:30Z</time>
      </trkpt>
      <trkpt lat="46.09247" lon="4.58785">
        <ele>620</ele>
        <time>2018-01-08T15:06:30Z</time>
      </trkpt>
      <trkpt lat="46.09243" lon="4.58784">
        <ele>621</ele>
        <time>2018-01-08T15:06:30Z</time>
      </trkpt>
      <trkpt lat="46.0924" lon="4.58783">
        <ele>621</ele>
        <time>2018-01-08T15:06:50Z</time>
      </trkpt>
      <trkpt lat="46.09237" lon="4.58781">
        <ele>622</ele>
        <time>2018-01-08T15:06:50Z</time>
      </trkpt>
      <trkpt lat="46.09234" lon="4.58781">
        <ele>623</ele>
        <time>2018-01-08T15:06:50Z</time>
      </trkpt>
      <trkpt lat="46.09233" lon="4.58781">
        <ele>623</ele>
        <time>2018-01-08T15:06:50Z</time>
      </trkpt>
      <trkpt lat="46.09231" lon="4.58779">
        <ele>624</ele>
        <time>2018-01-08T15:06:50Z</time>
      </trkpt>
      <trkpt lat="46.0923" lon="4.58777">
        <ele>624</ele>
        <time>2018-01-08T15:07:06Z</time>
      </trkpt>
      <trkpt lat="46.09226" lon="4.58777">
        <ele>625</ele>
        <time>2018-01-08T15:07:06Z</time>
      </trkpt>
      <trkpt lat="46.09222" lon="4.58776">
        <ele>626</ele>
        <time>2018-01-08T15:07:06Z</time>
      </trkpt>
      <trkpt lat="46.09218" lon="4.58776">
        <ele>627</ele>
        <time>2018-01-08T15:07:06Z</time>
      </trkpt>
      <trkpt lat="46.09214" lon="4.58776">
        <ele>628</ele>
        <time>2018-01-08T15:07:26Z</time>
      </trkpt>
      <trkpt lat="46.09212" lon="4.58776">
        <ele>629</ele>
        <time>2018-01-08T15:07:26Z</time>
      </trkpt>
      <trkpt lat="46.09209" lon="4.58778">
        <ele>629</ele>
        <time>2018-01-08T15:07:26Z</time>
      </trkpt>
      <trkpt lat="46.09206" lon="4.58777">
        <ele>630</ele>
        <time>2018-01-08T15:07:26Z</time>
      </trkpt>
      <trkpt lat="46.09203" lon="4.58776">
        <ele>631</ele>
        <time>2018-01-08T15:07:26Z</time>
      </trkpt>
      <trkpt lat="46.09201" lon="4.58775">
        <ele>632</ele>
        <time>2018-01-08T15:07:46Z</time>
      </trkpt>
      <trkpt lat="46.09198" lon="4.58774">
        <ele>632</ele>
        <time>2018-01-08T15:07:46Z</time>
      </trkpt>
      <trkpt lat="46.09197" lon="4.58774">
        <ele>633</ele>
        <time>2018-01-08T15:07:46Z</time>
      </trkpt>
      <trkpt lat="46.09192" lon="4.58774">
        <ele>634</ele>
        <time>2018-01-08T15:07:46Z</time>
      </trkpt>
      <trkpt lat="46.09189" lon="4.58774">
        <ele>635</ele>
        <time>2018-01-08T15:07:46Z</time>
      </trkpt>
      <trkpt lat="46.09187" lon="4.58774">
        <ele>635</ele>
        <time>2018-01-08T15:08:06Z</time>
      </trkpt>
      <trkpt lat="46.09185" lon="4.58772">
        <ele>636</ele>
        <time>2018-01-08T15:08:06Z</time>
      </trkpt>
      <trkpt lat="46.09182" lon="4.5877">
        <ele>637</ele>
        <time>2018-01-08T15:08:06Z</time>
      </trkpt>
      <trkpt lat="46.0918" lon="4.58768">
        <ele>637</ele>
        <time>2018-01-08T15:08:06Z</time>
      </trkpt>
      <trkpt lat="46.09177" lon="4.58767">
        <ele>638</ele>
        <time>2018-01-08T15:08:06Z</time>
      </trkpt>
      <trkpt lat="46.09173" lon="4.58766">
        <ele>639</ele>
        <time>2018-01-08T15:08:22Z</time>
      </trkpt>
      <trkpt lat="46.0917" lon="4.58766">
        <ele>640</ele>
        <time>2018-01-08T15:08:22Z</time>
      </trkpt>
      <trkpt lat="46.09167" lon="4.58765">
        <ele>641</ele>
        <time>2018-01-08T15:08:22Z</time>
      </trkpt>
      <trkpt lat="46.09164" lon="4.58765">
        <ele>641</ele>
        <time>2018-01-08T15:08:22Z</time>
      </trkpt>
      <trkpt lat="46.0916" lon="4.58765">
        <ele>642</ele>
        <time>2018-01-08T15:08:42Z</time>
      </trkpt>
      <trkpt lat="46.09158" lon="4.58763">
        <ele>642</ele>
        <time>2018-01-08T15:08:42Z</time>
      </trkpt>
      <trkpt lat="46.09155" lon="4.58763">
        <ele>643</ele>
        <time>2018-01-08T15:08:42Z</time>
      </trkpt>
      <trkpt lat="46.09153" lon="4.58764">
        <ele>643</ele>
        <time>2018-01-08T15:08:42Z</time>
      </trkpt>
      <trkpt lat="46.0915" lon="4.58764">
        <ele>644</ele>
        <time>2018-01-08T15:08:42Z</time>
      </trkpt>
      <trkpt lat="46.09147" lon="4.58765">
        <ele>644</ele>
        <time>2018-01-08T15:08:58Z</time>
      </trkpt>
      <trkpt lat="46.09145" lon="4.58765">
        <ele>644</ele>
        <time>2018-01-08T15:08:58Z</time>
      </trkpt>
      <trkpt lat="46.09141" lon="4.58763">
        <ele>645</ele>
        <time>2018-01-08T15:08:58Z</time>
      </trkpt>
      <trkpt lat="46.09138" lon="4.58761">
        <ele>646</ele>
        <time>2018-01-08T15:08:58Z</time>
      </trkpt>
      <trkpt lat="46.09134" lon="4.58761">
        <ele>647</ele>
        <time>2018-01-08T15:09:18Z</time>
      </trkpt>
      <trkpt lat="46.0913" lon="4.58761">
        <ele>647</ele>
        <time>2018-01-08T15:09:18Z</time>
      </trkpt>
      <trkpt lat="46.09128" lon="4.5876">
        <ele>647</ele>
        <time>2018-01-08T15:09:18Z</time>
      </trkpt>
      <trkpt lat="46.09126" lon="4.5876">
        <ele>648</ele>
        <time>2018-01-08T15:09:18Z</time>
      </trkpt>
      <trkpt lat="46.09123" lon="4.58756">
        <ele>649</ele>
        <time>2018-01-08T15:09:18Z</time>
      </trkpt>
      <trkpt lat="46.0912" lon="4.58754">
        <ele>649</ele>
        <time>2018-01-08T15:09:38Z</time>
      </trkpt>
      <trkpt lat="46.09117" lon="4.58752">
        <ele>650</ele>
        <time>2018-01-08T15:09:38Z</time>
      </trkpt>
      <trkpt lat="46.09115" lon="4.58752">
        <ele>650</ele>
        <time>2018-01-08T15:09:38Z</time>
      </trkpt>
      <trkpt lat="46.09112" lon="4.58751">
        <ele>651</ele>
        <time>2018-01-08T15:09:38Z</time>
      </trkpt>
      <trkpt lat="46.09109" lon="4.58751">
        <ele>652</ele>
        <time>2018-01-08T15:09:38Z</time>
      </trkpt>
      <trkpt lat="46.09106" lon="4.58751">
        <ele>652</ele>
        <time>2018-01-08T15:09:58Z</time>
      </trkpt>
      <trkpt lat="46.09104" lon="4.5875">
        <ele>653</ele>
        <time>2018-01-08T15:09:58Z</time>
      </trkpt>
      <trkpt lat="46.09101" lon="4.5875">
        <ele>653</ele>
        <time>2018-01-08T15:09:58Z</time>
      </trkpt>
      <trkpt lat="46.09099" lon="4.58751">
        <ele>653</ele>
        <time>2018-01-08T15:09:58Z</time>
      </trkpt>
      <trkpt lat="46.09096" lon="4.5875">
        <ele>654</ele>
        <time>2018-01-08T15:09:58Z</time>
      </trkpt>
      <trkpt lat="46.09091" lon="4.58747">
        <ele>655</ele>
        <time>2018-01-08T15:10:22Z</time>
      </trkpt>
      <trkpt lat="46.09089" lon="4.58745">
        <ele>655</ele>
        <time>2018-01-08T15:10:22Z</time>
      </trkpt>
      <trkpt lat="46.09087" lon="4.58746">
        <ele>655</ele>
        <time>2018-01-08T15:10:22Z</time>
      </trkpt>
      <trkpt lat="46.09084" lon="4.58749">
        <ele>656</ele>
        <time>2018-01-08T15:10:22Z</time>
      </trkpt>
      <trkpt lat="46.09081" lon="4.58749">
        <ele>656</ele>
        <time>2018-01-08T15:10:22Z</time>
      </trkpt>
      <trkpt lat="46.09076" lon="4.58752">
        <ele>657</ele>
        <time>2018-01-08T15:10:42Z</time>
      </trkpt>
      <trkpt lat="46.09074" lon="4.58754">
        <ele>657</ele>
        <time>2018-01-08T15:10:42Z</time>
      </trkpt>
      <trkpt lat="46.09072" lon="4.58754">
        <ele>657</ele>
        <time>2018-01-08T15:10:42Z</time>
      </trkpt>
      <trkpt lat="46.09068" lon="4.58751">
        <ele>658</ele>
        <time>2018-01-08T15:10:42Z</time>
      </trkpt>
      <trkpt lat="46.09066" lon="4.58749">
        <ele>658</ele>
        <time>2018-01-08T15:10:42Z</time>
      </trkpt>
      <trkpt lat="46.09061" lon="4.58746">
        <ele>659</ele>
        <time>2018-01-08T15:10:58Z</time>
      </trkpt>
      <trkpt lat="46.09058" lon="4.58746">
        <ele>659</ele>
        <time>2018-01-08T15:10:58Z</time>
      </trkpt>
      <trkpt lat="46.09053" lon="4.58744">
        <ele>660</ele>
        <time>2018-01-08T15:10:58Z</time>
      </trkpt>
      <trkpt lat="46.0905" lon="4.58744">
        <ele>660</ele>
        <time>2018-01-08T15:10:58Z</time>
      </trkpt>
      <trkpt lat="46.09047" lon="4.58744">
        <ele>661</ele>
        <time>2018-01-08T15:11:18Z</time>
      </trkpt>
      <trkpt lat="46.09044" lon="4.58745">
        <ele>661</ele>
        <time>2018-01-08T15:11:18Z</time>
      </trkpt>
      <trkpt lat="46.0904" lon="4.58746">
        <ele>662</ele>
        <time>2018-01-08T15:11:18Z</time>
      </trkpt>
      <trkpt lat="46.09039" lon="4.58748">
        <ele>662</ele>
        <time>2018-01-08T15:11:18Z</time>
      </trkpt>
      <trkpt lat="46.09035" lon="4.58749">
        <ele>663</ele>
        <time>2018-01-08T15:11:18Z</time>
      </trkpt>
      <trkpt lat="46.0903" lon="4.5875">
        <ele>664</ele>
        <time>2018-01-08T15:11:38Z</time>
      </trkpt>
      <trkpt lat="46.09026" lon="4.58753">
        <ele>664</ele>
        <time>2018-01-08T15:11:38Z</time>
      </trkpt>
      <trkpt lat="46.09022" lon="4.58753">
        <ele>665</ele>
        <time>2018-01-08T15:11:38Z</time>
      </trkpt>
      <trkpt lat="46.0902" lon="4.58751">
        <ele>665</ele>
        <time>2018-01-08T15:11:38Z</time>
      </trkpt>
      <trkpt lat="46.09015" lon="4.58745">
        <ele>665</ele>
        <time>2018-01-08T15:11:54Z</time>
      </trkpt>
      <trkpt lat="46.09013" lon="4.58744">
        <ele>666</ele>
        <time>2018-01-08T15:11:54Z</time>
      </trkpt>
      <trkpt lat="46.0901" lon="4.58742">
        <ele>666</ele>
        <time>2018-01-08T15:11:54Z</time>
      </trkpt>
      <trkpt lat="46.09006" lon="4.58741">
        <ele>667</ele>
        <time>2018-01-08T15:11:54Z</time>
      </trkpt>
      <trkpt lat="46.09002" lon="4.58738">
        <ele>667</ele>
        <time>2018-01-08T15:12:10Z</time>
      </trkpt>
      <trkpt lat="46.08998" lon="4.58735">
        <ele>667</ele>
        <time>2018-01-08T15:12:10Z</time>
      </trkpt>
      <trkpt lat="46.08995" lon="4.58733">
        <ele>668</ele>
        <time>2018-01-08T15:12:10Z</time>
      </trkpt>
      <trkpt lat="46.08993" lon="4.58729">
        <ele>668</ele>
        <time>2018-01-08T15:12:10Z</time>
      </trkpt>
      <trkpt lat="46.08991" lon="4.58726">
        <ele>668</ele>
        <time>2018-01-08T15:12:26Z</time>
      </trkpt>
      <trkpt lat="46.08988" lon="4.58724">
        <ele>668</ele>
        <time>2018-01-08T15:12:26Z</time>
      </trkpt>
      <trkpt lat="46.08984" lon="4.58723">
        <ele>668</ele>
        <time>2018-01-08T15:12:26Z</time>
      </trkpt>
      <trkpt lat="46.0898" lon="4.58723">
        <ele>669</ele>
        <time>2018-01-08T15:12:26Z</time>
      </trkpt>
      <trkpt lat="46.08972" lon="4.58726">
        <ele>670</ele>
        <time>2018-01-08T15:14:10Z</time>
      </trkpt>
      <trkpt lat="46.08971" lon="4.58728">
        <ele>670</ele>
        <time>2018-01-08T15:14:10Z</time>
      </trkpt>
      <trkpt lat="46.08971" lon="4.58729">
        <ele>670</ele>
        <time>2018-01-08T15:14:10Z</time>
      </trkpt>
      <trkpt lat="46.08971" lon="4.58734">
        <ele>670</ele>
        <time>2018-01-08T15:14:10Z</time>
      </trkpt>
      <trkpt lat="46.08971" lon="4.58735">
        <ele>670</ele>
        <time>2018-01-08T15:14:10Z</time>
      </trkpt>
      <trkpt lat="46.0897" lon="4.5874">
        <ele>671</ele>
        <time>2018-01-08T15:14:30Z</time>
      </trkpt>
      <trkpt lat="46.0897" lon="4.58745">
        <ele>671</ele>
        <time>2018-01-08T15:14:30Z</time>
      </trkpt>
      <trkpt lat="46.0897" lon="4.58749">
        <ele>671</ele>
        <time>2018-01-08T15:14:30Z</time>
      </trkpt>
      <trkpt lat="46.08969" lon="4.58753">
        <ele>671</ele>
        <time>2018-01-08T15:14:30Z</time>
      </trkpt>
      <trkpt lat="46.08965" lon="4.58758">
        <ele>670</ele>
        <time>2018-01-08T15:14:30Z</time>
      </trkpt>
      <trkpt lat="46.08964" lon="4.58764">
        <ele>670</ele>
        <time>2018-01-08T15:14:46Z</time>
      </trkpt>
      <trkpt lat="46.08961" lon="4.58768">
        <ele>670</ele>
        <time>2018-01-08T15:14:46Z</time>
      </trkpt>
      <trkpt lat="46.08959" lon="4.58772">
        <ele>669</ele>
        <time>2018-01-08T15:14:46Z</time>
      </trkpt>
      <trkpt lat="46.08955" lon="4.58775">
        <ele>669</ele>
        <time>2018-01-08T15:14:46Z</time>
      </trkpt>
      <trkpt lat="46.08953" lon="4.5878">
        <ele>669</ele>
        <time>2018-01-08T15:15:02Z</time>
      </trkpt>
      <trkpt lat="46.08951" lon="4.58784">
        <ele>669</ele>
        <time>2018-01-08T15:15:02Z</time>
      </trkpt>
      <trkpt lat="46.08946" lon="4.58787">
        <ele>669</ele>
        <time>2018-01-08T15:15:02Z</time>
      </trkpt>
      <trkpt lat="46.08943" lon="4.58791">
        <ele>668</ele>
        <time>2018-01-08T15:15:02Z</time>
      </trkpt>
      <trkpt lat="46.08937" lon="4.58805">
        <ele>667</ele>
        <time>2018-01-08T15:15:42Z</time>
      </trkpt>
      <trkpt lat="46.08935" lon="4.58807">
        <ele>667</ele>
        <time>2018-01-08T15:15:42Z</time>
      </trkpt>
      <trkpt lat="46.08932" lon="4.5881">
        <ele>666</ele>
        <time>2018-01-08T15:15:42Z</time>
      </trkpt>
      <trkpt lat="46.08929" lon="4.58814">
        <ele>666</ele>
        <time>2018-01-08T15:15:42Z</time>
      </trkpt>
      <trkpt lat="46.08925" lon="4.58818">
        <ele>666</ele>
        <time>2018-01-08T15:15:42Z</time>
      </trkpt>
      <trkpt lat="46.0892" lon="4.5882">
        <ele>666</ele>
        <time>2018-01-08T15:15:58Z</time>
      </trkpt>
      <trkpt lat="46.08917" lon="4.58821">
        <ele>666</ele>
        <time>2018-01-08T15:15:58Z</time>
      </trkpt>
      <trkpt lat="46.08914" lon="4.58821">
        <ele>665</ele>
        <time>2018-01-08T15:15:58Z</time>
      </trkpt>
      <trkpt lat="46.0891" lon="4.58824">
        <ele>665</ele>
        <time>2018-01-08T15:15:58Z</time>
      </trkpt>
      <trkpt lat="46.08904" lon="4.58826">
        <ele>664</ele>
        <time>2018-01-08T15:16:14Z</time>
      </trkpt>
      <trkpt lat="46.08901" lon="4.58826">
        <ele>663</ele>
        <time>2018-01-08T15:16:14Z</time>
      </trkpt>
      <trkpt lat="46.08896" lon="4.58828">
        <ele>663</ele>
        <time>2018-01-08T15:16:14Z</time>
      </trkpt>
      <trkpt lat="46.08892" lon="4.58827">
        <ele>662</ele>
        <time>2018-01-08T15:16:14Z</time>
      </trkpt>
      <trkpt lat="46.08886" lon="4.58824">
        <ele>662</ele>
        <time>2018-01-08T15:16:30Z</time>
      </trkpt>
      <trkpt lat="46.08881" lon="4.58826">
        <ele>661</ele>
        <time>2018-01-08T15:16:30Z</time>
      </trkpt>
      <trkpt lat="46.08876" lon="4.58826">
        <ele>661</ele>
        <time>2018-01-08T15:16:30Z</time>
      </trkpt>
      <trkpt lat="46.08873" lon="4.58826">
        <ele>660</ele>
        <time>2018-01-08T15:16:30Z</time>
      </trkpt>
      <trkpt lat="46.08871" lon="4.58826">
        <ele>660</ele>
        <time>2018-01-08T15:16:46Z</time>
      </trkpt>
      <trkpt lat="46.08863" lon="4.58825">
        <ele>660</ele>
        <time>2018-01-08T15:16:46Z</time>
      </trkpt>
      <trkpt lat="46.08857" lon="4.58822">
        <ele>660</ele>
        <time>2018-01-08T15:16:46Z</time>
      </trkpt>
      <trkpt lat="46.08852" lon="4.58823">
        <ele>659</ele>
        <time>2018-01-08T15:16:46Z</time>
      </trkpt>
      <trkpt lat="46.08848" lon="4.58822">
        <ele>659</ele>
        <time>2018-01-08T15:17:02Z</time>
      </trkpt>
      <trkpt lat="46.08844" lon="4.58819">
        <ele>659</ele>
        <time>2018-01-08T15:17:02Z</time>
      </trkpt>
      <trkpt lat="46.08839" lon="4.58819">
        <ele>658</ele>
        <time>2018-01-08T15:17:02Z</time>
      </trkpt>
      <trkpt lat="46.08835" lon="4.58818">
        <ele>658</ele>
        <time>2018-01-08T15:17:02Z</time>
      </trkpt>
      <trkpt lat="46.0883" lon="4.58819">
        <ele>657</ele>
        <time>2018-01-08T15:17:18Z</time>
      </trkpt>
      <trkpt lat="46.08826" lon="4.58818">
        <ele>657</ele>
        <time>2018-01-08T15:17:18Z</time>
      </trkpt>
      <trkpt lat="46.08823" lon="4.58817">
        <ele>657</ele>
        <time>2018-01-08T15:17:18Z</time>
      </trkpt>
      <trkpt lat="46.08817" lon="4.58816">
        <ele>656</ele>
        <time>2018-01-08T15:17:18Z</time>
      </trkpt>
      <trkpt lat="46.08812" lon="4.58816">
        <ele>656</ele>
        <time>2018-01-08T15:17:34Z</time>
      </trkpt>
      <trkpt lat="46.08809" lon="4.58814">
        <ele>656</ele>
        <time>2018-01-08T15:17:34Z</time>
      </trkpt>
      <trkpt lat="46.08803" lon="4.58812">
        <ele>655</ele>
        <time>2018-01-08T15:17:34Z</time>
      </trkpt>
      <trkpt lat="46.08798" lon="4.5881">
        <ele>655</ele>
        <time>2018-01-08T15:17:34Z</time>
      </trkpt>
      <trkpt lat="46.08793" lon="4.58809">
        <ele>655</ele>
        <time>2018-01-08T15:17:50Z</time>
      </trkpt>
      <trkpt lat="46.08786" lon="4.58807">
        <ele>655</ele>
        <time>2018-01-08T15:17:50Z</time>
      </trkpt>
      <trkpt lat="46.08775" lon="4.58811">
        <ele>652</ele>
        <time>2018-01-08T15:17:50Z</time>
      </trkpt>
      <trkpt lat="46.08768" lon="4.58815">
        <ele>651</ele>
        <time>2018-01-08T15:17:50Z</time>
      </trkpt>
      <trkpt lat="46.08761" lon="4.58818">
        <ele>649</ele>
        <time>2018-01-08T15:18:06Z</time>
      </trkpt>
      <trkpt lat="46.08753" lon="4.58817">
        <ele>648</ele>
        <time>2018-01-08T15:18:06Z</time>
      </trkpt>
      <trkpt lat="46.08748" lon="4.58815">
        <ele>648</ele>
        <time>2018-01-08T15:18:06Z</time>
      </trkpt>
      <trkpt lat="46.08744" lon="4.58815">
        <ele>647</ele>
        <time>2018-01-08T15:18:06Z</time>
      </trkpt>
      <trkpt lat="46.08739" lon="4.58816">
        <ele>646</ele>
        <time>2018-01-08T15:18:22Z</time>
      </trkpt>
      <trkpt lat="46.08734" lon="4.58815">
        <ele>646</ele>
        <time>2018-01-08T15:18:22Z</time>
      </trkpt>
      <trkpt lat="46.08729" lon="4.58815">
        <ele>645</ele>
        <time>2018-01-08T15:18:22Z</time>
      </trkpt>
      <trkpt lat="46.08724" lon="4.58815">
        <ele>644</ele>
        <time>2018-01-08T15:18:22Z</time>
      </trkpt>
      <trkpt lat="46.0872" lon="4.58815">
        <ele>643</ele>
        <time>2018-01-08T15:18:38Z</time>
      </trkpt>
      <trkpt lat="46.08716" lon="4.58817">
        <ele>642</ele>
        <time>2018-01-08T15:18:38Z</time>
      </trkpt>
      <trkpt lat="46.08712" lon="4.58817">
        <ele>641</ele>
        <time>2018-01-08T15:18:38Z</time>
      </trkpt>
      <trkpt lat="46.08709" lon="4.58814">
        <ele>641</ele>
        <time>2018-01-08T15:18:38Z</time>
      </trkpt>
      <trkpt lat="46.08708" lon="4.58815">
        <ele>641</ele>
        <time>2018-01-08T15:19:02Z</time>
      </trkpt>
      <trkpt lat="46.08706" lon="4.58814">
        <ele>641</ele>
        <time>2018-01-08T15:19:02Z</time>
      </trkpt>
      <trkpt lat="46.08702" lon="4.58814">
        <ele>640</ele>
        <time>2018-01-08T15:19:02Z</time>
      </trkpt>
      <trkpt lat="46.08697" lon="4.58814">
        <ele>639</ele>
        <time>2018-01-08T15:19:02Z</time>
      </trkpt>
      <trkpt lat="46.08694" lon="4.58813">
        <ele>639</ele>
        <time>2018-01-08T15:19:18Z</time>
      </trkpt>
      <trkpt lat="46.08689" lon="4.58812">
        <ele>638</ele>
        <time>2018-01-08T15:19:18Z</time>
      </trkpt>
      <trkpt lat="46.08684" lon="4.58813">
        <ele>637</ele>
        <time>2018-01-08T15:19:18Z</time>
      </trkpt>
      <trkpt lat="46.0868" lon="4.58812">
        <ele>637</ele>
        <time>2018-01-08T15:19:18Z</time>
      </trkpt>
      <trkpt lat="46.08676" lon="4.58811">
        <ele>636</ele>
        <time>2018-01-08T15:19:34Z</time>
      </trkpt>
      <trkpt lat="46.08671" lon="4.58812">
        <ele>635</ele>
        <time>2018-01-08T15:19:34Z</time>
      </trkpt>
      <trkpt lat="46.08668" lon="4.58808">
        <ele>635</ele>
        <time>2018-01-08T15:19:34Z</time>
      </trkpt>
      <trkpt lat="46.08666" lon="4.58804">
        <ele>636</ele>
        <time>2018-01-08T15:19:34Z</time>
      </trkpt>
      <trkpt lat="46.08662" lon="4.58801">
        <ele>635</ele>
        <time>2018-01-08T15:19:50Z</time>
      </trkpt>
      <trkpt lat="46.08657" lon="4.58798">
        <ele>635</ele>
        <time>2018-01-08T15:19:50Z</time>
      </trkpt>
      <trkpt lat="46.08651" lon="4.58794">
        <ele>634</ele>
        <time>2018-01-08T15:19:50Z</time>
      </trkpt>
      <trkpt lat="46.08647" lon="4.58791">
        <ele>634</ele>
        <time>2018-01-08T15:19:50Z</time>
      </trkpt>
      <trkpt lat="46.08644" lon="4.58786">
        <ele>634</ele>
        <time>2018-01-08T15:20:06Z</time>
      </trkpt>
      <trkpt lat="46.0864" lon="4.58783">
        <ele>634</ele>
        <time>2018-01-08T15:20:06Z</time>
      </trkpt>
      <trkpt lat="46.08635" lon="4.58781">
        <ele>633</ele>
        <time>2018-01-08T15:20:06Z</time>
      </trkpt>
      <trkpt lat="46.08634" lon="4.58779">
        <ele>633</ele>
        <time>2018-01-08T15:20:06Z</time>
      </trkpt>
      <trkpt lat="46.08631" lon="4.58774">
        <ele>633</ele>
        <time>2018-01-08T15:20:22Z</time>
      </trkpt>
      <trkpt lat="46.08626" lon="4.58771">
        <ele>633</ele>
        <time>2018-01-08T15:20:22Z</time>
      </trkpt>
      <trkpt lat="46.08624" lon="4.5877">
        <ele>633</ele>
        <time>2018-01-08T15:20:22Z</time>
      </trkpt>
      <trkpt lat="46.08622" lon="4.58768">
        <ele>633</ele>
        <time>2018-01-08T15:20:22Z</time>
      </trkpt>
      <trkpt lat="46.0862" lon="4.58765">
        <ele>633</ele>
        <time>2018-01-08T15:20:38Z</time>
      </trkpt>
      <trkpt lat="46.08616" lon="4.58762">
        <ele>632</ele>
        <time>2018-01-08T15:20:38Z</time>
      </trkpt>
      <trkpt lat="46.08613" lon="4.58759">
        <ele>632</ele>
        <time>2018-01-08T15:20:38Z</time>
      </trkpt>
      <trkpt lat="46.08609" lon="4.58755">
        <ele>632</ele>
        <time>2018-01-08T15:20:38Z</time>
      </trkpt>
      <trkpt lat="46.08606" lon="4.58752">
        <ele>632</ele>
        <time>2018-01-08T15:20:54Z</time>
      </trkpt>
      <trkpt lat="46.08603" lon="4.58753">
        <ele>631</ele>
        <time>2018-01-08T15:20:54Z</time>
      </trkpt>
      <trkpt lat="46.086" lon="4.58749">
        <ele>631</ele>
        <time>2018-01-08T15:20:54Z</time>
      </trkpt>
      <trkpt lat="46.08597" lon="4.58743">
        <ele>632</ele>
        <time>2018-01-08T15:20:54Z</time>
      </trkpt>
      <trkpt lat="46.08594" lon="4.58739">
        <ele>632</ele>
        <time>2018-01-08T15:21:10Z</time>
      </trkpt>
      <trkpt lat="46.0859" lon="4.58736">
        <ele>632</ele>
        <time>2018-01-08T15:21:10Z</time>
      </trkpt>
      <trkpt lat="46.08586" lon="4.58733">
        <ele>632</ele>
        <time>2018-01-08T15:21:10Z</time>
      </trkpt>
      <trkpt lat="46.08581" lon="4.5873">
        <ele>631</ele>
        <time>2018-01-08T15:21:10Z</time>
      </trkpt>
      <trkpt lat="46.08577" lon="4.58728">
        <ele>631</ele>
        <time>2018-01-08T15:21:26Z</time>
      </trkpt>
      <trkpt lat="46.08573" lon="4.58726">
        <ele>630</ele>
        <time>2018-01-08T15:21:26Z</time>
      </trkpt>
      <trkpt lat="46.08569" lon="4.58724">
        <ele>630</ele>
        <time>2018-01-08T15:21:26Z</time>
      </trkpt>
      <trkpt lat="46.08566" lon="4.58723">
        <ele>629</ele>
        <time>2018-01-08T15:21:26Z</time>
      </trkpt>
      <trkpt lat="46.08563" lon="4.58722">
        <ele>628</ele>
        <time>2018-01-08T15:21:42Z</time>
      </trkpt>
      <trkpt lat="46.08559" lon="4.58722">
        <ele>628</ele>
        <time>2018-01-08T15:21:42Z</time>
      </trkpt>
      <trkpt lat="46.08555" lon="4.58721">
        <ele>627</ele>
        <time>2018-01-08T15:21:42Z</time>
      </trkpt>
      <trkpt lat="46.08551" lon="4.58716">
        <ele>627</ele>
        <time>2018-01-08T15:21:42Z</time>
      </trkpt>
      <trkpt lat="46.08547" lon="4.58716">
        <ele>626</ele>
        <time>2018-01-08T15:21:58Z</time>
      </trkpt>
      <trkpt lat="46.08543" lon="4.58712">
        <ele>627</ele>
        <time>2018-01-08T15:21:58Z</time>
      </trkpt>
      <trkpt lat="46.0854" lon="4.5871">
        <ele>626</ele>
        <time>2018-01-08T15:21:58Z</time>
      </trkpt>
      <trkpt lat="46.08536" lon="4.58707">
        <ele>626</ele>
        <time>2018-01-08T15:21:58Z</time>
      </trkpt>
      <trkpt lat="46.08535" lon="4.58707">
        <ele>626</ele>
        <time>2018-01-08T15:22:14Z</time>
      </trkpt>
      <trkpt lat="46.08531" lon="4.58708">
        <ele>625</ele>
        <time>2018-01-08T15:22:14Z</time>
      </trkpt>
      <trkpt lat="46.08527" lon="4.58707">
        <ele>624</ele>
        <time>2018-01-08T15:22:14Z</time>
      </trkpt>
      <trkpt lat="46.08523" lon="4.58705">
        <ele>624</ele>
        <time>2018-01-08T15:22:14Z</time>
      </trkpt>
      <trkpt lat="46.08518" lon="4.58707">
        <ele>622</ele>
        <time>2018-01-08T15:22:34Z</time>
      </trkpt>
      <trkpt lat="46.08516" lon="4.58706">
        <ele>622</ele>
        <time>2018-01-08T15:22:34Z</time>
      </trkpt>
      <trkpt lat="46.08515" lon="4.58706">
        <ele>622</ele>
        <time>2018-01-08T15:22:34Z</time>
      </trkpt>
      <trkpt lat="46.08511" lon="4.58707">
        <ele>620</ele>
        <time>2018-01-08T15:22:34Z</time>
      </trkpt>
      <trkpt lat="46.08508" lon="4.58708">
        <ele>620</ele>
        <time>2018-01-08T15:22:34Z</time>
      </trkpt>
      <trkpt lat="46.08504" lon="4.58711">
        <ele>618</ele>
        <time>2018-01-08T15:22:54Z</time>
      </trkpt>
      <trkpt lat="46.08501" lon="4.58712">
        <ele>616</ele>
        <time>2018-01-08T15:22:54Z</time>
      </trkpt>
      <trkpt lat="46.08499" lon="4.5871">
        <ele>617</ele>
        <time>2018-01-08T15:22:54Z</time>
      </trkpt>
      <trkpt lat="46.08497" lon="4.5871">
        <ele>617</ele>
        <time>2018-01-08T15:22:54Z</time>
      </trkpt>
      <trkpt lat="46.08494" lon="4.5871">
        <ele>616</ele>
        <time>2018-01-08T15:22:54Z</time>
      </trkpt>
      <trkpt lat="46.0849" lon="4.58711">
        <ele>616</ele>
        <time>2018-01-08T15:23:10Z</time>
      </trkpt>
      <trkpt lat="46.08487" lon="4.58711">
        <ele>615</ele>
        <time>2018-01-08T15:23:10Z</time>
      </trkpt>
      <trkpt lat="46.08483" lon="4.58713">
        <ele>614</ele>
        <time>2018-01-08T15:23:10Z</time>
      </trkpt>
      <trkpt lat="46.0848" lon="4.58715">
        <ele>613</ele>
        <time>2018-01-08T15:23:10Z</time>
      </trkpt>
      <trkpt lat="46.08476" lon="4.58716">
        <ele>612</ele>
        <time>2018-01-08T15:23:26Z</time>
      </trkpt>
      <trkpt lat="46.0847" lon="4.58717">
        <ele>611</ele>
        <time>2018-01-08T15:23:26Z</time>
      </trkpt>
      <trkpt lat="46.08465" lon="4.5872">
        <ele>609</ele>
        <time>2018-01-08T15:23:26Z</time>
      </trkpt>
      <trkpt lat="46.08462" lon="4.58722">
        <ele>608</ele>
        <time>2018-01-08T15:23:26Z</time>
      </trkpt>
      <trkpt lat="46.08458" lon="4.58726">
        <ele>606</ele>
        <time>2018-01-08T15:23:42Z</time>
      </trkpt>
      <trkpt lat="46.08454" lon="4.58728">
        <ele>604</ele>
        <time>2018-01-08T15:23:42Z</time>
      </trkpt>
      <trkpt lat="46.0845" lon="4.5873">
        <ele>603</ele>
        <time>2018-01-08T15:23:42Z</time>
      </trkpt>
      <trkpt lat="46.08448" lon="4.58732">
        <ele>602</ele>
        <time>2018-01-08T15:23:42Z</time>
      </trkpt>
      <trkpt lat="46.08444" lon="4.58736">
        <ele>600</ele>
        <time>2018-01-08T15:23:58Z</time>
      </trkpt>
      <trkpt lat="46.08441" lon="4.58739">
        <ele>598</ele>
        <time>2018-01-08T15:23:58Z</time>
      </trkpt>
      <trkpt lat="46.08439" lon="4.58744">
        <ele>595</ele>
        <time>2018-01-08T15:23:58Z</time>
      </trkpt>
      <trkpt lat="46.08438" lon="4.58746">
        <ele>594</ele>
        <time>2018-01-08T15:23:58Z</time>
      </trkpt>
      <trkpt lat="46.08437" lon="4.58751">
        <ele>592</ele>
        <time>2018-01-08T15:25:02Z</time>
      </trkpt>
      <trkpt lat="46.08434" lon="4.5875">
        <ele>592</ele>
        <time>2018-01-08T15:25:02Z</time>
      </trkpt>
      <trkpt lat="46.08432" lon="4.58752">
        <ele>591</ele>
        <time>2018-01-08T15:25:02Z</time>
      </trkpt>
      <trkpt lat="46.0843" lon="4.58753">
        <ele>590</ele>
        <time>2018-01-08T15:25:02Z</time>
      </trkpt>
      <trkpt lat="46.08429" lon="4.58753">
        <ele>590</ele>
        <time>2018-01-08T15:25:02Z</time>
      </trkpt>
      <trkpt lat="46.08425" lon="4.58755">
        <ele>589</ele>
        <time>2018-01-08T15:25:34Z</time>
      </trkpt>
      <trkpt lat="46.08422" lon="4.58755">
        <ele>588</ele>
        <time>2018-01-08T15:25:34Z</time>
      </trkpt>
      <trkpt lat="46.08419" lon="4.58758">
        <ele>587</ele>
        <time>2018-01-08T15:25:34Z</time>
      </trkpt>
      <trkpt lat="46.08417" lon="4.58759">
        <ele>586</ele>
        <time>2018-01-08T15:25:34Z</time>
      </trkpt>
      <trkpt lat="46.08416" lon="4.58758">
        <ele>587</ele>
        <time>2018-01-08T15:25:34Z</time>
      </trkpt>
      <trkpt lat="46.08412" lon="4.58757">
        <ele>587</ele>
        <time>2018-01-08T15:25:50Z</time>
      </trkpt>
      <trkpt lat="46.08409" lon="4.58758">
        <ele>587</ele>
        <time>2018-01-08T15:25:50Z</time>
      </trkpt>
      <trkpt lat="46.08405" lon="4.5876">
        <ele>587</ele>
        <time>2018-01-08T15:25:50Z</time>
      </trkpt>
      <trkpt lat="46.08401" lon="4.58759">
        <ele>588</ele>
        <time>2018-01-08T15:25:50Z</time>
      </trkpt>
      <trkpt lat="46.08395" lon="4.58759">
        <ele>589</ele>
        <time>2018-01-08T15:26:06Z</time>
      </trkpt>
      <trkpt lat="46.08389" lon="4.58755">
        <ele>591</ele>
        <time>2018-01-08T15:26:06Z</time>
      </trkpt>
      <trkpt lat="46.08385" lon="4.58755">
        <ele>591</ele>
        <time>2018-01-08T15:26:06Z</time>
      </trkpt>
      <trkpt lat="46.08381" lon="4.58755">
        <ele>592</ele>
        <time>2018-01-08T15:26:06Z</time>
      </trkpt>
      <trkpt lat="46.08377" lon="4.58754">
        <ele>593</ele>
        <time>2018-01-08T15:26:22Z</time>
      </trkpt>
      <trkpt lat="46.08374" lon="4.58754">
        <ele>593</ele>
        <time>2018-01-08T15:26:22Z</time>
      </trkpt>
      <trkpt lat="46.08369" lon="4.58752">
        <ele>594</ele>
        <time>2018-01-08T15:26:22Z</time>
      </trkpt>
      <trkpt lat="46.08364" lon="4.58754">
        <ele>595</ele>
        <time>2018-01-08T15:26:22Z</time>
      </trkpt>
      <trkpt lat="46.08359" lon="4.58757">
        <ele>595</ele>
        <time>2018-01-08T15:26:38Z</time>
      </trkpt>
      <trkpt lat="46.08356" lon="4.58757">
        <ele>595</ele>
        <time>2018-01-08T15:26:38Z</time>
      </trkpt>
      <trkpt lat="46.08351" lon="4.58756">
        <ele>596</ele>
        <time>2018-01-08T15:26:38Z</time>
      </trkpt>
      <trkpt lat="46.08346" lon="4.58759">
        <ele>596</ele>
        <time>2018-01-08T15:26:38Z</time>
      </trkpt>
      <trkpt lat="46.08336" lon="4.58762">
        <ele>597</ele>
        <time>2018-01-08T15:27:22Z</time>
      </trkpt>
      <trkpt lat="46.08333" lon="4.5876">
        <ele>598</ele>
        <time>2018-01-08T15:27:22Z</time>
      </trkpt>
      <trkpt lat="46.08333" lon="4.5876">
        <ele>598</ele>
        <time>2018-01-08T15:27:22Z</time>
      </trkpt>
      <trkpt lat="46.08333" lon="4.58762">
        <ele>598</ele>
        <time>2018-01-08T15:27:22Z</time>
      </trkpt>
      <trkpt lat="46.08332" lon="4.58756">
        <ele>599</ele>
        <time>2018-01-08T15:27:22Z</time>
      </trkpt>
      <trkpt lat="46.08333" lon="4.58756">
        <ele>599</ele>
        <time>2018-01-08T15:27:38Z</time>
      </trkpt>
      <trkpt lat="46.08333" lon="4.58762">
        <ele>597</ele>
        <time>2018-01-08T15:27:38Z</time>
      </trkpt>
      <trkpt lat="46.0833" lon="4.58767">
        <ele>598</ele>
        <time>2018-01-08T15:27:38Z</time>
      </trkpt>
      <trkpt lat="46.08332" lon="4.58777">
        <ele>596</ele>
        <time>2018-01-08T15:27:38Z</time>
      </trkpt>
      <trkpt lat="46.08329" lon="4.58788">
        <ele>596</ele>
        <time>2018-01-08T15:27:54Z</time>
      </trkpt>
      <trkpt lat="46.0833" lon="4.58795">
        <ele>594</ele>
        <time>2018-01-08T15:27:54Z</time>
      </trkpt>
      <trkpt lat="46.0833" lon="4.58802">
        <ele>593</ele>
        <time>2018-01-08T15:27:54Z</time>
      </trkpt>
      <trkpt lat="46.08331" lon="4.58808">
        <ele>592</ele>
        <time>2018-01-08T15:27:54Z</time>
      </trkpt>
      <trkpt lat="46.08329" lon="4.58814">
        <ele>592</ele>
        <time>2018-01-08T15:28:10Z</time>
      </trkpt>
      <trkpt lat="46.08329" lon="4.5882">
        <ele>592</ele>
        <time>2018-01-08T15:28:10Z</time>
      </trkpt>
      <trkpt lat="46.08331" lon="4.58826">
        <ele>590</ele>
        <time>2018-01-08T15:28:10Z</time>
      </trkpt>
      <trkpt lat="46.08331" lon="4.58833">
        <ele>589</ele>
        <time>2018-01-08T15:28:10Z</time>
      </trkpt>
      <trkpt lat="46.08327" lon="4.58841">
        <ele>590</ele>
        <time>2018-01-08T15:28:26Z</time>
      </trkpt>
      <trkpt lat="46.08327" lon="4.58848">
        <ele>590</ele>
        <time>2018-01-08T15:28:26Z</time>
      </trkpt>
      <trkpt lat="46.08325" lon="4.58854">
        <ele>590</ele>
        <time>2018-01-08T15:28:26Z</time>
      </trkpt>
      <trkpt lat="46.08325" lon="4.58862">
        <ele>590</ele>
        <time>2018-01-08T15:28:26Z</time>
      </trkpt>
      <trkpt lat="46.08324" lon="4.58869">
        <ele>590</ele>
        <time>2018-01-08T15:28:42Z</time>
      </trkpt>
      <trkpt lat="46.08325" lon="4.58874">
        <ele>589</ele>
        <time>2018-01-08T15:28:42Z</time>
      </trkpt>
      <trkpt lat="46.08326" lon="4.58881">
        <ele>588</ele>
        <time>2018-01-08T15:28:42Z</time>
      </trkpt>
      <trkpt lat="46.08326" lon="4.58887">
        <ele>588</ele>
        <time>2018-01-08T15:28:42Z</time>
      </trkpt>
      <trkpt lat="46.08327" lon="4.58896">
        <ele>587</ele>
        <time>2018-01-08T15:28:58Z</time>
      </trkpt>
      <trkpt lat="46.08328" lon="4.58903">
        <ele>587</ele>
        <time>2018-01-08T15:28:58Z</time>
      </trkpt>
      <trkpt lat="46.08324" lon="4.5891">
        <ele>587</ele>
        <time>2018-01-08T15:28:58Z</time>
      </trkpt>
      <trkpt lat="46.08324" lon="4.58918">
        <ele>587</ele>
        <time>2018-01-08T15:28:58Z</time>
      </trkpt>
      <trkpt lat="46.08322" lon="4.58924">
        <ele>588</ele>
        <time>2018-01-08T15:29:14Z</time>
      </trkpt>
      <trkpt lat="46.0832" lon="4.58931">
        <ele>588</ele>
        <time>2018-01-08T15:29:14Z</time>
      </trkpt>
      <trkpt lat="46.0832" lon="4.58937">
        <ele>588</ele>
        <time>2018-01-08T15:29:14Z</time>
      </trkpt>
      <trkpt lat="46.08321" lon="4.58943">
        <ele>588</ele>
        <time>2018-01-08T15:29:14Z</time>
      </trkpt>
      <trkpt lat="46.0832" lon="4.58949">
        <ele>588</ele>
        <time>2018-01-08T15:29:30Z</time>
      </trkpt>
      <trkpt lat="46.08318" lon="4.58956">
        <ele>589</ele>
        <time>2018-01-08T15:29:30Z</time>
      </trkpt>
      <trkpt lat="46.08316" lon="4.58962">
        <ele>589</ele>
        <time>2018-01-08T15:29:30Z</time>
      </trkpt>
      <trkpt lat="46.08315" lon="4.58968">
        <ele>590</ele>
        <time>2018-01-08T15:29:30Z</time>
      </trkpt>
      <trkpt lat="46.08313" lon="4.58975">
        <ele>590</ele>
        <time>2018-01-08T15:29:46Z</time>
      </trkpt>
      <trkpt lat="46.08311" lon="4.58982">
        <ele>590</ele>
        <time>2018-01-08T15:29:46Z</time>
      </trkpt>
      <trkpt lat="46.08312" lon="4.58987">
        <ele>590</ele>
        <time>2018-01-08T15:29:46Z</time>
      </trkpt>
      <trkpt lat="46.08314" lon="4.58993">
        <ele>590</ele>
        <time>2018-01-08T15:29:46Z</time>
      </trkpt>
      <trkpt lat="46.08313" lon="4.58998">
        <ele>590</ele>
        <time>2018-01-08T15:30:02Z</time>
      </trkpt>
      <trkpt lat="46.08312" lon="4.59004">
        <ele>590</ele>
        <time>2018-01-08T15:30:02Z</time>
      </trkpt>
      <trkpt lat="46.08311" lon="4.59013">
        <ele>590</ele>
        <time>2018-01-08T15:30:02Z</time>
      </trkpt>
      <trkpt lat="46.0831" lon="4.59018">
        <ele>590</ele>
        <time>2018-01-08T15:30:02Z</time>
      </trkpt>
      <trkpt lat="46.0831" lon="4.59024">
        <ele>590</ele>
        <time>2018-01-08T15:30:18Z</time>
      </trkpt>
      <trkpt lat="46.08311" lon="4.5903">
        <ele>590</ele>
        <time>2018-01-08T15:30:18Z</time>
      </trkpt>
      <trkpt lat="46.08311" lon="4.59032">
        <ele>590</ele>
        <time>2018-01-08T15:30:18Z</time>
      </trkpt>
      <trkpt lat="46.08309" lon="4.59038">
        <ele>590</ele>
        <time>2018-01-08T15:30:18Z</time>
      </trkpt>
      <trkpt lat="46.08309" lon="4.59044">
        <ele>590</ele>
        <time>2018-01-08T15:30:34Z</time>
      </trkpt>
      <trkpt lat="46.08309" lon="4.59051">
        <ele>590</ele>
        <time>2018-01-08T15:30:34Z</time>
      </trkpt>
      <trkpt lat="46.08308" lon="4.59057">
        <ele>590</ele>
        <time>2018-01-08T15:30:34Z</time>
      </trkpt>
      <trkpt lat="46.08306" lon="4.59061">
        <ele>590</ele>
        <time>2018-01-08T15:30:34Z</time>
      </trkpt>
      <trkpt lat="46.083" lon="4.59067">
        <ele>590</ele>
        <time>2018-01-08T15:30:50Z</time>
      </trkpt>
      <trkpt lat="46.08296" lon="4.5907">
        <ele>590</ele>
        <time>2018-01-08T15:30:50Z</time>
      </trkpt>
      <trkpt lat="46.08293" lon="4.5907">
        <ele>590</ele>
        <time>2018-01-08T15:30:50Z</time>
      </trkpt>
      <trkpt lat="46.08291" lon="4.59069">
        <ele>590</ele>
        <time>2018-01-08T15:30:50Z</time>
      </trkpt>
      <trkpt lat="46.08287" lon="4.59067">
        <ele>591</ele>
        <time>2018-01-08T15:31:54Z</time>
      </trkpt>
      <trkpt lat="46.08287" lon="4.59064">
        <ele>591</ele>
        <time>2018-01-08T15:31:54Z</time>
      </trkpt>
      <trkpt lat="46.08286" lon="4.59063">
        <ele>591</ele>
        <time>2018-01-08T15:31:54Z</time>
      </trkpt>
      <trkpt lat="46.08284" lon="4.5906">
        <ele>591</ele>
        <time>2018-01-08T15:31:54Z</time>
      </trkpt>
      <trkpt lat="46.08282" lon="4.59059">
        <ele>592</ele>
        <time>2018-01-08T15:31:54Z</time>
      </trkpt>
      <trkpt lat="46.0828" lon="4.5906">
        <ele>592</ele>
        <time>2018-01-08T15:33:10Z</time>
      </trkpt>
      <trkpt lat="46.08278" lon="4.59061">
        <ele>592</ele>
        <time>2018-01-08T15:33:10Z</time>
      </trkpt>
      <trkpt lat="46.08274" lon="4.59064">
        <ele>592</ele>
        <time>2018-01-08T15:33:10Z</time>
      </trkpt>
      <trkpt lat="46.08269" lon="4.59066">
        <ele>592</ele>
        <time>2018-01-08T15:33:10Z</time>
      </trkpt>
      <trkpt lat="46.08268" lon="4.59067">
        <ele>592</ele>
        <time>2018-01-08T15:33:10Z</time>
      </trkpt>
      <trkpt lat="46.08265" lon="4.59067">
        <ele>592</ele>
        <time>2018-01-08T15:33:26Z</time>
      </trkpt>
      <trkpt lat="46.08261" lon="4.5907">
        <ele>592</ele>
        <time>2018-01-08T15:33:26Z</time>
      </trkpt>
      <trkpt lat="46.08256" lon="4.59072">
        <ele>592</ele>
        <time>2018-01-08T15:33:26Z</time>
      </trkpt>
      <trkpt lat="46.08251" lon="4.59075">
        <ele>592</ele>
        <time>2018-01-08T15:33:26Z</time>
      </trkpt>
      <trkpt lat="46.08246" lon="4.59077">
        <ele>591</ele>
        <time>2018-01-08T15:33:42Z</time>
      </trkpt>
      <trkpt lat="46.0824" lon="4.59079">
        <ele>590</ele>
        <time>2018-01-08T15:33:42Z</time>
      </trkpt>
      <trkpt lat="46.08235" lon="4.59081">
        <ele>589</ele>
        <time>2018-01-08T15:33:42Z</time>
      </trkpt>
      <trkpt lat="46.0823" lon="4.59086">
        <ele>588</ele>
        <time>2018-01-08T15:33:42Z</time>
      </trkpt>
      <trkpt lat="46.08226" lon="4.59092">
        <ele>587</ele>
        <time>2018-01-08T15:33:58Z</time>
      </trkpt>
      <trkpt lat="46.08222" lon="4.59097">
        <ele>586</ele>
        <time>2018-01-08T15:33:58Z</time>
      </trkpt>
      <trkpt lat="46.08218" lon="4.591">
        <ele>585</ele>
        <time>2018-01-08T15:33:58Z</time>
      </trkpt>
      <trkpt lat="46.08214" lon="4.59103">
        <ele>584</ele>
        <time>2018-01-08T15:33:58Z</time>
      </trkpt>
      <trkpt lat="46.08211" lon="4.59106">
        <ele>583</ele>
        <time>2018-01-08T15:34:14Z</time>
      </trkpt>
      <trkpt lat="46.08206" lon="4.59109">
        <ele>582</ele>
        <time>2018-01-08T15:34:14Z</time>
      </trkpt>
      <trkpt lat="46.08201" lon="4.59113">
        <ele>581</ele>
        <time>2018-01-08T15:34:14Z</time>
      </trkpt>
      <trkpt lat="46.08199" lon="4.59117">
        <ele>580</ele>
        <time>2018-01-08T15:34:14Z</time>
      </trkpt>
      <trkpt lat="46.08198" lon="4.59119">
        <ele>580</ele>
        <time>2018-01-08T15:34:30Z</time>
      </trkpt>
      <trkpt lat="46.08196" lon="4.59123">
        <ele>579</ele>
        <time>2018-01-08T15:34:30Z</time>
      </trkpt>
      <trkpt lat="46.08192" lon="4.59126">
        <ele>578</ele>
        <time>2018-01-08T15:34:30Z</time>
      </trkpt>
      <trkpt lat="46.08188" lon="4.5913">
        <ele>577</ele>
        <time>2018-01-08T15:34:30Z</time>
      </trkpt>
      <trkpt lat="46.08186" lon="4.59132">
        <ele>576</ele>
        <time>2018-01-08T15:34:46Z</time>
      </trkpt>
      <trkpt lat="46.08183" lon="4.59136">
        <ele>575</ele>
        <time>2018-01-08T15:34:46Z</time>
      </trkpt>
      <trkpt lat="46.08179" lon="4.59137">
        <ele>575</ele>
        <time>2018-01-08T15:34:46Z</time>
      </trkpt>
      <trkpt lat="46.08176" lon="4.59137">
        <ele>574</ele>
        <time>2018-01-08T15:34:46Z</time>
      </trkpt>
      <trkpt lat="46.08173" lon="4.59136">
        <ele>574</ele>
        <time>2018-01-08T15:35:02Z</time>
      </trkpt>
      <trkpt lat="46.08169" lon="4.59136">
        <ele>573</ele>
        <time>2018-01-08T15:35:02Z</time>
      </trkpt>
      <trkpt lat="46.08163" lon="4.59136">
        <ele>572</ele>
        <time>2018-01-08T15:35:02Z</time>
      </trkpt>
      <trkpt lat="46.08159" lon="4.59134">
        <ele>572</ele>
        <time>2018-01-08T15:35:02Z</time>
      </trkpt>
      <trkpt lat="46.08155" lon="4.59132">
        <ele>572</ele>
        <time>2018-01-08T15:35:22Z</time>
      </trkpt>
      <trkpt lat="46.08151" lon="4.5913">
        <ele>572</ele>
        <time>2018-01-08T15:35:22Z</time>
      </trkpt>
      <trkpt lat="46.0815" lon="4.59129">
        <ele>571</ele>
        <time>2018-01-08T15:35:22Z</time>
      </trkpt>
      <trkpt lat="46.08147" lon="4.59128">
        <ele>571</ele>
        <time>2018-01-08T15:35:22Z</time>
      </trkpt>
      <trkpt lat="46.08146" lon="4.59127">
        <ele>571</ele>
        <time>2018-01-08T15:35:22Z</time>
      </trkpt>
      <trkpt lat="46.08143" lon="4.59125">
        <ele>571</ele>
        <time>2018-01-08T15:35:38Z</time>
      </trkpt>
      <trkpt lat="46.0814" lon="4.59122">
        <ele>571</ele>
        <time>2018-01-08T15:35:38Z</time>
      </trkpt>
      <trkpt lat="46.08134" lon="4.5912">
        <ele>571</ele>
        <time>2018-01-08T15:35:38Z</time>
      </trkpt>
      <trkpt lat="46.08129" lon="4.59119">
        <ele>570</ele>
        <time>2018-01-08T15:35:38Z</time>
      </trkpt>
      <trkpt lat="46.08123" lon="4.59116">
        <ele>570</ele>
        <time>2018-01-08T15:35:54Z</time>
      </trkpt>
      <trkpt lat="46.08117" lon="4.59116">
        <ele>569</ele>
        <time>2018-01-08T15:35:54Z</time>
      </trkpt>
      <trkpt lat="46.08112" lon="4.59115">
        <ele>568</ele>
        <time>2018-01-08T15:35:54Z</time>
      </trkpt>
      <trkpt lat="46.08108" lon="4.59114">
        <ele>568</ele>
        <time>2018-01-08T15:35:54Z</time>
      </trkpt>
      <trkpt lat="46.08103" lon="4.59113">
        <ele>567</ele>
        <time>2018-01-08T15:36:10Z</time>
      </trkpt>
      <trkpt lat="46.081" lon="4.59112">
        <ele>567</ele>
        <time>2018-01-08T15:36:10Z</time>
      </trkpt>
      <trkpt lat="46.08097" lon="4.59113">
        <ele>567</ele>
        <time>2018-01-08T15:36:10Z</time>
      </trkpt>
      <trkpt lat="46.08093" lon="4.59113">
        <ele>566</ele>
        <time>2018-01-08T15:36:10Z</time>
      </trkpt>
      <trkpt lat="46.08087" lon="4.59113">
        <ele>565</ele>
        <time>2018-01-08T15:36:26Z</time>
      </trkpt>
      <trkpt lat="46.08084" lon="4.59113">
        <ele>565</ele>
        <time>2018-01-08T15:36:26Z</time>
      </trkpt>
      <trkpt lat="46.0808" lon="4.59113">
        <ele>564</ele>
        <time>2018-01-08T15:36:26Z</time>
      </trkpt>
      <trkpt lat="46.08076" lon="4.59114">
        <ele>564</ele>
        <time>2018-01-08T15:36:26Z</time>
      </trkpt>
      <trkpt lat="46.08072" lon="4.59116">
        <ele>563</ele>
        <time>2018-01-08T15:36:42Z</time>
      </trkpt>
      <trkpt lat="46.08069" lon="4.59117">
        <ele>563</ele>
        <time>2018-01-08T15:36:42Z</time>
      </trkpt>
      <trkpt lat="46.08066" lon="4.59119">
        <ele>562</ele>
        <time>2018-01-08T15:36:42Z</time>
      </trkpt>
      <trkpt lat="46.08062" lon="4.5912">
        <ele>561</ele>
        <time>2018-01-08T15:36:42Z</time>
      </trkpt>
      <trkpt lat="46.08058" lon="4.5912">
        <ele>561</ele>
        <time>2018-01-08T15:36:58Z</time>
      </trkpt>
      <trkpt lat="46.08053" lon="4.5912">
        <ele>560</ele>
        <time>2018-01-08T15:36:58Z</time>
      </trkpt>
      <trkpt lat="46.08049" lon="4.59119">
        <ele>560</ele>
        <time>2018-01-08T15:36:58Z</time>
      </trkpt>
      <trkpt lat="46.08045" lon="4.59117">
        <ele>560</ele>
        <time>2018-01-08T15:36:58Z</time>
      </trkpt>
      <trkpt lat="46.08036" lon="4.59116">
        <ele>559</ele>
        <time>2018-01-08T15:37:30Z</time>
      </trkpt>
      <trkpt lat="46.08035" lon="4.59114">
        <ele>559</ele>
        <time>2018-01-08T15:37:30Z</time>
      </trkpt>
      <trkpt lat="46.08031" lon="4.59111">
        <ele>559</ele>
        <time>2018-01-08T15:37:30Z</time>
      </trkpt>
      <trkpt lat="46.08027" lon="4.59107">
        <ele>558</ele>
        <time>2018-01-08T15:37:30Z</time>
      </trkpt>
      <trkpt lat="46.08022" lon="4.59103">
        <ele>558</ele>
        <time>2018-01-08T15:37:30Z</time>
      </trkpt>
      <trkpt lat="46.08016" lon="4.59096">
        <ele>557</ele>
        <time>2018-01-08T15:39:46Z</time>
      </trkpt>
      <trkpt lat="46.08015" lon="4.59096">
        <ele>557</ele>
        <time>2018-01-08T15:39:46Z</time>
      </trkpt>
      <trkpt lat="46.08012" lon="4.59094">
        <ele>557</ele>
        <time>2018-01-08T15:39:46Z</time>
      </trkpt>
      <trkpt lat="46.0801" lon="4.59095">
        <ele>556</ele>
        <time>2018-01-08T15:39:46Z</time>
      </trkpt>
      <trkpt lat="46.08007" lon="4.59099">
        <ele>556</ele>
        <time>2018-01-08T15:39:46Z</time>
      </trkpt>
      <trkpt lat="46.08006" lon="4.59102">
        <ele>556</ele>
        <time>2018-01-08T15:40:02Z</time>
      </trkpt>
      <trkpt lat="46.08009" lon="4.59107">
        <ele>556</ele>
        <time>2018-01-08T15:40:02Z</time>
      </trkpt>
      <trkpt lat="46.08011" lon="4.59114">
        <ele>556</ele>
        <time>2018-01-08T15:40:02Z</time>
      </trkpt>
      <trkpt lat="46.08014" lon="4.59121">
        <ele>556</ele>
        <time>2018-01-08T15:40:02Z</time>
      </trkpt>
      <trkpt lat="46.08018" lon="4.59127">
        <ele>556</ele>
        <time>2018-01-08T15:40:18Z</time>
      </trkpt>
      <trkpt lat="46.08021" lon="4.59132">
        <ele>556</ele>
        <time>2018-01-08T15:40:18Z</time>
      </trkpt>
      <trkpt lat="46.08024" lon="4.59138">
        <ele>556</ele>
        <time>2018-01-08T15:40:18Z</time>
      </trkpt>
      <trkpt lat="46.08025" lon="4.59143">
        <ele>556</ele>
        <time>2018-01-08T15:40:18Z</time>
      </trkpt>
      <trkpt lat="46.08025" lon="4.59147">
        <ele>556</ele>
        <time>2018-01-08T15:40:46Z</time>
      </trkpt>
      <trkpt lat="46.08025" lon="4.59149">
        <ele>556</ele>
        <time>2018-01-08T15:40:46Z</time>
      </trkpt>
      <trkpt lat="46.08024" lon="4.59149">
        <ele>556</ele>
        <time>2018-01-08T15:40:46Z</time>
      </trkpt>
      <trkpt lat="46.0802" lon="4.59151">
        <ele>555</ele>
        <time>2018-01-08T15:40:46Z</time>
      </trkpt>
      <trkpt lat="46.08016" lon="4.59153">
        <ele>555</ele>
        <time>2018-01-08T15:40:46Z</time>
      </trkpt>
      <trkpt lat="46.08012" lon="4.59154">
        <ele>555</ele>
        <time>2018-01-08T15:41:02Z</time>
      </trkpt>
      <trkpt lat="46.0801" lon="4.59155">
        <ele>555</ele>
        <time>2018-01-08T15:41:02Z</time>
      </trkpt>
      <trkpt lat="46.08008" lon="4.59154">
        <ele>555</ele>
        <time>2018-01-08T15:41:02Z</time>
      </trkpt>
      <trkpt lat="46.08002" lon="4.59156">
        <ele>554</ele>
        <time>2018-01-08T15:41:02Z</time>
      </trkpt>
      <trkpt lat="46.07995" lon="4.59157">
        <ele>554</ele>
        <time>2018-01-08T15:41:18Z</time>
      </trkpt>
      <trkpt lat="46.07989" lon="4.59159">
        <ele>554</ele>
        <time>2018-01-08T15:41:18Z</time>
      </trkpt>
      <trkpt lat="46.07985" lon="4.59162">
        <ele>554</ele>
        <time>2018-01-08T15:41:18Z</time>
      </trkpt>
      <trkpt lat="46.07979" lon="4.59165">
        <ele>554</ele>
        <time>2018-01-08T15:41:18Z</time>
      </trkpt>
      <trkpt lat="46.07973" lon="4.59166">
        <ele>554</ele>
        <time>2018-01-08T15:41:34Z</time>
      </trkpt>
      <trkpt lat="46.07968" lon="4.59168">
        <ele>554</ele>
        <time>2018-01-08T15:41:34Z</time>
      </trkpt>
      <trkpt lat="46.07963" lon="4.59169">
        <ele>554</ele>
        <time>2018-01-08T15:41:34Z</time>
      </trkpt>
      <trkpt lat="46.07959" lon="4.59173">
        <ele>554</ele>
        <time>2018-01-08T15:41:34Z</time>
      </trkpt>
      <trkpt lat="46.07955" lon="4.59182">
        <ele>554</ele>
        <time>2018-01-08T15:43:06Z</time>
      </trkpt>
      <trkpt lat="46.07954" lon="4.59176">
        <ele>554</ele>
        <time>2018-01-08T15:43:06Z</time>
      </trkpt>
      <trkpt lat="46.07948" lon="4.59174">
        <ele>554</ele>
        <time>2018-01-08T15:43:06Z</time>
      </trkpt>
      <trkpt lat="46.07942" lon="4.59171">
        <ele>554</ele>
        <time>2018-01-08T15:43:06Z</time>
      </trkpt>
      <trkpt lat="46.07937" lon="4.59169">
        <ele>554</ele>
        <time>2018-01-08T15:43:06Z</time>
      </trkpt>
      <trkpt lat="46.07934" lon="4.59166">
        <ele>554</ele>
        <time>2018-01-08T15:43:22Z</time>
      </trkpt>
      <trkpt lat="46.07932" lon="4.59163">
        <ele>554</ele>
        <time>2018-01-08T15:43:22Z</time>
      </trkpt>
      <trkpt lat="46.07928" lon="4.59161">
        <ele>554</ele>
        <time>2018-01-08T15:43:22Z</time>
      </trkpt>
      <trkpt lat="46.07921" lon="4.59153">
        <ele>553</ele>
        <time>2018-01-08T15:43:22Z</time>
      </trkpt>
      <trkpt lat="46.07916" lon="4.59149">
        <ele>553</ele>
        <time>2018-01-08T15:43:38Z</time>
      </trkpt>
      <trkpt lat="46.07909" lon="4.59143">
        <ele>552</ele>
        <time>2018-01-08T15:43:38Z</time>
      </trkpt>
      <trkpt lat="46.07905" lon="4.59139">
        <ele>551</ele>
        <time>2018-01-08T15:43:38Z</time>
      </trkpt>
      <trkpt lat="46.07898" lon="4.59137">
        <ele>550</ele>
        <time>2018-01-08T15:43:38Z</time>
      </trkpt>
      <trkpt lat="46.07886" lon="4.59138">
        <ele>549</ele>
        <time>2020-07-18T06:03:58Z</time>
      </trkpt>
      <trkpt lat="46.07874" lon="4.5914">
        <ele>549</ele>
        <time>2018-01-08T15:46:06Z</time>
      </trkpt>
      <trkpt lat="46.07886" lon="4.59138">
        <ele>549</ele>
        <time>2018-01-08T15:46:06Z</time>
      </trkpt>
      <trkpt lat="46.07898" lon="4.59137">
        <ele>551</ele>
        <time>2018-01-08T15:46:06Z</time>
      </trkpt>
      <trkpt lat="46.07905" lon="4.59139">
        <ele>551</ele>
        <time>2018-01-08T15:46:06Z</time>
      </trkpt>
      <trkpt lat="46.07909" lon="4.59143">
        <ele>552</ele>
        <time>2018-01-08T15:46:06Z</time>
      </trkpt>
      <trkpt lat="46.07916" lon="4.59149">
        <ele>553</ele>
        <time>2018-01-08T15:47:22Z</time>
      </trkpt>
      <trkpt lat="46.07921" lon="4.59154">
        <ele>553</ele>
        <time>2018-01-08T15:47:22Z</time>
      </trkpt>
      <trkpt lat="46.07925" lon="4.59157">
        <ele>553</ele>
        <time>2018-01-08T15:47:22Z</time>
      </trkpt>
      <trkpt lat="46.07925" lon="4.59157">
        <ele>553</ele>
        <time>2018-01-08T15:47:22Z</time>
      </trkpt>
      <trkpt lat="46.07929" lon="4.5916">
        <ele>554</ele>
        <time>2018-01-08T15:47:38Z</time>
      </trkpt>
      <trkpt lat="46.07932" lon="4.59163">
        <ele>554</ele>
        <time>2018-01-08T15:47:38Z</time>
      </trkpt>
      <trkpt lat="46.07937" lon="4.59169">
        <ele>554</ele>
        <time>2018-01-08T15:47:38Z</time>
      </trkpt>
      <trkpt lat="46.07943" lon="4.59171">
        <ele>554</ele>
        <time>2018-01-08T15:47:38Z</time>
      </trkpt>
      <trkpt lat="46.07948" lon="4.59173">
        <ele>554</ele>
        <time>2018-01-08T15:47:54Z</time>
      </trkpt>
      <trkpt lat="46.07951" lon="4.59176">
        <ele>554</ele>
        <time>2018-01-08T15:47:54Z</time>
      </trkpt>
      <trkpt lat="46.07956" lon="4.5918">
        <ele>554</ele>
        <time>2018-01-08T15:47:54Z</time>
      </trkpt>
      <trkpt lat="46.07955" lon="4.59187">
        <ele>554</ele>
        <time>2018-01-08T15:47:54Z</time>
      </trkpt>
      <trkpt lat="46.07955" lon="4.59194">
        <ele>554</ele>
        <time>2018-01-08T15:48:18Z</time>
      </trkpt>
      <trkpt lat="46.07953" lon="4.59198">
        <ele>554</ele>
        <time>2018-01-08T15:48:18Z</time>
      </trkpt>
      <trkpt lat="46.07953" lon="4.592">
        <ele>554</ele>
        <time>2018-01-08T15:48:18Z</time>
      </trkpt>
      <trkpt lat="46.07953" lon="4.59203">
        <ele>554</ele>
        <time>2018-01-08T15:48:18Z</time>
      </trkpt>
      <trkpt lat="46.07953" lon="4.59207">
        <ele>554</ele>
        <time>2018-01-08T15:48:18Z</time>
      </trkpt>
      <trkpt lat="46.07953" lon="4.59213">
        <ele>554</ele>
        <time>2018-01-08T15:48:34Z</time>
      </trkpt>
      <trkpt lat="46.07952" lon="4.59221">
        <ele>554</ele>
        <time>2018-01-08T15:48:34Z</time>
      </trkpt>
      <trkpt lat="46.07952" lon="4.59228">
        <ele>554</ele>
        <time>2018-01-08T15:48:34Z</time>
      </trkpt>
      <trkpt lat="46.0795" lon="4.59238">
        <ele>554</ele>
        <time>2018-01-08T15:48:34Z</time>
      </trkpt>
      <trkpt lat="46.0795" lon="4.59245">
        <ele>554</ele>
        <time>2018-01-08T15:48:50Z</time>
      </trkpt>
      <trkpt lat="46.0795" lon="4.5925">
        <ele>554</ele>
        <time>2018-01-08T15:48:50Z</time>
      </trkpt>
      <trkpt lat="46.0795" lon="4.59258">
        <ele>554</ele>
        <time>2018-01-08T15:48:50Z</time>
      </trkpt>
      <trkpt lat="46.0795" lon="4.59267">
        <ele>554</ele>
        <time>2018-01-08T15:48:50Z</time>
      </trkpt>
      <trkpt lat="46.07949" lon="4.59274">
        <ele>554</ele>
        <time>2018-01-08T15:49:06Z</time>
      </trkpt>
      <trkpt lat="46.07951" lon="4.59282">
        <ele>554</ele>
        <time>2018-01-08T15:49:06Z</time>
      </trkpt>
      <trkpt lat="46.07952" lon="4.59286">
        <ele>554</ele>
        <time>2018-01-08T15:49:06Z</time>
      </trkpt>
      <trkpt lat="46.07953" lon="4.59293">
        <ele>554</ele>
        <time>2018-01-08T15:49:06Z</time>
      </trkpt>
      <trkpt lat="46.0795" lon="4.59309">
        <ele>555</ele>
        <time>2018-01-08T15:49:30Z</time>
      </trkpt>
      <trkpt lat="46.0795" lon="4.59311">
        <ele>555</ele>
        <time>2018-01-08T15:49:30Z</time>
      </trkpt>
      <trkpt lat="46.07954" lon="4.59313">
        <ele>554</ele>
        <time>2018-01-08T15:49:30Z</time>
      </trkpt>
      <trkpt lat="46.07954" lon="4.59313">
        <ele>554</ele>
        <time>2018-01-08T15:49:30Z</time>
      </trkpt>
      <trkpt lat="46.0795" lon="4.59318">
        <ele>555</ele>
        <time>2018-01-08T15:49:30Z</time>
      </trkpt>
      <trkpt lat="46.07949" lon="4.59324">
        <ele>555</ele>
        <time>2018-01-08T15:49:46Z</time>
      </trkpt>
      <trkpt lat="46.07949" lon="4.5933">
        <ele>555</ele>
        <time>2018-01-08T15:49:46Z</time>
      </trkpt>
      <trkpt lat="46.0795" lon="4.59336">
        <ele>555</ele>
        <time>2018-01-08T15:49:46Z</time>
      </trkpt>
      <trkpt lat="46.0795" lon="4.59341">
        <ele>555</ele>
        <time>2018-01-08T15:49:46Z</time>
      </trkpt>
      <trkpt lat="46.07951" lon="4.59349">
        <ele>555</ele>
        <time>2018-01-08T15:50:02Z</time>
      </trkpt>
      <trkpt lat="46.0795" lon="4.59357">
        <ele>556</ele>
        <time>2018-01-08T15:50:02Z</time>
      </trkpt>
      <trkpt lat="46.07949" lon="4.59365">
        <ele>556</ele>
        <time>2018-01-08T15:50:02Z</time>
      </trkpt>
      <trkpt lat="46.0795" lon="4.59372">
        <ele>556</ele>
        <time>2018-01-08T15:50:02Z</time>
      </trkpt>
      <trkpt lat="46.07951" lon="4.5938">
        <ele>556</ele>
        <time>2018-01-08T15:50:18Z</time>
      </trkpt>
      <trkpt lat="46.0795" lon="4.59391">
        <ele>556</ele>
        <time>2018-01-08T15:50:18Z</time>
      </trkpt>
      <trkpt lat="46.07948" lon="4.59401">
        <ele>556</ele>
        <time>2018-01-08T15:50:18Z</time>
      </trkpt>
      <trkpt lat="46.07947" lon="4.5941">
        <ele>557</ele>
        <time>2018-01-08T15:50:18Z</time>
      </trkpt>
      <trkpt lat="46.07948" lon="4.59422">
        <ele>557</ele>
        <time>2018-01-08T15:50:34Z</time>
      </trkpt>
      <trkpt lat="46.07948" lon="4.59428">
        <ele>557</ele>
        <time>2018-01-08T15:50:34Z</time>
      </trkpt>
      <trkpt lat="46.07947" lon="4.59436">
        <ele>557</ele>
        <time>2018-01-08T15:50:34Z</time>
      </trkpt>
      <trkpt lat="46.07949" lon="4.59443">
        <ele>557</ele>
        <time>2018-01-08T15:50:34Z</time>
      </trkpt>
      <trkpt lat="46.07947" lon="4.59455">
        <ele>557</ele>
        <time>2018-01-08T15:50:50Z</time>
      </trkpt>
      <trkpt lat="46.07949" lon="4.59466">
        <ele>557</ele>
        <time>2018-01-08T15:50:50Z</time>
      </trkpt>
      <trkpt lat="46.07949" lon="4.59474">
        <ele>557</ele>
        <time>2018-01-08T15:50:50Z</time>
      </trkpt>
      <trkpt lat="46.07947" lon="4.5948">
        <ele>558</ele>
        <time>2018-01-08T15:50:50Z</time>
      </trkpt>
      <trkpt lat="46.07947" lon="4.59488">
        <ele>558</ele>
        <time>2018-01-08T15:51:06Z</time>
      </trkpt>
      <trkpt lat="46.07947" lon="4.59496">
        <ele>558</ele>
        <time>2018-01-08T15:51:06Z</time>
      </trkpt>
      <trkpt lat="46.07946" lon="4.59502">
        <ele>558</ele>
        <time>2018-01-08T15:51:06Z</time>
      </trkpt>
      <trkpt lat="46.07945" lon="4.59511">
        <ele>559</ele>
        <time>2018-01-08T15:51:06Z</time>
      </trkpt>
      <trkpt lat="46.07943" lon="4.59519">
        <ele>559</ele>
        <time>2018-01-08T15:51:22Z</time>
      </trkpt>
      <trkpt lat="46.07942" lon="4.59526">
        <ele>560</ele>
        <time>2018-01-08T15:51:22Z</time>
      </trkpt>
      <trkpt lat="46.0794" lon="4.59535">
        <ele>560</ele>
        <time>2018-01-08T15:51:22Z</time>
      </trkpt>
      <trkpt lat="46.07938" lon="4.59542">
        <ele>561</ele>
        <time>2018-01-08T15:51:22Z</time>
      </trkpt>
      <trkpt lat="46.07937" lon="4.59548">
        <ele>562</ele>
        <time>2018-01-08T15:51:38Z</time>
      </trkpt>
      <trkpt lat="46.07937" lon="4.59554">
        <ele>562</ele>
        <time>2018-01-08T15:51:38Z</time>
      </trkpt>
      <trkpt lat="46.07936" lon="4.59563">
        <ele>562</ele>
        <time>2018-01-08T15:51:38Z</time>
      </trkpt>
      <trkpt lat="46.07938" lon="4.59573">
        <ele>561</ele>
        <time>2018-01-08T15:51:38Z</time>
      </trkpt>
      <trkpt lat="46.07937" lon="4.59579">
        <ele>562</ele>
        <time>2018-01-08T15:51:54Z</time>
      </trkpt>
      <trkpt lat="46.07934" lon="4.59588">
        <ele>563</ele>
        <time>2018-01-08T15:51:54Z</time>
      </trkpt>
      <trkpt lat="46.07933" lon="4.59595">
        <ele>563</ele>
        <time>2018-01-08T15:51:54Z</time>
      </trkpt>
      <trkpt lat="46.0793" lon="4.59605">
        <ele>564</ele>
        <time>2018-01-08T15:51:54Z</time>
      </trkpt>
      <trkpt lat="46.0793" lon="4.59615">
        <ele>565</ele>
        <time>2018-01-08T15:52:10Z</time>
      </trkpt>
      <trkpt lat="46.07932" lon="4.59622">
        <ele>564</ele>
        <time>2018-01-08T15:52:10Z</time>
      </trkpt>
      <trkpt lat="46.0793" lon="4.59631">
        <ele>565</ele>
        <time>2018-01-08T15:52:10Z</time>
      </trkpt>
      <trkpt lat="46.07931" lon="4.59638">
        <ele>565</ele>
        <time>2018-01-08T15:52:10Z</time>
      </trkpt>
      <trkpt lat="46.07933" lon="4.59645">
        <ele>564</ele>
        <time>2018-01-08T15:52:26Z</time>
      </trkpt>
      <trkpt lat="46.07934" lon="4.59653">
        <ele>564</ele>
        <time>2018-01-08T15:52:26Z</time>
      </trkpt>
      <trkpt lat="46.07934" lon="4.59661">
        <ele>564</ele>
        <time>2018-01-08T15:52:26Z</time>
      </trkpt>
      <trkpt lat="46.07935" lon="4.59666">
        <ele>564</ele>
        <time>2018-01-08T15:52:26Z</time>
      </trkpt>
      <trkpt lat="46.07936" lon="4.59675">
        <ele>564</ele>
        <time>2018-01-08T15:52:42Z</time>
      </trkpt>
      <trkpt lat="46.07936" lon="4.59686">
        <ele>565</ele>
        <time>2018-01-08T15:52:42Z</time>
      </trkpt>
      <trkpt lat="46.07936" lon="4.59695">
        <ele>565</ele>
        <time>2018-01-08T15:52:42Z</time>
      </trkpt>
      <trkpt lat="46.07938" lon="4.59699">
        <ele>565</ele>
        <time>2018-01-08T15:52:42Z</time>
      </trkpt>
      <trkpt lat="46.07944" lon="4.59707">
        <ele>564</ele>
        <time>2018-01-08T15:52:58Z</time>
      </trkpt>
      <trkpt lat="46.07943" lon="4.59714">
        <ele>565</ele>
        <time>2018-01-08T15:52:58Z</time>
      </trkpt>
      <trkpt lat="46.07944" lon="4.5972">
        <ele>565</ele>
        <time>2018-01-08T15:52:58Z</time>
      </trkpt>
      <trkpt lat="46.07946" lon="4.59726">
        <ele>565</ele>
        <time>2018-01-08T15:52:58Z</time>
      </trkpt>
      <trkpt lat="46.07947" lon="4.59729">
        <ele>565</ele>
        <time>2018-01-08T15:53:14Z</time>
      </trkpt>
      <trkpt lat="46.0795" lon="4.59733">
        <ele>564</ele>
        <time>2018-01-08T15:53:14Z</time>
      </trkpt>
      <trkpt lat="46.07951" lon="4.59737">
        <ele>564</ele>
        <time>2018-01-08T15:53:14Z</time>
      </trkpt>
      <trkpt lat="46.07951" lon="4.59742">
        <ele>565</ele>
        <time>2018-01-08T15:53:14Z</time>
      </trkpt>
      <trkpt lat="46.07953" lon="4.59748">
        <ele>565</ele>
        <time>2018-01-08T15:53:30Z</time>
      </trkpt>
      <trkpt lat="46.07955" lon="4.5975">
        <ele>565</ele>
        <time>2018-01-08T15:53:30Z</time>
      </trkpt>
      <trkpt lat="46.07956" lon="4.59758">
        <ele>565</ele>
        <time>2018-01-08T15:53:30Z</time>
      </trkpt>
      <trkpt lat="46.07958" lon="4.59763">
        <ele>564</ele>
        <time>2018-01-08T15:53:30Z</time>
      </trkpt>
      <trkpt lat="46.07963" lon="4.59772">
        <ele>564</ele>
        <time>2018-01-08T15:53:46Z</time>
      </trkpt>
      <trkpt lat="46.07965" lon="4.59777">
        <ele>564</ele>
        <time>2018-01-08T15:53:46Z</time>
      </trkpt>
      <trkpt lat="46.07966" lon="4.59783">
        <ele>564</ele>
        <time>2018-01-08T15:53:46Z</time>
      </trkpt>
      <trkpt lat="46.07968" lon="4.59787">
        <ele>564</ele>
        <time>2018-01-08T15:53:46Z</time>
      </trkpt>
      <trkpt lat="46.07969" lon="4.59794">
        <ele>564</ele>
        <time>2018-01-08T15:54:02Z</time>
      </trkpt>
      <trkpt lat="46.07971" lon="4.59798">
        <ele>564</ele>
        <time>2018-01-08T15:54:02Z</time>
      </trkpt>
      <trkpt lat="46.07971" lon="4.59805">
        <ele>564</ele>
        <time>2018-01-08T15:54:02Z</time>
      </trkpt>
      <trkpt lat="46.07973" lon="4.59811">
        <ele>564</ele>
        <time>2018-01-08T15:54:02Z</time>
      </trkpt>
      <trkpt lat="46.07974" lon="4.59817">
        <ele>565</ele>
        <time>2018-01-08T15:54:18Z</time>
      </trkpt>
      <trkpt lat="46.07976" lon="4.59823">
        <ele>565</ele>
        <time>2018-01-08T15:54:18Z</time>
      </trkpt>
      <trkpt lat="46.07977" lon="4.59828">
        <ele>565</ele>
        <time>2018-01-08T15:54:18Z</time>
      </trkpt>
      <trkpt lat="46.07978" lon="4.59834">
        <ele>565</ele>
        <time>2018-01-08T15:54:18Z</time>
      </trkpt>
      <trkpt lat="46.07979" lon="4.59842">
        <ele>565</ele>
        <time>2018-01-08T15:54:34Z</time>
      </trkpt>
      <trkpt lat="46.0798" lon="4.59848">
        <ele>565</ele>
        <time>2018-01-08T15:54:34Z</time>
      </trkpt>
      <trkpt lat="46.07981" lon="4.59857">
        <ele>565</ele>
        <time>2018-01-08T15:54:34Z</time>
      </trkpt>
      <trkpt lat="46.07978" lon="4.59864">
        <ele>565</ele>
        <time>2018-01-08T15:54:34Z</time>
      </trkpt>
      <trkpt lat="46.07977" lon="4.59869">
        <ele>565</ele>
        <time>2018-01-08T15:54:50Z</time>
      </trkpt>
      <trkpt lat="46.07978" lon="4.59876">
        <ele>565</ele>
        <time>2018-01-08T15:54:50Z</time>
      </trkpt>
      <trkpt lat="46.07976" lon="4.59883">
        <ele>565</ele>
        <time>2018-01-08T15:54:50Z</time>
      </trkpt>
      <trkpt lat="46.07976" lon="4.59888">
        <ele>565</ele>
        <time>2018-01-08T15:54:50Z</time>
      </trkpt>
      <trkpt lat="46.07973" lon="4.59894">
        <ele>565</ele>
        <time>2018-01-08T15:55:06Z</time>
      </trkpt>
      <trkpt lat="46.07971" lon="4.59898">
        <ele>565</ele>
        <time>2018-01-08T15:55:06Z</time>
      </trkpt>
      <trkpt lat="46.0797" lon="4.59901">
        <ele>566</ele>
        <time>2018-01-08T15:55:06Z</time>
      </trkpt>
      <trkpt lat="46.07969" lon="4.59907">
        <ele>566</ele>
        <time>2018-01-08T15:55:06Z</time>
      </trkpt>
      <trkpt lat="46.07966" lon="4.59911">
        <ele>566</ele>
        <time>2018-01-08T15:55:30Z</time>
      </trkpt>
      <trkpt lat="46.07963" lon="4.59915">
        <ele>566</ele>
        <time>2018-01-08T15:55:30Z</time>
      </trkpt>
      <trkpt lat="46.07963" lon="4.59919">
        <ele>566</ele>
        <time>2018-01-08T15:55:30Z</time>
      </trkpt>
      <trkpt lat="46.07962" lon="4.5992">
        <ele>566</ele>
        <time>2018-01-08T15:55:30Z</time>
      </trkpt>
      <trkpt lat="46.07961" lon="4.59923">
        <ele>566</ele>
        <time>2018-01-08T15:55:30Z</time>
      </trkpt>
      <trkpt lat="46.07957" lon="4.59924">
        <ele>566</ele>
        <time>2018-01-08T15:55:46Z</time>
      </trkpt>
      <trkpt lat="46.07956" lon="4.59926">
        <ele>566</ele>
        <time>2018-01-08T15:55:46Z</time>
      </trkpt>
      <trkpt lat="46.07953" lon="4.59928">
        <ele>566</ele>
        <time>2018-01-08T15:55:46Z</time>
      </trkpt>
      <trkpt lat="46.07948" lon="4.59934">
        <ele>565</ele>
        <time>2018-01-08T15:55:46Z</time>
      </trkpt>
      <trkpt lat="46.07945" lon="4.59936">
        <ele>565</ele>
        <time>2018-01-08T15:56:02Z</time>
      </trkpt>
      <trkpt lat="46.07942" lon="4.59938">
        <ele>565</ele>
        <time>2018-01-08T15:56:02Z</time>
      </trkpt>
      <trkpt lat="46.07939" lon="4.59941">
        <ele>565</ele>
        <time>2018-01-08T15:56:02Z</time>
      </trkpt>
      <trkpt lat="46.07936" lon="4.59945">
        <ele>564</ele>
        <time>2018-01-08T15:56:02Z</time>
      </trkpt>
      <trkpt lat="46.07933" lon="4.59949">
        <ele>564</ele>
        <time>2018-01-08T15:56:18Z</time>
      </trkpt>
      <trkpt lat="46.07931" lon="4.59951">
        <ele>564</ele>
        <time>2018-01-08T15:56:18Z</time>
      </trkpt>
      <trkpt lat="46.07928" lon="4.59957">
        <ele>563</ele>
        <time>2018-01-08T15:56:18Z</time>
      </trkpt>
      <trkpt lat="46.07927" lon="4.5996">
        <ele>563</ele>
        <time>2018-01-08T15:56:18Z</time>
      </trkpt>
      <trkpt lat="46.07926" lon="4.59963">
        <ele>562</ele>
        <time>2018-01-08T15:56:34Z</time>
      </trkpt>
      <trkpt lat="46.07926" lon="4.59967">
        <ele>562</ele>
        <time>2018-01-08T15:56:34Z</time>
      </trkpt>
      <trkpt lat="46.07925" lon="4.59973">
        <ele>561</ele>
        <time>2018-01-08T15:56:34Z</time>
      </trkpt>
      <trkpt lat="46.07923" lon="4.59979">
        <ele>560</ele>
        <time>2018-01-08T15:56:34Z</time>
      </trkpt>
      <trkpt lat="46.07918" lon="4.59995">
        <ele>558</ele>
        <time>2018-01-08T15:57:18Z</time>
      </trkpt>
      <trkpt lat="46.07918" lon="4.59997">
        <ele>558</ele>
        <time>2018-01-08T15:57:18Z</time>
      </trkpt>
      <trkpt lat="46.07919" lon="4.59997">
        <ele>558</ele>
        <time>2018-01-08T15:57:18Z</time>
      </trkpt>
      <trkpt lat="46.07919" lon="4.59997">
        <ele>558</ele>
        <time>2018-01-08T15:57:18Z</time>
      </trkpt>
      <trkpt lat="46.07918" lon="4.59999">
        <ele>557</ele>
        <time>2018-01-08T15:57:18Z</time>
      </trkpt>
      <trkpt lat="46.0792" lon="4.6">
        <ele>557</ele>
        <time>2018-01-08T15:59:18Z</time>
      </trkpt>
      <trkpt lat="46.0792" lon="4.6">
        <ele>557</ele>
        <time>2018-01-08T15:59:18Z</time>
      </trkpt>
      <trkpt lat="46.0792" lon="4.60002">
        <ele>557</ele>
        <time>2018-01-08T15:59:18Z</time>
      </trkpt>
      <trkpt lat="46.07922" lon="4.60007">
        <ele>557</ele>
        <time>2018-01-08T15:59:18Z</time>
      </trkpt>
      <trkpt lat="46.07923" lon="4.60013">
        <ele>556</ele>
        <time>2018-01-08T15:59:18Z</time>
      </trkpt>
      <trkpt lat="46.07926" lon="4.60016">
        <ele>556</ele>
        <time>2018-01-08T15:59:34Z</time>
      </trkpt>
      <trkpt lat="46.07929" lon="4.60022">
        <ele>556</ele>
        <time>2018-01-08T15:59:34Z</time>
      </trkpt>
      <trkpt lat="46.07933" lon="4.60029">
        <ele>556</ele>
        <time>2018-01-08T15:59:34Z</time>
      </trkpt>
      <trkpt lat="46.07934" lon="4.60035">
        <ele>555</ele>
        <time>2018-01-08T15:59:34Z</time>
      </trkpt>
      <trkpt lat="46.07937" lon="4.60043">
        <ele>555</ele>
        <time>2018-01-08T15:59:50Z</time>
      </trkpt>
      <trkpt lat="46.0794" lon="4.60048">
        <ele>554</ele>
        <time>2018-01-08T15:59:50Z</time>
      </trkpt>
      <trkpt lat="46.07942" lon="4.60053">
        <ele>554</ele>
        <time>2018-01-08T15:59:50Z</time>
      </trkpt>
      <trkpt lat="46.07944" lon="4.60059">
        <ele>554</ele>
        <time>2018-01-08T15:59:50Z</time>
      </trkpt>
      <trkpt lat="46.07946" lon="4.60065">
        <ele>553</ele>
        <time>2018-01-08T16:00:06Z</time>
      </trkpt>
      <trkpt lat="46.07948" lon="4.60071">
        <ele>553</ele>
        <time>2018-01-08T16:00:06Z</time>
      </trkpt>
      <trkpt lat="46.07949" lon="4.60076">
        <ele>553</ele>
        <time>2018-01-08T16:00:06Z</time>
      </trkpt>
      <trkpt lat="46.07949" lon="4.60082">
        <ele>552</ele>
        <time>2018-01-08T16:00:06Z</time>
      </trkpt>
      <trkpt lat="46.07952" lon="4.60086">
        <ele>552</ele>
        <time>2018-01-08T16:00:22Z</time>
      </trkpt>
      <trkpt lat="46.07956" lon="4.60091">
        <ele>552</ele>
        <time>2018-01-08T16:00:22Z</time>
      </trkpt>
      <trkpt lat="46.0796" lon="4.60099">
        <ele>552</ele>
        <time>2018-01-08T16:00:22Z</time>
      </trkpt>
      <trkpt lat="46.07963" lon="4.60104">
        <ele>552</ele>
        <time>2018-01-08T16:00:22Z</time>
      </trkpt>
      <trkpt lat="46.07966" lon="4.60109">
        <ele>551</ele>
        <time>2018-01-08T16:00:38Z</time>
      </trkpt>
      <trkpt lat="46.07969" lon="4.60116">
        <ele>551</ele>
        <time>2018-01-08T16:00:38Z</time>
      </trkpt>
      <trkpt lat="46.07971" lon="4.60124">
        <ele>550</ele>
        <time>2018-01-08T16:00:38Z</time>
      </trkpt>
      <trkpt lat="46.07975" lon="4.60131">
        <ele>550</ele>
        <time>2018-01-08T16:00:38Z</time>
      </trkpt>
      <trkpt lat="46.07978" lon="4.60136">
        <ele>550</ele>
        <time>2018-01-08T16:00:54Z</time>
      </trkpt>
      <trkpt lat="46.07979" lon="4.60142">
        <ele>549</ele>
        <time>2018-01-08T16:00:54Z</time>
      </trkpt>
      <trkpt lat="46.07979" lon="4.60148">
        <ele>549</ele>
        <time>2018-01-08T16:00:54Z</time>
      </trkpt>
      <trkpt lat="46.07979" lon="4.60154">
        <ele>548</ele>
        <time>2018-01-08T16:00:54Z</time>
      </trkpt>
      <trkpt lat="46.07981" lon="4.60162">
        <ele>547</ele>
        <time>2018-01-08T16:01:10Z</time>
      </trkpt>
      <trkpt lat="46.07984" lon="4.60168">
        <ele>547</ele>
        <time>2018-01-08T16:01:10Z</time>
      </trkpt>
      <trkpt lat="46.07986" lon="4.60176">
        <ele>547</ele>
        <time>2018-01-08T16:01:10Z</time>
      </trkpt>
      <trkpt lat="46.07988" lon="4.60182">
        <ele>547</ele>
        <time>2018-01-08T16:01:10Z</time>
      </trkpt>
      <trkpt lat="46.0799" lon="4.60189">
        <ele>547</ele>
        <time>2018-01-08T16:01:26Z</time>
      </trkpt>
      <trkpt lat="46.07992" lon="4.60197">
        <ele>547</ele>
        <time>2018-01-08T16:01:26Z</time>
      </trkpt>
      <trkpt lat="46.07995" lon="4.60205">
        <ele>547</ele>
        <time>2018-01-08T16:01:26Z</time>
      </trkpt>
      <trkpt lat="46.07998" lon="4.60211">
        <ele>547</ele>
        <time>2018-01-08T16:01:26Z</time>
      </trkpt>
      <trkpt lat="46.08" lon="4.60217">
        <ele>547</ele>
        <time>2018-01-08T16:01:42Z</time>
      </trkpt>
      <trkpt lat="46.08001" lon="4.60224">
        <ele>547</ele>
        <time>2018-01-08T16:01:42Z</time>
      </trkpt>
      <trkpt lat="46.08002" lon="4.6023">
        <ele>546</ele>
        <time>2018-01-08T16:01:42Z</time>
      </trkpt>
      <trkpt lat="46.08003" lon="4.6024">
        <ele>546</ele>
        <time>2018-01-08T16:01:42Z</time>
      </trkpt>
      <trkpt lat="46.08004" lon="4.60246">
        <ele>546</ele>
        <time>2018-01-08T16:01:58Z</time>
      </trkpt>
      <trkpt lat="46.08003" lon="4.60251">
        <ele>545</ele>
        <time>2018-01-08T16:01:58Z</time>
      </trkpt>
      <trkpt lat="46.08003" lon="4.60259">
        <ele>545</ele>
        <time>2018-01-08T16:01:58Z</time>
      </trkpt>
      <trkpt lat="46.08002" lon="4.60267">
        <ele>545</ele>
        <time>2018-01-08T16:01:58Z</time>
      </trkpt>
      <trkpt lat="46.08002" lon="4.60273">
        <ele>545</ele>
        <time>2018-01-08T16:02:14Z</time>
      </trkpt>
      <trkpt lat="46.07999" lon="4.6028">
        <ele>545</ele>
        <time>2018-01-08T16:02:14Z</time>
      </trkpt>
      <trkpt lat="46.07995" lon="4.60288">
        <ele>544</ele>
        <time>2018-01-08T16:02:14Z</time>
      </trkpt>
      <trkpt lat="46.07993" lon="4.60295">
        <ele>544</ele>
        <time>2018-01-08T16:02:14Z</time>
      </trkpt>
      <trkpt lat="46.07992" lon="4.60304">
        <ele>544</ele>
        <time>2018-01-08T16:02:30Z</time>
      </trkpt>
      <trkpt lat="46.07991" lon="4.60309">
        <ele>544</ele>
        <time>2018-01-08T16:02:30Z</time>
      </trkpt>
      <trkpt lat="46.07987" lon="4.60314">
        <ele>543</ele>
        <time>2018-01-08T16:02:30Z</time>
      </trkpt>
      <trkpt lat="46.07985" lon="4.60316">
        <ele>542</ele>
        <time>2018-01-08T16:02:30Z</time>
      </trkpt>
      <trkpt lat="46.07981" lon="4.60321">
        <ele>542</ele>
        <time>2018-01-08T16:02:46Z</time>
      </trkpt>
      <trkpt lat="46.07977" lon="4.60328">
        <ele>541</ele>
        <time>2018-01-08T16:02:46Z</time>
      </trkpt>
      <trkpt lat="46.07973" lon="4.60333">
        <ele>540</ele>
        <time>2018-01-08T16:02:46Z</time>
      </trkpt>
      <trkpt lat="46.07968" lon="4.60341">
        <ele>539</ele>
        <time>2018-01-08T16:02:46Z</time>
      </trkpt>
      <trkpt lat="46.07966" lon="4.60346">
        <ele>539</ele>
        <time>2018-01-08T16:03:02Z</time>
      </trkpt>
      <trkpt lat="46.07961" lon="4.60351">
        <ele>538</ele>
        <time>2018-01-08T16:03:02Z</time>
      </trkpt>
      <trkpt lat="46.07957" lon="4.60357">
        <ele>538</ele>
        <time>2018-01-08T16:03:02Z</time>
      </trkpt>
      <trkpt lat="46.07955" lon="4.60361">
        <ele>538</ele>
        <time>2018-01-08T16:03:02Z</time>
      </trkpt>
      <trkpt lat="46.07954" lon="4.60363">
        <ele>537</ele>
        <time>2018-01-08T16:03:26Z</time>
      </trkpt>
      <trkpt lat="46.07953" lon="4.60363">
        <ele>537</ele>
        <time>2018-01-08T16:03:26Z</time>
      </trkpt>
      <trkpt lat="46.0795" lon="4.60367">
        <ele>537</ele>
        <time>2018-01-08T16:03:26Z</time>
      </trkpt>
      <trkpt lat="46.07946" lon="4.60374">
        <ele>536</ele>
        <time>2018-01-08T16:03:26Z</time>
      </trkpt>
      <trkpt lat="46.07943" lon="4.60382">
        <ele>536</ele>
        <time>2018-01-08T16:03:42Z</time>
      </trkpt>
      <trkpt lat="46.07938" lon="4.60389">
        <ele>535</ele>
        <time>2018-01-08T16:03:42Z</time>
      </trkpt>
      <trkpt lat="46.07935" lon="4.60397">
        <ele>535</ele>
        <time>2018-01-08T16:03:42Z</time>
      </trkpt>
      <trkpt lat="46.07931" lon="4.60405">
        <ele>534</ele>
        <time>2018-01-08T16:03:42Z</time>
      </trkpt>
      <trkpt lat="46.07928" lon="4.60413">
        <ele>534</ele>
        <time>2018-01-08T16:03:58Z</time>
      </trkpt>
      <trkpt lat="46.07926" lon="4.6042">
        <ele>534</ele>
        <time>2018-01-08T16:03:58Z</time>
      </trkpt>
      <trkpt lat="46.07925" lon="4.60428">
        <ele>534</ele>
        <time>2018-01-08T16:03:58Z</time>
      </trkpt>
      <trkpt lat="46.07924" lon="4.60436">
        <ele>533</ele>
        <time>2018-01-08T16:03:58Z</time>
      </trkpt>
      <trkpt lat="46.07924" lon="4.60444">
        <ele>534</ele>
        <time>2018-01-08T16:04:14Z</time>
      </trkpt>
      <trkpt lat="46.07924" lon="4.60452">
        <ele>534</ele>
        <time>2018-01-08T16:04:14Z</time>
      </trkpt>
      <trkpt lat="46.07924" lon="4.6046">
        <ele>534</ele>
        <time>2018-01-08T16:04:14Z</time>
      </trkpt>
      <trkpt lat="46.07925" lon="4.60468">
        <ele>535</ele>
        <time>2018-01-08T16:04:14Z</time>
      </trkpt>
      <trkpt lat="46.07926" lon="4.60475">
        <ele>535</ele>
        <time>2018-01-08T16:04:30Z</time>
      </trkpt>
      <trkpt lat="46.07927" lon="4.60483">
        <ele>536</ele>
        <time>2018-01-08T16:04:30Z</time>
      </trkpt>
      <trkpt lat="46.07929" lon="4.6049">
        <ele>536</ele>
        <time>2018-01-08T16:04:30Z</time>
      </trkpt>
      <trkpt lat="46.07931" lon="4.60496">
        <ele>537</ele>
        <time>2018-01-08T16:04:30Z</time>
      </trkpt>
      <trkpt lat="46.07932" lon="4.60502">
        <ele>537</ele>
        <time>2018-01-08T16:04:46Z</time>
      </trkpt>
      <trkpt lat="46.07934" lon="4.60507">
        <ele>537</ele>
        <time>2018-01-08T16:04:46Z</time>
      </trkpt>
      <trkpt lat="46.07936" lon="4.60511">
        <ele>538</ele>
        <time>2018-01-08T16:04:46Z</time>
      </trkpt>
      <trkpt lat="46.07938" lon="4.60517">
        <ele>538</ele>
        <time>2018-01-08T16:04:46Z</time>
      </trkpt>
      <trkpt lat="46.0794" lon="4.60525">
        <ele>538</ele>
        <time>2018-01-08T16:05:02Z</time>
      </trkpt>
      <trkpt lat="46.07941" lon="4.60533">
        <ele>538</ele>
        <time>2018-01-08T16:05:02Z</time>
      </trkpt>
      <trkpt lat="46.07944" lon="4.6054">
        <ele>539</ele>
        <time>2018-01-08T16:05:02Z</time>
      </trkpt>
      <trkpt lat="46.07946" lon="4.60548">
        <ele>539</ele>
        <time>2018-01-08T16:05:02Z</time>
      </trkpt>
      <trkpt lat="46.07949" lon="4.60552">
        <ele>539</ele>
        <time>2018-01-08T16:05:18Z</time>
      </trkpt>
      <trkpt lat="46.07952" lon="4.60559">
        <ele>540</ele>
        <time>2018-01-08T16:05:18Z</time>
      </trkpt>
      <trkpt lat="46.07953" lon="4.60566">
        <ele>540</ele>
        <time>2018-01-08T16:05:18Z</time>
      </trkpt>
      <trkpt lat="46.07954" lon="4.60573">
        <ele>540</ele>
        <time>2018-01-08T16:05:18Z</time>
      </trkpt>
      <trkpt lat="46.07955" lon="4.60579">
        <ele>541</ele>
        <time>2018-01-08T16:05:34Z</time>
      </trkpt>
      <trkpt lat="46.07957" lon="4.60587">
        <ele>541</ele>
        <time>2018-01-08T16:05:34Z</time>
      </trkpt>
      <trkpt lat="46.07959" lon="4.60596">
        <ele>541</ele>
        <time>2018-01-08T16:05:34Z</time>
      </trkpt>
      <trkpt lat="46.07961" lon="4.60601">
        <ele>541</ele>
        <time>2018-01-08T16:05:34Z</time>
      </trkpt>
      <trkpt lat="46.07962" lon="4.60607">
        <ele>541</ele>
        <time>2018-01-08T16:05:50Z</time>
      </trkpt>
      <trkpt lat="46.07964" lon="4.60613">
        <ele>541</ele>
        <time>2018-01-08T16:05:50Z</time>
      </trkpt>
      <trkpt lat="46.07965" lon="4.6062">
        <ele>541</ele>
        <time>2018-01-08T16:05:50Z</time>
      </trkpt>
      <trkpt lat="46.07968" lon="4.60626">
        <ele>541</ele>
        <time>2018-01-08T16:05:50Z</time>
      </trkpt>
      <trkpt lat="46.07969" lon="4.6063">
        <ele>542</ele>
        <time>2018-01-08T16:06:06Z</time>
      </trkpt>
      <trkpt lat="46.07972" lon="4.60635">
        <ele>542</ele>
        <time>2018-01-08T16:06:06Z</time>
      </trkpt>
      <trkpt lat="46.07973" lon="4.6064">
        <ele>542</ele>
        <time>2018-01-08T16:06:06Z</time>
      </trkpt>
      <trkpt lat="46.07976" lon="4.60646">
        <ele>543</ele>
        <time>2018-01-08T16:06:06Z</time>
      </trkpt>
      <trkpt lat="46.0798" lon="4.6065">
        <ele>543</ele>
        <time>2018-01-08T16:06:22Z</time>
      </trkpt>
      <trkpt lat="46.07983" lon="4.60653">
        <ele>544</ele>
        <time>2018-01-08T16:06:22Z</time>
      </trkpt>
      <trkpt lat="46.07986" lon="4.60658">
        <ele>545</ele>
        <time>2018-01-08T16:06:22Z</time>
      </trkpt>
      <trkpt lat="46.0799" lon="4.60662">
        <ele>546</ele>
        <time>2018-01-08T16:06:22Z</time>
      </trkpt>
      <trkpt lat="46.07994" lon="4.60668">
        <ele>546</ele>
        <time>2018-01-08T16:06:38Z</time>
      </trkpt>
      <trkpt lat="46.07998" lon="4.60671">
        <ele>547</ele>
        <time>2018-01-08T16:06:38Z</time>
      </trkpt>
      <trkpt lat="46.08003" lon="4.60674">
        <ele>548</ele>
        <time>2018-01-08T16:06:38Z</time>
      </trkpt>
      <trkpt lat="46.08008" lon="4.60678">
        <ele>548</ele>
        <time>2018-01-08T16:06:38Z</time>
      </trkpt>
      <trkpt lat="46.08014" lon="4.60678">
        <ele>548</ele>
        <time>2018-01-08T16:06:54Z</time>
      </trkpt>
      <trkpt lat="46.0802" lon="4.60677">
        <ele>548</ele>
        <time>2018-01-08T16:06:54Z</time>
      </trkpt>
      <trkpt lat="46.08023" lon="4.60679">
        <ele>548</ele>
        <time>2018-01-08T16:06:54Z</time>
      </trkpt>
      <trkpt lat="46.08027" lon="4.60679">
        <ele>549</ele>
        <time>2018-01-08T16:06:54Z</time>
      </trkpt>
      <trkpt lat="46.08035" lon="4.60677">
        <ele>549</ele>
        <time>2018-01-08T16:07:10Z</time>
      </trkpt>
      <trkpt lat="46.0804" lon="4.60677">
        <ele>550</ele>
        <time>2018-01-08T16:07:10Z</time>
      </trkpt>
      <trkpt lat="46.08044" lon="4.60677">
        <ele>550</ele>
        <time>2018-01-08T16:07:10Z</time>
      </trkpt>
      <trkpt lat="46.08049" lon="4.60676">
        <ele>551</ele>
        <time>2018-01-08T16:07:10Z</time>
      </trkpt>
      <trkpt lat="46.08054" lon="4.60676">
        <ele>551</ele>
        <time>2018-01-08T16:07:26Z</time>
      </trkpt>
      <trkpt lat="46.08059" lon="4.60676">
        <ele>551</ele>
        <time>2018-01-08T16:07:26Z</time>
      </trkpt>
      <trkpt lat="46.08063" lon="4.60675">
        <ele>552</ele>
        <time>2018-01-08T16:07:26Z</time>
      </trkpt>
      <trkpt lat="46.08068" lon="4.60672">
        <ele>553</ele>
        <time>2018-01-08T16:07:26Z</time>
      </trkpt>
      <trkpt lat="46.08072" lon="4.60671">
        <ele>554</ele>
        <time>2018-01-08T16:07:42Z</time>
      </trkpt>
      <trkpt lat="46.08077" lon="4.60668">
        <ele>555</ele>
        <time>2018-01-08T16:07:42Z</time>
      </trkpt>
      <trkpt lat="46.08081" lon="4.60666">
        <ele>556</ele>
        <time>2018-01-08T16:07:42Z</time>
      </trkpt>
      <trkpt lat="46.08085" lon="4.60665">
        <ele>556</ele>
        <time>2018-01-08T16:07:42Z</time>
      </trkpt>
      <trkpt lat="46.08089" lon="4.60665">
        <ele>557</ele>
        <time>2018-01-08T16:07:58Z</time>
      </trkpt>
      <trkpt lat="46.08092" lon="4.60665">
        <ele>557</ele>
        <time>2018-01-08T16:07:58Z</time>
      </trkpt>
      <trkpt lat="46.08097" lon="4.60662">
        <ele>557</ele>
        <time>2018-01-08T16:07:58Z</time>
      </trkpt>
      <trkpt lat="46.081" lon="4.6066">
        <ele>558</ele>
        <time>2018-01-08T16:07:58Z</time>
      </trkpt>
      <trkpt lat="46.08106" lon="4.60658">
        <ele>558</ele>
        <time>2018-01-08T16:08:14Z</time>
      </trkpt>
      <trkpt lat="46.08111" lon="4.60658">
        <ele>559</ele>
        <time>2018-01-08T16:08:14Z</time>
      </trkpt>
      <trkpt lat="46.08117" lon="4.60655">
        <ele>560</ele>
        <time>2018-01-08T16:08:14Z</time>
      </trkpt>
      <trkpt lat="46.08121" lon="4.60654">
        <ele>560</ele>
        <time>2018-01-08T16:08:14Z</time>
      </trkpt>
      <trkpt lat="46.08124" lon="4.60652">
        <ele>561</ele>
        <time>2018-01-08T16:08:30Z</time>
      </trkpt>
      <trkpt lat="46.08129" lon="4.6065">
        <ele>561</ele>
        <time>2018-01-08T16:08:30Z</time>
      </trkpt>
      <trkpt lat="46.08134" lon="4.60649">
        <ele>562</ele>
        <time>2018-01-08T16:08:30Z</time>
      </trkpt>
      <trkpt lat="46.08138" lon="4.60647">
        <ele>562</ele>
        <time>2018-01-08T16:08:30Z</time>
      </trkpt>
      <trkpt lat="46.08142" lon="4.60646">
        <ele>563</ele>
        <time>2018-01-08T16:08:46Z</time>
      </trkpt>
      <trkpt lat="46.08149" lon="4.60644">
        <ele>563</ele>
        <time>2018-01-08T16:08:46Z</time>
      </trkpt>
      <trkpt lat="46.08154" lon="4.60645">
        <ele>563</ele>
        <time>2018-01-08T16:08:46Z</time>
      </trkpt>
      <trkpt lat="46.08158" lon="4.60647">
        <ele>563</ele>
        <time>2018-01-08T16:08:46Z</time>
      </trkpt>
      <trkpt lat="46.08164" lon="4.60647">
        <ele>564</ele>
        <time>2018-01-08T16:09:02Z</time>
      </trkpt>
      <trkpt lat="46.08169" lon="4.60648">
        <ele>564</ele>
        <time>2018-01-08T16:09:02Z</time>
      </trkpt>
      <trkpt lat="46.08174" lon="4.60648">
        <ele>564</ele>
        <time>2018-01-08T16:09:02Z</time>
      </trkpt>
      <trkpt lat="46.08179" lon="4.6065">
        <ele>565</ele>
        <time>2018-01-08T16:09:02Z</time>
      </trkpt>
      <trkpt lat="46.08185" lon="4.60652">
        <ele>565</ele>
        <time>2018-01-08T16:09:18Z</time>
      </trkpt>
      <trkpt lat="46.0819" lon="4.60655">
        <ele>565</ele>
        <time>2018-01-08T16:09:18Z</time>
      </trkpt>
      <trkpt lat="46.08193" lon="4.60657">
        <ele>565</ele>
        <time>2018-01-08T16:09:18Z</time>
      </trkpt>
      <trkpt lat="46.08199" lon="4.60658">
        <ele>565</ele>
        <time>2018-01-08T16:09:18Z</time>
      </trkpt>
      <trkpt lat="46.08205" lon="4.60658">
        <ele>566</ele>
        <time>2018-01-08T16:09:34Z</time>
      </trkpt>
      <trkpt lat="46.08209" lon="4.60659">
        <ele>566</ele>
        <time>2018-01-08T16:09:34Z</time>
      </trkpt>
      <trkpt lat="46.08215" lon="4.6066">
        <ele>567</ele>
        <time>2018-01-08T16:09:34Z</time>
      </trkpt>
      <trkpt lat="46.08219" lon="4.60662">
        <ele>567</ele>
        <time>2018-01-08T16:09:34Z</time>
      </trkpt>
      <trkpt lat="46.08224" lon="4.60664">
        <ele>567</ele>
        <time>2018-01-08T16:09:50Z</time>
      </trkpt>
      <trkpt lat="46.0823" lon="4.60665">
        <ele>568</ele>
        <time>2018-01-08T16:09:50Z</time>
      </trkpt>
      <trkpt lat="46.08234" lon="4.60665">
        <ele>568</ele>
        <time>2018-01-08T16:09:50Z</time>
      </trkpt>
      <trkpt lat="46.08239" lon="4.60667">
        <ele>569</ele>
        <time>2018-01-08T16:09:50Z</time>
      </trkpt>
      <trkpt lat="46.08243" lon="4.60667">
        <ele>569</ele>
        <time>2018-01-08T16:10:06Z</time>
      </trkpt>
      <trkpt lat="46.08248" lon="4.60669">
        <ele>569</ele>
        <time>2018-01-08T16:10:06Z</time>
      </trkpt>
      <trkpt lat="46.08253" lon="4.60669">
        <ele>570</ele>
        <time>2018-01-08T16:10:06Z</time>
      </trkpt>
      <trkpt lat="46.08257" lon="4.60668">
        <ele>570</ele>
        <time>2018-01-08T16:10:06Z</time>
      </trkpt>
      <trkpt lat="46.08262" lon="4.60669">
        <ele>571</ele>
        <time>2018-01-08T16:10:22Z</time>
      </trkpt>
      <trkpt lat="46.08268" lon="4.6067">
        <ele>571</ele>
        <time>2018-01-08T16:10:22Z</time>
      </trkpt>
      <trkpt lat="46.08272" lon="4.6067">
        <ele>571</ele>
        <time>2018-01-08T16:10:22Z</time>
      </trkpt>
      <trkpt lat="46.08276" lon="4.60669">
        <ele>572</ele>
        <time>2018-01-08T16:10:22Z</time>
      </trkpt>
      <trkpt lat="46.0828" lon="4.60669">
        <ele>572</ele>
        <time>2018-01-08T16:10:38Z</time>
      </trkpt>
      <trkpt lat="46.08287" lon="4.60671">
        <ele>573</ele>
        <time>2018-01-08T16:10:38Z</time>
      </trkpt>
      <trkpt lat="46.08292" lon="4.60671">
        <ele>573</ele>
        <time>2018-01-08T16:10:38Z</time>
      </trkpt>
      <trkpt lat="46.08297" lon="4.60671">
        <ele>574</ele>
        <time>2018-01-08T16:10:38Z</time>
      </trkpt>
      <trkpt lat="46.08301" lon="4.60673">
        <ele>574</ele>
        <time>2018-01-08T16:10:54Z</time>
      </trkpt>
      <trkpt lat="46.08305" lon="4.60674">
        <ele>574</ele>
        <time>2018-01-08T16:10:54Z</time>
      </trkpt>
      <trkpt lat="46.08311" lon="4.60676">
        <ele>574</ele>
        <time>2018-01-08T16:10:54Z</time>
      </trkpt>
      <trkpt lat="46.08316" lon="4.60676">
        <ele>575</ele>
        <time>2018-01-08T16:10:54Z</time>
      </trkpt>
      <trkpt lat="46.0832" lon="4.60676">
        <ele>575</ele>
        <time>2018-01-08T16:11:10Z</time>
      </trkpt>
      <trkpt lat="46.08324" lon="4.60674">
        <ele>576</ele>
        <time>2018-01-08T16:11:10Z</time>
      </trkpt>
      <trkpt lat="46.08328" lon="4.60671">
        <ele>577</ele>
        <time>2018-01-08T16:11:10Z</time>
      </trkpt>
      <trkpt lat="46.08331" lon="4.60671">
        <ele>577</ele>
        <time>2018-01-08T16:11:10Z</time>
      </trkpt>
      <trkpt lat="46.08336" lon="4.60669">
        <ele>578</ele>
        <time>2018-01-08T16:11:26Z</time>
      </trkpt>
      <trkpt lat="46.0834" lon="4.60667">
        <ele>578</ele>
        <time>2018-01-08T16:11:26Z</time>
      </trkpt>
      <trkpt lat="46.08342" lon="4.60664">
        <ele>578</ele>
        <time>2018-01-08T16:11:26Z</time>
      </trkpt>
      <trkpt lat="46.08346" lon="4.60661">
        <ele>578</ele>
        <time>2018-01-08T16:11:26Z</time>
      </trkpt>
      <trkpt lat="46.08352" lon="4.60653">
        <ele>577</ele>
        <time>2018-01-08T16:12:26Z</time>
      </trkpt>
      <trkpt lat="46.08353" lon="4.60649">
        <ele>577</ele>
        <time>2018-01-08T16:12:26Z</time>
      </trkpt>
      <trkpt lat="46.08355" lon="4.60651">
        <ele>577</ele>
        <time>2018-01-08T16:12:26Z</time>
      </trkpt>
      <trkpt lat="46.08357" lon="4.60653">
        <ele>577</ele>
        <time>2018-01-08T16:12:26Z</time>
      </trkpt>
      <trkpt lat="46.08359" lon="4.60656">
        <ele>577</ele>
        <time>2018-01-08T16:12:26Z</time>
      </trkpt>
      <trkpt lat="46.08361" lon="4.60659">
        <ele>577</ele>
        <time>2018-01-08T16:12:46Z</time>
      </trkpt>
      <trkpt lat="46.08364" lon="4.60662">
        <ele>577</ele>
        <time>2018-01-08T16:12:46Z</time>
      </trkpt>
      <trkpt lat="46.08366" lon="4.60667">
        <ele>576</ele>
        <time>2018-01-08T16:12:46Z</time>
      </trkpt>
      <trkpt lat="46.0837" lon="4.60671">
        <ele>576</ele>
        <time>2018-01-08T16:12:46Z</time>
      </trkpt>
      <trkpt lat="46.08373" lon="4.60676">
        <ele>576</ele>
        <time>2018-01-08T16:13:02Z</time>
      </trkpt>
      <trkpt lat="46.08376" lon="4.60681">
        <ele>575</ele>
        <time>2018-01-08T16:13:02Z</time>
      </trkpt>
      <trkpt lat="46.0838" lon="4.60686">
        <ele>575</ele>
        <time>2018-01-08T16:13:02Z</time>
      </trkpt>
      <trkpt lat="46.08384" lon="4.60691">
        <ele>575</ele>
        <time>2018-01-08T16:13:02Z</time>
      </trkpt>
      <trkpt lat="46.08386" lon="4.60696">
        <ele>575</ele>
        <time>2018-01-08T16:13:18Z</time>
      </trkpt>
      <trkpt lat="46.08389" lon="4.60701">
        <ele>575</ele>
        <time>2018-01-08T16:13:18Z</time>
      </trkpt>
      <trkpt lat="46.08391" lon="4.60705">
        <ele>574</ele>
        <time>2018-01-08T16:13:18Z</time>
      </trkpt>
      <trkpt lat="46.08394" lon="4.60709">
        <ele>575</ele>
        <time>2018-01-08T16:13:18Z</time>
      </trkpt>
      <trkpt lat="46.08395" lon="4.6071">
        <ele>575</ele>
        <time>2018-01-08T16:13:42Z</time>
      </trkpt>
      <trkpt lat="46.08397" lon="4.60712">
        <ele>575</ele>
        <time>2018-01-08T16:13:42Z</time>
      </trkpt>
      <trkpt lat="46.08398" lon="4.60714">
        <ele>575</ele>
        <time>2018-01-08T16:13:42Z</time>
      </trkpt>
      <trkpt lat="46.08402" lon="4.60717">
        <ele>575</ele>
        <time>2018-01-08T16:13:42Z</time>
      </trkpt>
      <trkpt lat="46.08405" lon="4.60722">
        <ele>575</ele>
        <time>2018-01-08T16:13:42Z</time>
      </trkpt>
      <trkpt lat="46.08408" lon="4.60728">
        <ele>576</ele>
        <time>2018-01-08T16:13:58Z</time>
      </trkpt>
      <trkpt lat="46.08412" lon="4.60733">
        <ele>576</ele>
        <time>2018-01-08T16:13:58Z</time>
      </trkpt>
      <trkpt lat="46.08415" lon="4.60738">
        <ele>576</ele>
        <time>2018-01-08T16:13:58Z</time>
      </trkpt>
      <trkpt lat="46.08417" lon="4.60743">
        <ele>577</ele>
        <time>2018-01-08T16:13:58Z</time>
      </trkpt>
      <trkpt lat="46.0842" lon="4.60748">
        <ele>577</ele>
        <time>2018-01-08T16:14:14Z</time>
      </trkpt>
      <trkpt lat="46.08422" lon="4.60753">
        <ele>577</ele>
        <time>2018-01-08T16:14:14Z</time>
      </trkpt>
      <trkpt lat="46.08426" lon="4.60756">
        <ele>577</ele>
        <time>2018-01-08T16:14:14Z</time>
      </trkpt>
      <trkpt lat="46.08429" lon="4.60761">
        <ele>577</ele>
        <time>2018-01-08T16:14:14Z</time>
      </trkpt>
      <trkpt lat="46.08433" lon="4.60767">
        <ele>577</ele>
        <time>2018-01-08T16:14:34Z</time>
      </trkpt>
      <trkpt lat="46.08435" lon="4.60771">
        <ele>577</ele>
        <time>2018-01-08T16:14:34Z</time>
      </trkpt>
      <trkpt lat="46.08435" lon="4.60772">
        <ele>577</ele>
        <time>2018-01-08T16:14:34Z</time>
      </trkpt>
      <trkpt lat="46.08437" lon="4.60774">
        <ele>578</ele>
        <time>2018-01-08T16:14:34Z</time>
      </trkpt>
      <trkpt lat="46.08441" lon="4.60778">
        <ele>578</ele>
        <time>2018-01-08T16:14:34Z</time>
      </trkpt>
      <trkpt lat="46.08443" lon="4.60778">
        <ele>578</ele>
        <time>2018-01-08T16:14:50Z</time>
      </trkpt>
      <trkpt lat="46.08447" lon="4.60782">
        <ele>578</ele>
        <time>2018-01-08T16:14:50Z</time>
      </trkpt>
      <trkpt lat="46.08451" lon="4.60785">
        <ele>578</ele>
        <time>2018-01-08T16:14:50Z</time>
      </trkpt>
      <trkpt lat="46.08455" lon="4.60787">
        <ele>578</ele>
        <time>2018-01-08T16:14:50Z</time>
      </trkpt>
      <trkpt lat="46.0846" lon="4.60792">
        <ele>578</ele>
        <time>2018-01-08T16:15:06Z</time>
      </trkpt>
      <trkpt lat="46.08464" lon="4.60794">
        <ele>579</ele>
        <time>2018-01-08T16:15:06Z</time>
      </trkpt>
      <trkpt lat="46.08468" lon="4.60798">
        <ele>579</ele>
        <time>2018-01-08T16:15:06Z</time>
      </trkpt>
      <trkpt lat="46.08473" lon="4.60802">
        <ele>579</ele>
        <time>2018-01-08T16:15:06Z</time>
      </trkpt>
      <trkpt lat="46.08473" lon="4.60802">
        <ele>579</ele>
        <time>2018-01-08T16:16:06Z</time>
      </trkpt>
      <trkpt lat="46.08477" lon="4.60804">
        <ele>580</ele>
        <time>2018-01-08T16:16:06Z</time>
      </trkpt>
      <trkpt lat="46.08481" lon="4.60808">
        <ele>580</ele>
        <time>2018-01-08T16:16:06Z</time>
      </trkpt>
      <trkpt lat="46.08486" lon="4.60814">
        <ele>581</ele>
        <time>2018-01-08T16:16:06Z</time>
      </trkpt>
      <trkpt lat="46.08491" lon="4.6082">
        <ele>581</ele>
        <time>2018-01-08T16:16:22Z</time>
      </trkpt>
      <trkpt lat="46.08495" lon="4.60827">
        <ele>582</ele>
        <time>2018-01-08T16:16:22Z</time>
      </trkpt>
      <trkpt lat="46.085" lon="4.60831">
        <ele>583</ele>
        <time>2018-01-08T16:16:22Z</time>
      </trkpt>
      <trkpt lat="46.08504" lon="4.60836">
        <ele>583</ele>
        <time>2018-01-08T16:16:22Z</time>
      </trkpt>
      <trkpt lat="46.08507" lon="4.6084">
        <ele>583</ele>
        <time>2018-01-08T16:16:38Z</time>
      </trkpt>
      <trkpt lat="46.08511" lon="4.60844">
        <ele>583</ele>
        <time>2018-01-08T16:16:38Z</time>
      </trkpt>
      <trkpt lat="46.08516" lon="4.60849">
        <ele>583</ele>
        <time>2018-01-08T16:16:38Z</time>
      </trkpt>
      <trkpt lat="46.08521" lon="4.60852">
        <ele>582</ele>
        <time>2018-01-08T16:16:38Z</time>
      </trkpt>
      <trkpt lat="46.08527" lon="4.60853">
        <ele>582</ele>
        <time>2018-01-08T16:16:54Z</time>
      </trkpt>
      <trkpt lat="46.08532" lon="4.60854">
        <ele>581</ele>
        <time>2018-01-08T16:16:54Z</time>
      </trkpt>
      <trkpt lat="46.08541" lon="4.60858">
        <ele>581</ele>
        <time>2018-01-08T16:16:54Z</time>
      </trkpt>
      <trkpt lat="46.08545" lon="4.6086">
        <ele>581</ele>
        <time>2018-01-08T16:16:54Z</time>
      </trkpt>
      <trkpt lat="46.08549" lon="4.60861">
        <ele>581</ele>
        <time>2018-01-08T16:17:10Z</time>
      </trkpt>
      <trkpt lat="46.08555" lon="4.60862">
        <ele>580</ele>
        <time>2018-01-08T16:17:10Z</time>
      </trkpt>
      <trkpt lat="46.08559" lon="4.60863">
        <ele>580</ele>
        <time>2018-01-08T16:17:10Z</time>
      </trkpt>
      <trkpt lat="46.08563" lon="4.60865">
        <ele>580</ele>
        <time>2018-01-08T16:17:10Z</time>
      </trkpt>
      <trkpt lat="46.0857" lon="4.60868">
        <ele>580</ele>
        <time>2018-01-08T16:17:38Z</time>
      </trkpt>
      <trkpt lat="46.08571" lon="4.60867">
        <ele>580</ele>
        <time>2018-01-08T16:17:38Z</time>
      </trkpt>
      <trkpt lat="46.08577" lon="4.60869">
        <ele>580</ele>
        <time>2018-01-08T16:17:38Z</time>
      </trkpt>
      <trkpt lat="46.08581" lon="4.6087">
        <ele>580</ele>
        <time>2018-01-08T16:17:38Z</time>
      </trkpt>
      <trkpt lat="46.08585" lon="4.60871">
        <ele>579</ele>
        <time>2018-01-08T16:17:38Z</time>
      </trkpt>
      <trkpt lat="46.08589" lon="4.60872">
        <ele>579</ele>
        <time>2018-01-08T16:17:54Z</time>
      </trkpt>
      <trkpt lat="46.08593" lon="4.60873">
        <ele>579</ele>
        <time>2018-01-08T16:17:54Z</time>
      </trkpt>
      <trkpt lat="46.08597" lon="4.60873">
        <ele>578</ele>
        <time>2018-01-08T16:17:54Z</time>
      </trkpt>
      <trkpt lat="46.08603" lon="4.60875">
        <ele>578</ele>
        <time>2018-01-08T16:17:54Z</time>
      </trkpt>
      <trkpt lat="46.08608" lon="4.60876">
        <ele>577</ele>
        <time>2018-01-08T16:18:10Z</time>
      </trkpt>
      <trkpt lat="46.08612" lon="4.60877">
        <ele>577</ele>
        <time>2018-01-08T16:18:10Z</time>
      </trkpt>
      <trkpt lat="46.08618" lon="4.60878">
        <ele>577</ele>
        <time>2018-01-08T16:18:10Z</time>
      </trkpt>
      <trkpt lat="46.08622" lon="4.60879">
        <ele>576</ele>
        <time>2018-01-08T16:18:10Z</time>
      </trkpt>
      <trkpt lat="46.08627" lon="4.60879">
        <ele>575</ele>
        <time>2018-01-08T16:18:26Z</time>
      </trkpt>
      <trkpt lat="46.08633" lon="4.60879">
        <ele>575</ele>
        <time>2018-01-08T16:18:26Z</time>
      </trkpt>
      <trkpt lat="46.08636" lon="4.60881">
        <ele>575</ele>
        <time>2018-01-08T16:18:26Z</time>
      </trkpt>
      <trkpt lat="46.08641" lon="4.60883">
        <ele>574</ele>
        <time>2018-01-08T16:18:26Z</time>
      </trkpt>
      <trkpt lat="46.08647" lon="4.60884">
        <ele>574</ele>
        <time>2018-01-08T16:18:42Z</time>
      </trkpt>
      <trkpt lat="46.08652" lon="4.60885">
        <ele>573</ele>
        <time>2018-01-08T16:18:42Z</time>
      </trkpt>
      <trkpt lat="46.08657" lon="4.60886">
        <ele>573</ele>
        <time>2018-01-08T16:18:42Z</time>
      </trkpt>
      <trkpt lat="46.08661" lon="4.60888">
        <ele>573</ele>
        <time>2018-01-08T16:18:42Z</time>
      </trkpt>
      <trkpt lat="46.08666" lon="4.6089">
        <ele>572</ele>
        <time>2018-01-08T16:18:58Z</time>
      </trkpt>
      <trkpt lat="46.0867" lon="4.60892">
        <ele>572</ele>
        <time>2018-01-08T16:18:58Z</time>
      </trkpt>
      <trkpt lat="46.08673" lon="4.60894">
        <ele>571</ele>
        <time>2018-01-08T16:18:58Z</time>
      </trkpt>
      <trkpt lat="46.08675" lon="4.60894">
        <ele>571</ele>
        <time>2018-01-08T16:18:58Z</time>
      </trkpt>
      <trkpt lat="46.08677" lon="4.60894">
        <ele>570</ele>
        <time>2018-01-08T16:19:18Z</time>
      </trkpt>
      <trkpt lat="46.08683" lon="4.60896">
        <ele>569</ele>
        <time>2018-01-08T16:19:18Z</time>
      </trkpt>
      <trkpt lat="46.08687" lon="4.60897">
        <ele>568</ele>
        <time>2018-01-08T16:19:18Z</time>
      </trkpt>
      <trkpt lat="46.0869" lon="4.60901">
        <ele>568</ele>
        <time>2018-01-08T16:19:18Z</time>
      </trkpt>
      <trkpt lat="46.08694" lon="4.60904">
        <ele>567</ele>
        <time>2018-01-08T16:19:34Z</time>
      </trkpt>
      <trkpt lat="46.08697" lon="4.60907">
        <ele>567</ele>
        <time>2018-01-08T16:19:34Z</time>
      </trkpt>
      <trkpt lat="46.08701" lon="4.60912">
        <ele>566</ele>
        <time>2018-01-08T16:19:34Z</time>
      </trkpt>
      <trkpt lat="46.08708" lon="4.60915">
        <ele>565</ele>
        <time>2018-01-08T16:19:34Z</time>
      </trkpt>
      <trkpt lat="46.08714" lon="4.60921">
        <ele>563</ele>
        <time>2018-01-08T16:19:50Z</time>
      </trkpt>
      <trkpt lat="46.08718" lon="4.60928">
        <ele>563</ele>
        <time>2018-01-08T16:19:50Z</time>
      </trkpt>
      <trkpt lat="46.0872" lon="4.60935">
        <ele>562</ele>
        <time>2018-01-08T16:19:50Z</time>
      </trkpt>
      <trkpt lat="46.08724" lon="4.60941">
        <ele>562</ele>
        <time>2018-01-08T16:19:50Z</time>
      </trkpt>
      <trkpt lat="46.08726" lon="4.60951">
        <ele>561</ele>
        <time>2018-01-08T16:20:06Z</time>
      </trkpt>
      <trkpt lat="46.08729" lon="4.60959">
        <ele>561</ele>
        <time>2018-01-08T16:20:06Z</time>
      </trkpt>
      <trkpt lat="46.08731" lon="4.60967">
        <ele>560</ele>
        <time>2018-01-08T16:20:06Z</time>
      </trkpt>
      <trkpt lat="46.08735" lon="4.60974">
        <ele>559</ele>
        <time>2018-01-08T16:20:06Z</time>
      </trkpt>
      <trkpt lat="46.08737" lon="4.6098">
        <ele>558</ele>
        <time>2018-01-08T16:20:22Z</time>
      </trkpt>
      <trkpt lat="46.0874" lon="4.60989">
        <ele>558</ele>
        <time>2018-01-08T16:20:22Z</time>
      </trkpt>
      <trkpt lat="46.08738" lon="4.60995">
        <ele>558</ele>
        <time>2018-01-08T16:20:22Z</time>
      </trkpt>
      <trkpt lat="46.08741" lon="4.61003">
        <ele>558</ele>
        <time>2018-01-08T16:20:22Z</time>
      </trkpt>
      <trkpt lat="46.08742" lon="4.61011">
        <ele>558</ele>
        <time>2018-01-08T16:20:38Z</time>
      </trkpt>
      <trkpt lat="46.08743" lon="4.61018">
        <ele>558</ele>
        <time>2018-01-08T16:20:38Z</time>
      </trkpt>
      <trkpt lat="46.08746" lon="4.61027">
        <ele>557</ele>
        <time>2018-01-08T16:20:38Z</time>
      </trkpt>
      <trkpt lat="46.08749" lon="4.61035">
        <ele>556</ele>
        <time>2018-01-08T16:20:38Z</time>
      </trkpt>
      <trkpt lat="46.0875" lon="4.61043">
        <ele>556</ele>
        <time>2018-01-08T16:20:54Z</time>
      </trkpt>
      <trkpt lat="46.08754" lon="4.6105">
        <ele>555</ele>
        <time>2018-01-08T16:20:54Z</time>
      </trkpt>
      <trkpt lat="46.08755" lon="4.61061">
        <ele>555</ele>
        <time>2018-01-08T16:20:54Z</time>
      </trkpt>
      <trkpt lat="46.08758" lon="4.61069">
        <ele>555</ele>
        <time>2018-01-08T16:20:54Z</time>
      </trkpt>
      <trkpt lat="46.0876" lon="4.61077">
        <ele>554</ele>
        <time>2018-01-08T16:21:10Z</time>
      </trkpt>
      <trkpt lat="46.08761" lon="4.61085">
        <ele>554</ele>
        <time>2018-01-08T16:21:10Z</time>
      </trkpt>
      <trkpt lat="46.08763" lon="4.61093">
        <ele>555</ele>
        <time>2018-01-08T16:21:10Z</time>
      </trkpt>
      <trkpt lat="46.08763" lon="4.61101">
        <ele>556</ele>
        <time>2018-01-08T16:21:10Z</time>
      </trkpt>
      <trkpt lat="46.08763" lon="4.6111">
        <ele>556</ele>
        <time>2018-01-08T16:21:26Z</time>
      </trkpt>
      <trkpt lat="46.08766" lon="4.61119">
        <ele>556</ele>
        <time>2018-01-08T16:21:26Z</time>
      </trkpt>
      <trkpt lat="46.08767" lon="4.61127">
        <ele>557</ele>
        <time>2018-01-08T16:21:26Z</time>
      </trkpt>
      <trkpt lat="46.08769" lon="4.61135">
        <ele>557</ele>
        <time>2018-01-08T16:21:26Z</time>
      </trkpt>
      <trkpt lat="46.08773" lon="4.61139">
        <ele>556</ele>
        <time>2018-01-08T16:21:42Z</time>
      </trkpt>
      <trkpt lat="46.08777" lon="4.61144">
        <ele>555</ele>
        <time>2018-01-08T16:21:42Z</time>
      </trkpt>
      <trkpt lat="46.0878" lon="4.61149">
        <ele>554</ele>
        <time>2018-01-08T16:21:42Z</time>
      </trkpt>
      <trkpt lat="46.08781" lon="4.61155">
        <ele>554</ele>
        <time>2018-01-08T16:21:42Z</time>
      </trkpt>
      <trkpt lat="46.08783" lon="4.61163">
        <ele>554</ele>
        <time>2018-01-08T16:21:58Z</time>
      </trkpt>
      <trkpt lat="46.08785" lon="4.61167">
        <ele>554</ele>
        <time>2018-01-08T16:21:58Z</time>
      </trkpt>
      <trkpt lat="46.08787" lon="4.61171">
        <ele>554</ele>
        <time>2018-01-08T16:21:58Z</time>
      </trkpt>
      <trkpt lat="46.08789" lon="4.61175">
        <ele>554</ele>
        <time>2018-01-08T16:21:58Z</time>
      </trkpt>
      <trkpt lat="46.08791" lon="4.6118">
        <ele>554</ele>
        <time>2018-01-08T16:22:14Z</time>
      </trkpt>
      <trkpt lat="46.08792" lon="4.61184">
        <ele>554</ele>
        <time>2018-01-08T16:22:14Z</time>
      </trkpt>
      <trkpt lat="46.08792" lon="4.6119">
        <ele>555</ele>
        <time>2018-01-08T16:22:14Z</time>
      </trkpt>
      <trkpt lat="46.08793" lon="4.61194">
        <ele>556</ele>
        <time>2018-01-08T16:22:14Z</time>
      </trkpt>
      <trkpt lat="46.08796" lon="4.61199">
        <ele>555</ele>
        <time>2018-01-08T16:22:30Z</time>
      </trkpt>
      <trkpt lat="46.08798" lon="4.61205">
        <ele>556</ele>
        <time>2018-01-08T16:22:30Z</time>
      </trkpt>
      <trkpt lat="46.08801" lon="4.61213">
        <ele>556</ele>
        <time>2018-01-08T16:22:30Z</time>
      </trkpt>
      <trkpt lat="46.08807" lon="4.61217">
        <ele>555</ele>
        <time>2018-01-08T16:22:30Z</time>
      </trkpt>
      <trkpt lat="46.0881" lon="4.61222">
        <ele>555</ele>
        <time>2018-01-08T16:22:46Z</time>
      </trkpt>
      <trkpt lat="46.08813" lon="4.61228">
        <ele>555</ele>
        <time>2018-01-08T16:22:46Z</time>
      </trkpt>
      <trkpt lat="46.08815" lon="4.61234">
        <ele>555</ele>
        <time>2018-01-08T16:22:46Z</time>
      </trkpt>
      <trkpt lat="46.08819" lon="4.61241">
        <ele>555</ele>
        <time>2018-01-08T16:22:46Z</time>
      </trkpt>
      <trkpt lat="46.08823" lon="4.61247">
        <ele>555</ele>
        <time>2018-01-08T16:23:02Z</time>
      </trkpt>
      <trkpt lat="46.08827" lon="4.61253">
        <ele>555</ele>
        <time>2018-01-08T16:23:02Z</time>
      </trkpt>
      <trkpt lat="46.08831" lon="4.61258">
        <ele>554</ele>
        <time>2018-01-08T16:23:02Z</time>
      </trkpt>
      <trkpt lat="46.08835" lon="4.61263">
        <ele>554</ele>
        <time>2018-01-08T16:23:02Z</time>
      </trkpt>
      <trkpt lat="46.08839" lon="4.6127">
        <ele>554</ele>
        <time>2018-01-08T16:23:18Z</time>
      </trkpt>
      <trkpt lat="46.08842" lon="4.61275">
        <ele>554</ele>
        <time>2018-01-08T16:23:18Z</time>
      </trkpt>
      <trkpt lat="46.08845" lon="4.61282">
        <ele>555</ele>
        <time>2018-01-08T16:23:18Z</time>
      </trkpt>
      <trkpt lat="46.0885" lon="4.61288">
        <ele>555</ele>
        <time>2018-01-08T16:23:18Z</time>
      </trkpt>
      <trkpt lat="46.08854" lon="4.61294">
        <ele>554</ele>
        <time>2018-01-08T16:23:34Z</time>
      </trkpt>
      <trkpt lat="46.08856" lon="4.61299">
        <ele>555</ele>
        <time>2018-01-08T16:23:34Z</time>
      </trkpt>
      <trkpt lat="46.08858" lon="4.61303">
        <ele>555</ele>
        <time>2018-01-08T16:23:34Z</time>
      </trkpt>
      <trkpt lat="46.08859" lon="4.61312">
        <ele>556</ele>
        <time>2018-01-08T16:23:34Z</time>
      </trkpt>
      <trkpt lat="46.08861" lon="4.61317">
        <ele>557</ele>
        <time>2018-01-08T16:23:50Z</time>
      </trkpt>
      <trkpt lat="46.08861" lon="4.61322">
        <ele>557</ele>
        <time>2018-01-08T16:23:50Z</time>
      </trkpt>
      <trkpt lat="46.08863" lon="4.61327">
        <ele>558</ele>
        <time>2018-01-08T16:23:50Z</time>
      </trkpt>
      <trkpt lat="46.08864" lon="4.61334">
        <ele>559</ele>
        <time>2018-01-08T16:23:50Z</time>
      </trkpt>
      <trkpt lat="46.08867" lon="4.61338">
        <ele>559</ele>
        <time>2018-01-08T16:24:06Z</time>
      </trkpt>
      <trkpt lat="46.08869" lon="4.61341">
        <ele>559</ele>
        <time>2018-01-08T16:24:06Z</time>
      </trkpt>
      <trkpt lat="46.08871" lon="4.61345">
        <ele>559</ele>
        <time>2018-01-08T16:24:06Z</time>
      </trkpt>
      <trkpt lat="46.08872" lon="4.61351">
        <ele>560</ele>
        <time>2018-01-08T16:24:06Z</time>
      </trkpt>
      <trkpt lat="46.08875" lon="4.61357">
        <ele>561</ele>
        <time>2018-01-08T16:24:26Z</time>
      </trkpt>
      <trkpt lat="46.08876" lon="4.61363">
        <ele>562</ele>
        <time>2018-01-08T16:24:26Z</time>
      </trkpt>
      <trkpt lat="46.08875" lon="4.61368">
        <ele>563</ele>
        <time>2018-01-08T16:24:26Z</time>
      </trkpt>
      <trkpt lat="46.08875" lon="4.61369">
        <ele>563</ele>
        <time>2018-01-08T16:24:26Z</time>
      </trkpt>
      <trkpt lat="46.08877" lon="4.61372">
        <ele>563</ele>
        <time>2018-01-08T16:24:26Z</time>
      </trkpt>
      <trkpt lat="46.08878" lon="4.61375">
        <ele>564</ele>
        <time>2018-01-08T16:24:50Z</time>
      </trkpt>
      <trkpt lat="46.0888" lon="4.61377">
        <ele>563</ele>
        <time>2018-01-08T16:24:50Z</time>
      </trkpt>
      <trkpt lat="46.08882" lon="4.61379">
        <ele>563</ele>
        <time>2018-01-08T16:24:50Z</time>
      </trkpt>
      <trkpt lat="46.08884" lon="4.61379">
        <ele>563</ele>
        <time>2018-01-08T16:24:50Z</time>
      </trkpt>
      <trkpt lat="46.08886" lon="4.61382">
        <ele>563</ele>
        <time>2018-01-08T16:24:50Z</time>
      </trkpt>
      <trkpt lat="46.08887" lon="4.61385">
        <ele>563</ele>
        <time>2018-01-08T16:25:10Z</time>
      </trkpt>
      <trkpt lat="46.08888" lon="4.61386">
        <ele>563</ele>
        <time>2018-01-08T16:25:10Z</time>
      </trkpt>
      <trkpt lat="46.08892" lon="4.61391">
        <ele>563</ele>
        <time>2018-01-08T16:25:10Z</time>
      </trkpt>
      <trkpt lat="46.08893" lon="4.61392">
        <ele>563</ele>
        <time>2018-01-08T16:25:10Z</time>
      </trkpt>
      <trkpt lat="46.08898" lon="4.61393">
        <ele>562</ele>
        <time>2018-01-08T16:25:10Z</time>
      </trkpt>
      <trkpt lat="46.08903" lon="4.61397">
        <ele>561</ele>
        <time>2018-01-08T16:25:26Z</time>
      </trkpt>
      <trkpt lat="46.08905" lon="4.61399">
        <ele>561</ele>
        <time>2018-01-08T16:25:26Z</time>
      </trkpt>
      <trkpt lat="46.08909" lon="4.61398">
        <ele>559</ele>
        <time>2018-01-08T16:25:26Z</time>
      </trkpt>
      <trkpt lat="46.08912" lon="4.61403">
        <ele>560</ele>
        <time>2018-01-08T16:25:26Z</time>
      </trkpt>
      <trkpt lat="46.08917" lon="4.61407">
        <ele>559</ele>
        <time>2018-01-08T16:25:46Z</time>
      </trkpt>
      <trkpt lat="46.08922" lon="4.61409">
        <ele>560</ele>
        <time>2018-01-08T16:25:46Z</time>
      </trkpt>
      <trkpt lat="46.08924" lon="4.61413">
        <ele>561</ele>
        <time>2018-01-08T16:25:46Z</time>
      </trkpt>
      <trkpt lat="46.08928" lon="4.61414">
        <ele>562</ele>
        <time>2018-01-08T16:25:46Z</time>
      </trkpt>
      <trkpt lat="46.08934" lon="4.61415">
        <ele>562</ele>
        <time>2018-01-08T16:26:02Z</time>
      </trkpt>
      <trkpt lat="46.08938" lon="4.61418">
        <ele>563</ele>
        <time>2018-01-08T16:26:02Z</time>
      </trkpt>
      <trkpt lat="46.08944" lon="4.61419">
        <ele>564</ele>
        <time>2018-01-08T16:26:02Z</time>
      </trkpt>
      <trkpt lat="46.08954" lon="4.61422">
        <ele>565</ele>
        <time>2018-01-08T16:26:02Z</time>
      </trkpt>
      <trkpt lat="46.08959" lon="4.61426">
        <ele>566</ele>
        <time>2018-01-08T16:26:38Z</time>
      </trkpt>
      <trkpt lat="46.0896" lon="4.61426">
        <ele>566</ele>
        <time>2018-01-08T16:26:38Z</time>
      </trkpt>
      <trkpt lat="46.08963" lon="4.61427">
        <ele>566</ele>
        <time>2018-01-08T16:26:38Z</time>
      </trkpt>
      <trkpt lat="46.08988" lon="4.61444">
        <ele>570</ele>
        <time>2018-01-08T16:27:34Z</time>
      </trkpt>
      <trkpt lat="46.09008" lon="4.61454">
        <ele>575</ele>
        <time>2018-01-08T16:27:34Z</time>
      </trkpt>
      <trkpt lat="46.09026" lon="4.61476">
        <ele>584</ele>
        <time>2018-01-08T16:27:34Z</time>
      </trkpt>
      <trkpt lat="46.09034" lon="4.61491">
        <ele>588</ele>
        <time>2020-07-18T06:48:18Z</time>
      </trkpt>
      <trkpt lat="46.09068" lon="4.61502">
        <ele>597</ele>
        <time>2018-01-08T16:28:46Z</time>
      </trkpt>
      <trkpt lat="46.09088" lon="4.61533">
        <ele>603</ele>
        <time>2020-07-18T06:48:28Z</time>
      </trkpt>
      <trkpt lat="46.091" lon="4.61541">
        <ele>606</ele>
        <time>2020-07-18T06:48:33Z</time>
      </trkpt>
      <trkpt lat="46.09129" lon="4.61536">
        <ele>614</ele>
        <time>2020-07-18T06:48:38Z</time>
      </trkpt>
      <trkpt lat="46.09156" lon="4.61554">
        <ele>622</ele>
        <time>2018-01-08T16:35:22Z</time>
      </trkpt>
      <trkpt lat="46.09192" lon="4.61595">
        <ele>624</ele>
        <time>2020-07-18T06:48:48Z</time>
      </trkpt>
      <trkpt lat="46.09221" lon="4.61594">
        <ele>626</ele>
        <time>2020-07-18T06:48:53Z</time>
      </trkpt>
      <trkpt lat="46.09236" lon="4.61586">
        <ele>627</ele>
        <time>2020-07-18T06:48:58Z</time>
      </trkpt>
      <trkpt lat="46.09252" lon="4.61585">
        <ele>628</ele>
        <time>2020-07-18T06:49:03Z</time>
      </trkpt>
      <trkpt lat="46.09337" lon="4.61654">
        <ele>621</ele>
        <time>2020-07-18T06:49:08Z</time>
      </trkpt>
      <trkpt lat="46.09462" lon="4.6177">
        <ele>596</ele>
        <time>2020-07-18T06:49:13Z</time>
      </trkpt>
      <trkpt lat="46.0959" lon="4.61873">
        <ele>577</ele>
        <time>2020-07-18T06:49:18Z</time>
      </trkpt>
      <trkpt lat="46.09703" lon="4.61952">
        <ele>579</ele>
        <time>2020-07-18T06:49:23Z</time>
      </trkpt>
      <trkpt lat="46.09821" lon="4.62062">
        <ele>579</ele>
        <time>2020-07-18T06:49:28Z</time>
      </trkpt>
      <trkpt lat="46.09924" lon="4.62096">
        <ele>584</ele>
        <time>2020-07-18T06:49:33Z</time>
      </trkpt>
      <trkpt lat="46.0998" lon="4.62169">
        <ele>579</ele>
        <time>2020-07-18T06:49:38Z</time>
      </trkpt>
      <trkpt lat="46.10028" lon="4.62273">
        <ele>571</ele>
        <time>2020-07-18T06:49:43Z</time>
      </trkpt>
      <trkpt lat="46.10055" lon="4.62322">
        <ele>567</ele>
        <time>2020-07-18T06:49:48Z</time>
      </trkpt>
      <trkpt lat="46.10114" lon="4.62351">
        <ele>556</ele>
        <time>2020-07-18T06:49:53Z</time>
      </trkpt>
      <trkpt lat="46.10173" lon="4.62353">
        <ele>544</ele>
        <time>2020-07-18T06:49:58Z</time>
      </trkpt>
      <trkpt lat="46.10236" lon="4.62339">
        <ele>536</ele>
        <time>2020-07-18T06:50:03Z</time>
      </trkpt>
      <trkpt lat="46.10375" lon="4.62303">
        <ele>521</ele>
        <time>2020-07-18T06:50:08Z</time>
      </trkpt>
      <trkpt lat="46.10452" lon="4.62303">
        <ele>511</ele>
        <time>2020-07-18T06:50:13Z</time>
      </trkpt>
      <trkpt lat="46.10458" lon="4.62338">
        <ele>510</ele>
        <time>2020-07-18T06:50:18Z</time>
      </trkpt>
      <trkpt lat="46.1051" lon="4.62375">
        <ele>498</ele>
        <time>2020-07-18T06:50:23Z</time>
      </trkpt>
      <trkpt lat="46.10512" lon="4.62429">
        <ele>488</ele>
        <time>2020-07-18T06:50:28Z</time>
      </trkpt>
      <trkpt lat="46.10562" lon="4.6247">
        <ele>472</ele>
        <time>2020-07-18T06:50:33Z</time>
      </trkpt>
      <trkpt lat="46.10606" lon="4.62457">
        <ele>468</ele>
        <time>2020-07-18T06:50:38Z</time>
      </trkpt>
      <trkpt lat="46.10676" lon="4.62431">
        <ele>455</ele>
        <time>2020-07-18T06:50:43Z</time>
      </trkpt>
      <trkpt lat="46.10766" lon="4.6235">
        <ele>438</ele>
        <time>2020-07-18T06:50:48Z</time>
      </trkpt>
      <trkpt lat="46.10773" lon="4.62364">
        <ele>436</ele>
        <time>2020-07-18T06:50:53Z</time>
      </trkpt>
      <trkpt lat="46.10828" lon="4.62322">
        <ele>427</ele>
        <time>2020-07-18T06:50:58Z</time>
      </trkpt>
      <trkpt lat="46.10859" lon="4.62294">
        <ele>419</ele>
        <time>2020-07-18T06:51:03Z</time>
      </trkpt>
      <trkpt lat="46.10895" lon="4.62366">
        <ele>417</ele>
        <time>2020-07-18T06:51:08Z</time>
      </trkpt>
      <trkpt lat="46.10918" lon="4.62357">
        <ele>412</ele>
        <time>2020-07-18T06:51:13Z</time>
      </trkpt>
      <trkpt lat="46.10825" lon="4.62162">
        <ele>415</ele>
        <time>2020-07-18T06:51:18Z</time>
      </trkpt>
      <trkpt lat="46.10809" lon="4.62056">
        <ele>420</ele>
        <time>2020-07-18T06:51:23Z</time>
      </trkpt>
      <trkpt lat="46.10834" lon="4.61956">
        <ele>415</ele>
        <time>2020-07-18T06:51:28Z</time>
      </trkpt>
      <trkpt lat="46.10862" lon="4.61915">
        <ele>406</ele>
        <time>2020-07-18T06:51:33Z</time>
      </trkpt>
      <trkpt lat="46.10873" lon="4.61873">
        <ele>399</ele>
        <time>2020-07-18T06:51:38Z</time>
      </trkpt>
      <trkpt lat="46.10853" lon="4.61747">
        <ele>391</ele>
        <time>2020-07-18T06:51:43Z</time>
      </trkpt>
      <trkpt lat="46.10832" lon="4.61643">
        <ele>380</ele>
        <time>2020-07-18T06:51:48Z</time>
      </trkpt>
      <trkpt lat="46.10971" lon="4.61822">
        <ele>355</ele>
        <time>2020-07-18T06:51:53Z</time>
      </trkpt>
      <trkpt lat="46.10994" lon="4.61812">
        <ele>344</ele>
        <time>2020-07-18T06:51:58Z</time>
      </trkpt>
      <trkpt lat="46.10982" lon="4.61731">
        <ele>340</ele>
        <time>2020-07-18T06:52:03Z</time>
      </trkpt>
      <trkpt lat="46.1097" lon="4.6164">
        <ele>331</ele>
        <time>2020-07-18T06:52:08Z</time>
      </trkpt>
      <trkpt lat="46.10907" lon="4.61468">
        <ele>320</ele>
        <time>2020-07-18T06:52:13Z</time>
      </trkpt>
      <trkpt lat="46.10942" lon="4.61423">
        <ele>306</ele>
        <time>2020-07-18T06:52:18Z</time>
      </trkpt>
      <trkpt lat="46.1097" lon="4.61387">
        <ele>297</ele>
        <time>2020-07-18T06:52:23Z</time>
      </trkpt>
      <trkpt lat="46.10972" lon="4.61371">
        <ele>296</ele>
        <time>2020-07-18T06:52:28Z</time>
      </trkpt>
      <trkpt lat="46.10874" lon="4.61242">
        <ele>294</ele>
        <time>2020-07-18T06:52:33Z</time>
      </trkpt>
      <trkpt lat="46.108" lon="4.61197">
        <ele>295</ele>
        <time>2020-07-18T06:52:38Z</time>
      </trkpt>
    </trkseg>
  </trk>
</gpx>